[[{"header":{"parameterUnit":"m.s-1","parameterCategory":1,"la1":30.6,"la2":29.2853,"lo1":-89.7004,"lo2":-87.6739,"dy":0.0162,"dx":0.0183,"nx":112,"ny":82,"refTime":"2024-07-06T12:00:00:Z","depth":0,"parameterNumber":2,"parameterNumberName":"U-component_of_WINDS"},"data":[0.0,0.0,0.0,0.0,0.0,0.0,0.0,0.0,0.0,0.0,0.0,0.0,0.0,0.0,0.0,0.0,0.0,0.0,0.0,0.0,0.0,0.0,0.0,0.0,0.0,0.0,0.0,0.0,0.0,0.0,0.0,0.0,0.0,0.0,0.0,0.0,0.0,0.0,0.0,0.0,0.0,0.0,0.0,0.0,0.0,0.0,0.0,0.0,0.0,0.0,0.0,0.0,0.0,0.0,0.0,0.0,0.0,0.0,0.0,0.0,0.0,0.0,0.0,0.0,0.0,0.0,0.0,0.0,0.0,0.0,0.0,0.0,0.0,0.0,0.0,0.0,0.0,0.0,0.0,0.0,0.0,0.0,0.0,0.0,0.0,0.0,0.0,0.0,0.0,0.0,1.1213,1.1893,1.2469,1.2801,1.2801,1.2283,1.1603,1.076,0.0,0.0,0.0,0.0,0.0,0.0,0.0,0.0,0.0,0.0,0.0,0.0,0.0,0.0,0.0,0.0,0.0,0.0,0.0,0.0,0.0,0.0,0.0,0.0,0.0,0.0,0.0,0.0,0.0,0.0,0.0,0.0,0.0,0.0,0.0,0.0,0.0,0.0,0.0,0.0,0.0,0.0,0.0,0.0,0.0,0.0,0.0,0.0,0.0,0.0,0.0,0.0,0.0,0.0,0.0,0.0,0.0,0.0,0.0,0.0,0.0,0.0,0.0,0.0,0.0,0.0,0.0,0.0,0.0,0.0,0.0,0.0,0.0,0.0,0.0,0.0,0.0,0.0,0.0,0.0,0.0,0.0,0.0,0.0,0.0,0.0,0.0,0.0,0.0,0.0,0.0,0.0,0.0,0.0,0.0,0.0,0.0,0.0,0.0,0.0,0.0,0.0,0.0,0.0,1.1027,1.1744,1.2403,1.2801,1.2801,1.2454,1.2062,1.1636,0.0,0.0,0.0,0.0,0.0,0.0,0.0,0.0,0.0,0.0,0.0,0.0,0.0,0.0,0.0,0.0,0.0,0.0,0.0,0.0,0.0,0.0,0.0,0.0,0.0,0.0,0.0,0.0,0.0,0.0,0.0,0.0,0.0,0.0,0.0,0.0,0.0,0.0,0.0,0.0,0.0,0.0,0.0,0.0,0.0,0.0,0.0,0.0,0.0,0.0,0.0,0.0,0.0,0.0,0.0,0.0,0.0,0.0,0.0,0.0,0.0,0.0,0.0,0.0,0.0,0.0,0.0,0.0,0.0,0.0,0.0,0.0,0.0,0.0,0.0,0.0,0.0,0.0,0.0,0.0,0.0,0.0,0.0,0.0,0.0,0.0,0.0,0.0,0.0,0.0,0.0,0.0,0.0,0.0,0.0,0.0,0.0,0.0,0.0,0.0,0.0,0.0,0.0,1.1277,1.1291,1.1749,1.2718,1.3331,1.3331,1.2864,1.2306,1.1674,1.0169,0.0,0.0,0.0,0.0,0.0,0.0,0.0,0.0,0.0,0.0,0.0,0.0,0.0,0.0,0.0,0.0,0.0,0.0,0.0,0.0,0.0,0.0,0.0,0.0,0.0,0.0,0.0,0.0,0.0,0.0,0.0,0.0,0.0,0.0,0.0,0.0,0.0,0.0,0.0,0.0,0.0,0.0,0.0,0.0,0.0,0.0,0.0,0.0,0.0,0.0,0.0,0.0,0.0,0.0,0.0,0.0,0.0,0.0,0.0,0.0,0.0,0.0,0.0,0.0,0.0,0.0,0.0,0.0,0.0,0.0,0.0,0.0,0.0,0.0,0.0,0.0,0.0,0.0,0.0,0.0,0.0,0.0,0.0,0.0,0.0,0.0,0.0,0.0,0.0,0.0,0.0,0.0,0.0,0.0,0.0,0.0,0.0,0.0,0.0,0.0,0.0,0.0,1.1711,1.1753,1.1794,1.3002,1.381,1.381,1.322,1.2514,1.1674,1.0248,0.0,0.0,0.0,0.0,0.0,0.0,0.0,0.0,0.0,0.0,0.0,0.0,0.0,0.0,0.0,0.0,0.0,0.0,0.0,0.0,0.0,0.0,0.0,0.0,0.0,0.0,0.0,0.0,0.0,0.0,0.0,0.0,0.0,0.0,0.0,0.0,0.0,0.0,0.0,0.0,0.0,0.0,0.0,0.0,0.0,0.0,0.0,0.0,0.0,0.0,0.0,0.0,0.0,0.0,0.0,0.0,0.0,0.0,0.0,0.0,0.0,0.0,0.0,0.0,0.0,0.0,0.0,0.0,0.0,0.0,0.0,0.0,0.0,0.0,0.0,0.0,0.0,0.0,0.0,0.0,0.0,0.0,0.0,0.0,0.0,0.0,0.0,0.0,0.0,0.0,0.0,0.0,0.0,0.0,0.0,0.0,0.0,0.0,0.0,0.0,0.0,0.0,1.1718,1.2266,1.1854,1.3002,1.381,1.381,1.3346,1.2773,1.21,1.0508,0.0,0.0,0.0,0.0,0.0,0.0,0.0,0.0,0.0,0.0,0.0,0.0,0.0,0.0,0.0,0.0,0.0,0.0,0.0,0.0,0.0,0.0,0.0,0.0,0.0,0.0,0.0,0.0,0.0,0.0,0.0,0.0,0.0,0.0,0.0,0.0,0.0,0.0,0.0,0.0,0.0,0.0,0.0,0.0,0.0,0.0,0.0,0.0,0.0,0.0,0.0,0.0,0.0,0.0,0.0,0.0,0.0,0.0,0.0,0.0,0.0,0.0,0.0,0.0,0.0,0.0,0.0,0.0,0.0,0.0,0.0,0.0,0.0,0.0,0.0,0.0,0.0,0.0,0.0,0.0,0.0,0.0,0.0,0.0,0.0,0.0,0.0,0.0,0.0,0.0,0.0,0.0,0.0,0.0,0.0,0.0,0.0,0.0,0.0,0.0,0.0,0.0,1.094,1.1518,1.2351,1.3256,1.3974,1.4393,1.351,1.2673,1.2131,0.0,0.0,0.0,0.0,0.0,0.0,0.0,0.0,0.0,0.0,0.0,0.0,0.0,0.0,0.0,0.0,0.0,0.0,0.0,0.0,0.0,0.0,0.0,0.0,0.0,0.0,0.0,0.0,0.0,0.0,0.0,0.0,0.0,0.0,0.0,0.0,0.0,0.0,0.0,0.0,0.0,0.0,0.0,0.0,0.0,0.0,0.0,0.0,0.0,0.0,0.0,0.0,0.0,0.0,0.0,0.0,0.0,0.0,0.0,0.0,0.0,0.0,0.0,0.0,0.0,0.0,0.0,0.0,0.0,0.0,0.0,0.0,0.0,0.0,0.0,0.0,0.0,0.0,0.0,0.0,0.0,0.0,0.0,0.0,0.0,0.0,0.0,0.0,0.0,0.0,0.0,0.0,0.0,0.0,0.0,0.0,0.0,0.0,0.0,0.0,0.0,0.0,1.0415,1.0625,1.1227,1.2634,1.3391,1.3989,1.4438,1.3397,1.2492,1.1908,0.0,0.0,0.0,0.0,0.0,0.0,0.0,0.0,0.0,0.0,0.0,0.0,0.0,0.0,0.0,0.0,0.0,0.0,0.0,0.0,0.0,0.0,0.0,0.0,0.0,0.0,0.0,0.0,0.0,0.0,0.0,0.0,0.0,0.0,0.0,0.0,0.0,0.0,0.0,0.0,0.0,0.0,0.0,0.0,0.0,0.0,0.0,0.0,0.0,0.0,0.0,0.0,0.0,0.0,0.0,0.0,0.0,0.0,0.0,0.0,0.0,0.0,0.0,0.0,0.0,0.0,0.0,0.0,0.0,0.0,0.0,0.0,0.0,0.0,0.0,0.0,0.0,0.0,0.0,0.0,0.0,0.0,0.0,0.0,0.0,0.0,0.0,0.0,0.0,0.0,0.0,0.0,0.0,0.0,0.0,0.0,0.0,0.0,0.0,0.0,0.0,0.0,1.0366,1.0932,1.1693,1.2694,1.3391,1.381,1.3825,1.3045,1.2253,0.0,0.0,0.0,0.0,0.0,0.0,0.0,0.0,0.0,0.0,0.0,0.0,0.0,0.0,0.0,0.0,0.0,0.0,0.0,0.0,0.0,0.0,0.0,0.0,0.0,0.0,0.0,0.0,0.0,0.0,0.0,0.0,0.0,0.0,0.0,0.0,0.0,0.0,0.0,0.0,0.0,0.0,0.0,0.0,0.0,0.0,0.0,0.0,0.0,0.0,0.0,0.0,0.0,0.0,0.0,0.0,0.0,0.0,0.0,0.0,0.0,0.0,0.0,0.0,0.0,0.0,0.0,0.0,0.0,0.0,0.0,0.0,0.0,0.0,0.0,0.0,0.0,0.0,0.0,0.0,0.0,0.0,0.0,0.0,0.0,0.0,0.0,0.0,0.0,0.0,0.0,0.0,0.0,0.0,0.0,0.0,0.0,0.0,0.0,0.0,0.0,0.0,0.0,1.0333,1.1167,1.2181,1.3386,1.369,1.3989,1.4453,1.3034,1.1783,1.102,0.0,0.0,0.0,0.0,0.0,0.0,0.0,0.0,0.0,0.0,0.0,0.0,0.0,0.0,0.0,0.0,0.0,0.0,0.0,0.0,0.0,0.0,0.0,0.0,0.0,0.0,0.0,0.0,0.0,0.0,0.0,0.0,0.0,0.0,0.0,0.0,0.0,0.0,0.0,0.0,0.0,0.0,0.0,0.0,0.0,0.0,0.0,0.0,0.0,0.0,0.0,0.0,0.0,0.0,0.0,0.0,0.0,0.0,0.0,0.0,0.0,0.0,0.0,0.0,0.0,0.0,0.0,0.0,0.0,0.0,0.0,0.0,0.0,0.0,0.0,0.0,0.0,0.0,0.0,0.0,0.0,0.0,0.0,0.0,0.0,0.0,0.0,0.0,0.0,0.0,0.0,0.0,0.0,0.0,0.0,0.0,0.0,0.0,0.0,0.0,0.0,0.0,1.03,1.1264,1.2391,1.3659,1.381,1.3974,1.4363,1.2862,1.1447,1.0308,0.0,0.0,0.0,0.0,0.0,0.0,0.0,0.0,0.0,0.0,0.0,0.0,0.0,0.0,0.0,0.0,0.0,0.0,0.0,0.0,0.0,0.0,0.0,0.0,0.0,0.0,0.0,0.0,0.0,0.0,0.0,0.0,0.0,0.0,0.0,0.0,0.0,0.0,0.0,0.0,0.0,0.0,0.0,0.0,0.0,0.0,0.0,0.0,0.0,0.0,0.0,0.0,0.0,0.0,0.0,0.0,0.0,0.0,0.0,0.0,0.0,0.0,0.0,0.0,0.0,0.0,0.0,0.0,0.0,0.0,0.0,0.0,0.0,0.0,0.0,0.0,0.0,0.0,0.0,0.0,0.0,0.0,0.0,0.0,0.0,0.0,0.0,0.0,0.0,0.0,0.0,0.0,0.0,0.0,0.0,0.0,0.0,0.0,0.0,0.0,0.0,0.0,1.0395,1.1366,1.2476,1.3748,1.3899,1.387,1.381,1.2621,1.1198,0.9562,0.0,0.0,0.0,0.0,0.0,0.0,0.0,0.0,0.0,0.0,0.0,0.0,0.0,0.0,0.0,0.0,0.0,0.0,0.0,0.0,0.0,0.0,0.0,0.0,0.0,0.0,0.0,0.0,0.0,0.0,0.0,0.0,0.0,0.0,0.0,0.0,0.0,0.0,0.0,0.0,0.0,0.0,0.0,0.0,0.0,0.0,0.0,0.0,0.0,0.0,0.0,0.0,0.0,0.0,0.0,0.0,0.0,0.0,0.0,0.0,0.931,0.8837,0.0,0.0,0.0,0.0,0.0,0.0,0.0,0.0,0.0,0.0,0.0,0.0,0.0,0.0,0.0,0.0,0.0,0.0,0.0,0.0,0.0,0.0,0.0,0.0,0.0,0.0,0.0,0.0,0.0,0.0,0.0,0.0,0.0,0.0,0.0,0.0,0.0,0.0,0.0,0.0,1.1033,1.201,1.3129,1.4445,1.4588,1.4378,1.3829,1.2621,1.1312,0.9947,0.8867,0.0,0.0,0.0,0.0,0.0,0.0,0.0,0.0,0.0,0.0,0.0,0.0,0.0,0.0,0.0,0.0,0.0,0.0,0.0,0.0,0.0,0.0,0.0,0.0,0.0,0.0,0.0,0.0,0.0,0.0,0.0,0.0,0.0,0.0,0.0,0.0,0.0,0.0,0.0,0.0,0.0,0.0,0.0,0.0,0.0,0.0,0.0,0.0,0.0,0.0,0.0,0.0,0.0,0.0,0.0,0.0,0.0,0.0,0.0,0.9827,0.9529,0.0,0.0,0.0,0.0,0.0,0.0,0.0,0.0,0.0,0.0,0.0,0.0,0.0,0.0,0.0,0.0,0.0,0.0,0.0,0.0,0.0,0.0,0.0,0.0,0.0,0.0,0.0,0.0,0.0,0.0,0.0,0.0,0.0,0.0,0.0,0.0,0.0,0.0,0.0,0.0,1.14,1.2123,1.2941,1.407,1.4353,1.4332,1.3967,1.2675,1.1443,1.0395,0.9006,0.0,0.0,0.0,0.0,0.0,0.0,0.0,0.0,0.0,0.0,0.0,0.0,0.0,0.0,0.0,0.0,0.0,0.0,0.0,0.0,0.0,0.0,0.0,0.0,0.0,0.0,0.0,0.0,0.0,0.0,0.0,0.0,0.0,0.0,0.0,0.0,0.0,0.0,0.0,0.0,0.0,0.0,0.0,0.0,0.0,0.0,0.0,0.0,0.0,0.0,0.0,0.0,0.0,1.0752,1.0664,1.0287,1.0287,1.0886,1.1844,1.084,1.0719,1.1156,1.0362,0.0,0.0,0.0,0.0,0.0,0.0,0.0,0.0,0.0,0.0,0.0,0.0,0.0,0.0,0.0,0.0,0.0,0.0,0.0,0.0,0.0,0.0,1.0431,1.0366,1.0383,1.0248,0.9521,0.0,0.0,0.0,0.0,0.0,0.0,0.0,0.0,0.0,0.0,0.0,1.1707,1.216,1.2687,1.3566,1.3965,1.4141,1.4084,1.2856,1.1743,1.0965,0.9342,0.8148,0.0,0.0,0.0,0.0,0.0,0.0,0.0,0.0,0.0,0.0,0.0,0.0,0.0,0.0,0.0,0.0,0.0,0.0,0.0,0.0,0.0,0.0,0.0,0.0,0.0,0.0,0.0,0.0,0.0,0.0,0.0,0.0,0.6625,0.7373,0.0,0.0,0.0,0.0,0.0,0.0,0.0,0.0,0.0,0.0,0.0,0.0,0.0,1.0211,1.0204,1.0996,1.1137,1.0704,1.1691,1.2058,1.1887,1.1887,1.2648,1.3883,1.3389,0.0,1.2003,1.16,0.0,0.0,0.0,0.0,0.0,0.0,0.0,0.0,0.0,0.0,0.0,0.0,0.0,0.0,0.0,0.0,0.0,0.0,0.0,0.0,0.0,0.0,1.229,1.1155,1.1161,1.1382,1.1273,1.0031,0.8919,0.8851,0.8294,0.8064,0.0,0.0,0.0,0.0,0.0,0.0,1.2185,1.2664,1.3262,1.4245,1.4408,1.434,1.4127,1.3322,1.2545,1.179,1.0276,0.9022,0.8121,0.6986,0.0,0.0,0.0,0.0,0.0,0.0,0.0,0.0,0.0,0.0,0.0,0.0,0.0,0.0,0.0,0.0,0.0,0.0,0.0,0.0,0.0,0.0,0.0,0.0,0.0,0.0,0.0,0.0,0.0,0.7056,0.7723,0.7408,0.7848,0.795,0.0,0.0,0.0,0.0,0.0,0.0,0.0,0.0,0.0,1.0626,1.0612,1.088,1.1445,1.2134,1.2659,1.3,1.3864,1.4398,1.4625,1.4625,1.5067,1.5877,1.5687,1.5358,1.4816,1.3122,1.1945,1.1185,0.0,0.0,0.0,0.0,1.1503,1.1515,1.2019,1.1858,1.1427,1.1388,0.0,0.0,0.0,0.0,0.0,0.0,0.0,1.1811,1.1963,1.2329,1.2583,1.2304,1.2374,1.2517,1.2517,1.1449,1.0424,1.0001,0.9608,0.9238,0.9014,0.9146,0.0,0.0,0.0,1.0871,1.2291,1.2359,1.2652,1.367,1.4032,1.4105,1.3991,1.3391,1.2867,1.2534,1.0878,0.9659,0.9012,0.7666,0.6796,0.0,0.0,0.0,0.0,0.0,0.0,0.0,0.0,0.0,0.0,0.0,0.0,0.0,0.0,0.0,0.0,0.0,0.0,0.0,0.0,0.0,0.0,0.0,0.0,0.0,0.0,0.0,0.0,0.8229,0.8582,0.7972,0.8464,0.8548,0.0,0.0,0.0,0.0,0.0,0.0,1.0363,1.0881,1.1371,1.1799,1.1789,1.219,1.3031,1.3446,1.4027,1.482,1.5422,1.5951,1.6438,1.6578,1.687,1.7257,1.7257,1.7257,1.7073,1.4948,1.357,1.286,1.2756,1.2744,1.2817,1.2874,1.3047,1.3263,1.351,1.3448,1.3155,1.274,1.2311,1.1848,1.1357,0.0,0.0,0.0,0.0,1.2337,1.3361,1.3321,1.3141,1.3509,1.3607,1.35,1.3257,1.2746,1.2066,1.1146,1.073,1.0256,0.9516,0.9589,0.0,1.0093,1.0213,1.0743,1.2052,1.2037,1.2183,1.2941,1.3446,1.3769,1.3901,1.3395,1.3035,1.3002,1.1575,1.0517,0.9988,0.857,0.7654,0.7345,0.0,0.0,0.0,0.0,0.0,0.0,0.0,0.0,0.0,0.0,0.0,0.0,0.0,0.0,0.0,0.0,0.0,0.0,0.0,0.0,0.0,0.0,0.0,0.0,0.0,0.0,0.0,0.0,0.0,0.968,0.9805,0.0,0.0,0.0,0.0,1.013,1.0677,1.1149,1.1322,1.2429,1.3259,1.3736,1.4354,1.4727,1.4777,1.4815,1.484,1.4904,1.5434,1.5914,1.6332,1.6835,1.729,1.765,1.765,1.765,1.7617,1.7121,1.6019,1.4663,1.4663,1.4352,1.394,1.3992,1.4628,1.5444,1.5542,1.5508,1.5435,1.5341,1.4219,1.2961,1.304,1.2942,0.0,0.0,1.4146,1.4523,1.5329,1.5181,1.4765,1.4747,1.4686,1.4367,1.3415,1.3522,1.3402,1.2,1.1067,1.0527,1.068,0.0,1.0803,1.0991,1.1188,1.1359,1.1439,1.2047,1.2472,1.2532,1.2943,1.3425,1.3868,1.3454,1.3144,1.2997,1.2539,1.1888,1.0977,0.9988,0.8999,0.7988,0.639,0.0,0.0,0.0,0.0,0.0,0.0,0.0,0.0,0.0,0.0,0.0,0.0,0.0,0.0,0.0,0.0,0.0,0.0,0.0,0.0,0.0,0.0,0.0,0.0,0.0,0.0,0.0,0.0,1.0504,1.1002,0.0,1.042,1.0711,1.1097,1.1589,1.2462,1.3289,1.407,1.4863,1.5386,1.5558,1.5793,1.5768,1.541,1.5775,1.5919,1.5932,1.6481,1.7149,1.7996,1.8179,1.8519,1.8986,1.8986,1.8986,1.8986,1.8832,1.7801,1.6255,1.6014,1.5785,1.562,1.5651,1.5874,1.618,1.6228,1.6194,1.6187,1.6152,1.5743,1.5203,1.491,1.4761,1.4752,1.5066,1.5207,1.5333,1.5641,1.5805,1.586,1.5465,1.5353,1.5263,1.4886,1.4666,1.4285,1.3382,1.2659,1.2152,1.1985,1.183,1.1578,1.1041,1.1033,1.1187,1.1567,1.1571,1.1689,1.2029,1.221,1.2496,1.2941,1.2567,1.2681,1.3519,1.2234,1.1319,1.1076,0.9822,0.885,0.8213,0.7153,0.6442,0.0,0.0,0.0,0.0,0.0,0.0,0.0,0.0,0.0,0.0,0.0,0.0,0.0,0.0,0.0,0.0,0.0,0.0,0.0,0.0,0.0,0.0,0.0,0.0,0.0,1.1458,1.2335,1.1976,1.2463,1.2637,1.2166,1.2413,1.292,1.3714,1.4428,1.5208,1.6061,1.653,1.6816,1.6973,1.7026,1.6793,1.6241,1.6586,1.6665,1.6517,1.7046,1.7666,1.838,1.8727,1.9095,1.9442,1.9603,1.969,1.969,1.969,1.9025,1.7934,1.7661,1.7541,1.7526,1.7497,1.7708,1.8013,1.7841,1.7551,1.7219,1.7064,1.6902,1.6656,1.6327,1.6248,1.6288,1.644,1.6494,1.6531,1.6719,1.6904,1.6886,1.6362,1.6211,1.6083,1.5771,1.5247,1.4773,1.455,1.4084,1.3454,1.2618,1.2557,1.2194,1.0993,1.0785,1.0945,1.1271,1.1216,1.129,1.173,1.1908,1.2065,1.2269,1.2102,1.2413,1.3387,1.2041,1.1291,1.1529,1.0003,0.9085,0.8943,0.7671,0.6729,0.6198,0.0,0.0,0.0,0.0,0.0,0.0,0.0,0.0,0.0,0.0,0.0,0.0,0.0,0.0,0.0,0.0,0.0,0.0,0.0,0.0,0.0,0.0,0.0,1.2216,1.2768,1.3436,1.4168,1.4204,1.4429,1.509,1.5374,1.5811,1.6494,1.655,1.6725,1.718,1.7319,1.7557,1.7935,1.8072,1.7867,1.7353,1.7312,1.7034,1.6522,1.7034,1.7312,1.7353,1.838,1.8893,1.893,1.9442,1.969,1.969,1.969,1.969,1.9675,1.9651,1.9606,1.9606,1.9465,2.0054,2.0862,2.0416,1.9573,1.8648,1.8285,1.7708,1.7179,1.7315,1.7372,1.7497,1.8004,1.8171,1.8288,1.8803,1.8535,1.8032,1.7449,1.7222,1.6845,1.5904,1.5133,1.4809,1.5396,1.5162,1.4329,1.2595,1.2764,1.2584,1.0866,1.0588,0.0,1.0588,1.0988,1.1338,1.1664,1.207,1.2185,1.1793,1.2138,1.2425,1.2461,1.1963,1.1877,1.2294,1.0529,0.9716,1.0125,0.7794,0.6233,0.5448,0.0,0.0,0.0,0.0,0.0,0.0,0.0,0.0,0.0,0.0,0.0,0.0,0.0,0.0,0.0,0.0,0.0,0.0,0.0,0.0,0.0,1.2663,1.3187,1.2697,1.3609,1.4604,1.5279,1.5463,1.5828,1.651,1.6344,1.6613,1.7569,1.7662,1.8042,1.893,1.9,1.9104,1.9212,1.9229,1.8817,1.7907,1.7867,1.7435,1.6522,1.7034,1.7312,1.7312,1.8027,1.8535,1.8893,1.9043,1.9332,1.969,1.969,1.969,1.969,1.966,1.966,1.966,1.9615,1.9564,1.9456,1.9325,1.9097,1.8907,1.9176,1.9144,1.8903,1.8576,1.8716,1.8987,1.9163,1.9396,1.9581,1.9426,1.9295,1.8979,1.8079,1.7543,1.7049,1.635,1.5731,1.4987,1.3796,1.3811,1.3736,1.2842,1.2385,1.1854,1.0908,1.0494,1.0326,1.0326,1.0128,1.0231,1.0848,1.0728,1.0738,1.1105,1.0645,1.0568,1.1209,0.9976,0.9495,1.0193,0.8877,0.8196,0.826,0.7244,0.6646,0.0,0.0,0.0,0.0,0.0,0.0,0.0,0.0,0.0,0.0,0.0,0.0,0.0,0.0,0.0,0.0,0.0,0.0,0.0,0.0,0.0,0.0,1.3983,1.4588,1.4453,1.5111,1.5755,1.6129,1.6526,1.7031,1.7709,1.7548,1.7809,1.8714,1.8773,1.9043,1.9675,1.969,1.969,1.969,1.969,1.9169,1.8106,1.8106,1.7544,1.6522,1.6837,1.6951,1.6993,1.7504,1.7947,1.8263,1.8458,1.8855,1.9369,1.9132,1.9169,1.9406,0.0,0.0,0.0,0.0,1.928,1.8849,1.8849,1.875,1.865,1.9207,1.9207,1.9006,1.893,1.8939,1.8985,1.8985,1.9141,1.9273,1.9045,1.8985,1.876,1.7973,1.7327,1.6828,1.6476,1.5564,1.4516,1.3344,1.3022,0.0,1.1688,1.1639,1.144,1.0509,1.0198,1.0021,1.0021,0.98,0.9851,1.036,1.0191,1.0057,1.0149,0.983,0.0,0.0,0.0,0.8445,0.8433,0.764,0.0,0.0,0.0,0.0,0.0,0.6089,0.0,0.0,0.6473,0.6386,0.0,0.0,0.0,0.0,0.0,0.0,0.0,0.0,0.0,0.0,0.0,0.0,0.0,0.0,0.0,0.0,1.5173,1.6099,1.6741,1.6891,1.6936,1.6936,1.7443,1.8089,1.8747,1.8807,1.9061,1.9681,1.969,1.969,1.969,1.969,0.0,0.0,0.0,1.9169,1.8106,1.8106,1.7544,1.6522,1.6552,1.6552,1.6522,1.7076,1.7312,1.7353,1.7787,1.8302,1.8765,1.8302,1.838,1.8878,1.9743,1.9798,1.9411,1.9235,1.8957,1.8641,1.8641,0.0,0.0,1.865,1.8496,1.8185,1.865,1.8535,1.8171,1.8171,1.8196,1.8235,1.821,1.8078,1.784,1.734,1.6689,1.6207,1.612,1.488,1.3737,1.3434,1.2474,1.1266,1.0012,1.0738,1.1073,0.9858,0.9666,0.9666,0.9666,0.9666,0.9804,1.014,1.0116,0.0,0.9165,0.9477,0.9494,0.9116,0.8668,0.7953,0.6882,0.6643,0.6413,0.6131,0.6318,0.6272,0.5942,0.6142,0.6488,0.6943,0.6186,0.6151,0.0,0.0,0.0,0.0,0.0,0.0,0.0,0.0,0.0,0.0,0.0,0.0,0.0,0.0,0.0,1.5465,1.6155,1.6756,1.7413,1.7951,1.8328,1.8328,1.8433,1.8777,1.9435,1.9495,1.9555,1.9675,1.969,1.969,1.969,1.969,1.969,1.969,1.969,1.9169,1.8106,1.8106,1.7544,1.6522,1.6951,0.0,1.6522,1.7076,1.7312,1.7312,1.7435,1.7747,1.8263,1.8145,1.8185,1.8249,1.8468,1.8468,1.8313,1.7866,1.7666,1.7612,1.7612,1.7531,1.7544,1.8066,1.8185,1.8145,1.8224,1.8454,0.0,1.8641,1.8898,1.909,1.874,1.7993,1.7181,1.6705,1.5784,1.4915,1.44,1.4039,1.3464,1.2366,1.1539,1.0762,0.9909,1.0005,0.9909,0.9106,0.9008,0.9008,0.9008,0.9008,0.9242,0.9826,0.9585,0.9373,0.9341,0.9074,0.8456,0.7365,0.6564,0.591,0.5347,0.5501,0.564,0.5815,0.5815,0.5951,0.6152,0.6386,0.6578,0.668,0.6717,0.7029,0.0,0.0,0.0,0.0,0.0,0.0,0.0,0.0,0.0,0.0,0.0,1.2545,1.3482,0.0,1.5352,1.6683,1.7344,1.7802,1.8164,1.8777,1.9076,1.8747,1.9001,1.9331,1.966,1.969,1.9782,2.0,1.9803,1.9782,2.0,1.9818,1.969,1.969,1.9442,1.8893,1.8106,1.7827,1.7312,1.6522,1.6752,1.6752,1.6522,1.6795,1.6909,1.6909,1.6909,1.7188,1.7706,1.7706,1.7544,1.7271,1.6983,1.719,1.7626,1.7118,1.6909,1.6909,1.6909,1.6909,1.6993,1.7544,1.7504,1.7299,1.7272,1.7233,1.7152,1.6837,1.6909,1.7006,1.6811,1.6321,1.583,1.5596,1.4903,1.4143,1.3873,1.3283,1.2492,1.1516,1.0762,1.0064,0.9413,0.9309,0.9159,0.8857,0.8804,0.8804,0.8804,0.8804,0.891,0.9263,0.9123,0.8975,0.892,0.8517,0.7848,0.6877,0.615,0.5479,0.4907,0.4763,0.4721,0.4853,0.5524,0.5952,0.6087,0.6879,0.7385,0.7673,0.7805,0.7929,0.0,0.0,0.0,0.0,0.0,0.0,0.0,0.0,1.2162,1.2447,1.3115,1.3919,1.4809,1.5649,1.6548,1.773,1.8358,1.8747,1.8882,1.9346,1.9495,1.8957,1.9361,1.969,1.969,1.969,1.9839,2.0158,1.9874,1.9803,2.0039,1.9717,1.9479,1.9406,1.8968,1.8496,1.7947,1.7504,1.7034,1.6522,1.6522,1.6522,1.6522,1.6522,1.6522,1.6522,1.6522,1.6752,1.7146,1.7008,1.6727,1.6281,1.5676,1.5971,1.6744,1.6312,1.6238,1.6337,1.6337,1.638,1.6552,1.6993,1.6837,1.6466,1.6275,1.5915,1.5454,1.488,1.4698,1.4698,1.4698,1.4606,1.4525,1.4525,1.405,1.3647,1.3647,1.2648,1.1665,1.1116,1.0364,0.9614,0.9113,0.891,0.8804,0.8804,0.8804,0.8804,0.8804,0.8804,0.8804,0.8804,0.8804,0.8711,0.8477,0.8088,0.7523,0.6764,0.6183,0.5534,0.4759,0.4267,0.4069,0.4168,0.5389,0.6072,0.6169,0.7338,0.8112,0.8569,0.8569,0.8562,1.1448,1.217,1.2992,1.371,1.3594,1.3699,0.0,0.0,1.3494,1.3884,1.478,1.5542,1.5664,1.6667,1.7745,1.8478,1.8657,1.8912,1.9495,1.963,1.966,1.9585,1.963,1.969,1.969,1.969,1.9711,1.9747,1.9726,1.9515,1.9066,1.9006,1.8765,1.8302,1.8224,1.7947,1.7394,1.7353,1.7034,1.6522,1.6522,1.6522,1.6522,1.6522,1.6522,1.6522,1.6522,1.6522,1.6552,1.5996,1.5764,1.5632,1.5062,1.488,1.496,1.4926,1.5242,1.572,1.572,1.6051,1.6522,1.6552,1.6552,1.638,1.5852,1.5632,1.5454,1.488,1.4698,1.4698,1.4698,1.4283,1.3909,1.3909,1.342,1.3017,1.3017,1.2384,1.1765,1.1715,1.0669,0.9762,0.9718,0.9211,0.8804,0.8804,0.8804,0.8804,0.8804,0.8804,0.8804,0.8804,0.8804,0.8791,0.8758,0.814,0.7379,0.6483,0.5756,0.497,0.4122,0.4019,0.4264,0.4808,0.559,0.6213,0.6733,0.7529,0.7929,0.7977,0.7977,0.8501,1.3808,1.4128,1.441,1.5155,1.5461,1.577,1.637,1.6057,1.5748,1.615,1.6608,1.7026,1.7416,1.7924,1.8508,1.9166,1.9271,1.9375,1.9645,1.969,1.969,1.969,1.969,1.969,1.969,1.969,1.966,1.9651,1.9391,1.9118,1.8873,1.8584,1.8341,1.8106,1.7787,1.7544,1.7312,1.6993,1.671,1.6522,1.6522,1.6337,1.5964,1.5964,1.5964,1.6008,1.6337,1.6281,1.5952,1.572,1.541,1.5017,1.4422,1.419,1.4236,1.456,1.488,1.5062,1.5062,1.5242,1.5433,1.5433,1.5433,1.5332,1.4732,1.4549,1.4411,1.3836,1.3658,1.3658,1.3658,1.3478,1.318,1.2754,1.2414,1.2138,1.1742,1.1124,1.0669,1.0669,0.9865,0.9211,0.9211,0.9008,0.8804,0.8804,0.8804,0.8804,0.8804,0.8804,0.8804,0.8804,0.8804,0.8804,0.8804,0.8103,0.7351,0.6559,0.5806,0.5083,0.4333,0.4277,0.4435,0.4643,0.5366,0.6043,0.6664,0.74,0.8025,0.8444,0.8444,0.8682,1.4851,1.511,1.5346,1.582,1.6654,1.7284,1.6929,1.7145,1.7471,1.7642,1.7832,1.81,1.8612,1.8852,1.9101,1.9405,1.9479,1.9479,1.9479,1.9479,1.953,1.969,1.969,1.9639,1.9479,1.9479,1.9464,1.9405,1.8939,1.8584,1.8387,1.8064,1.7827,1.7666,1.7271,1.7076,1.7076,1.668,1.6522,1.6522,1.6324,1.6008,1.5576,1.541,1.5365,1.5365,1.5832,1.5744,1.532,1.5174,1.4903,1.4573,1.3968,1.3738,1.3776,1.4206,1.4403,1.4468,1.4468,1.456,1.4698,1.4698,1.4698,1.4617,1.3956,1.3815,1.3684,1.3065,1.2881,1.2881,1.2881,1.2764,1.2452,1.1922,1.1665,1.1416,1.0914,1.0261,0.9814,0.9814,0.9263,0.8804,0.8804,0.8646,0.848,0.848,0.8321,0.8321,0.8752,0.8646,0.848,0.848,0.8315,0.8209,0.8209,0.7723,0.7074,0.6367,0.5814,0.5218,0.4515,0.4519,0.4519,0.4519,0.5164,0.5869,0.6588,0.7343,0.8103,0.8804,0.8804,0.8804,1.3517,1.4279,1.5298,1.5329,1.6565,1.7686,1.7363,1.7743,1.8068,1.7764,1.8223,1.8687,1.8702,1.9226,1.95,1.9006,1.893,1.893,1.893,1.893,1.9132,1.9639,1.969,1.9479,1.8968,1.893,1.893,1.893,1.8419,1.7907,1.7381,1.7353,1.7076,1.6552,1.6522,1.6522,1.6522,1.6522,1.6522,1.6466,1.5908,1.5632,1.5588,1.5005,1.4744,1.4744,1.4755,1.4744,1.4698,1.4097,1.4079,1.433,1.372,1.3486,1.3537,1.3537,1.365,1.3815,1.3815,1.419,1.4698,1.4698,1.4698,1.4617,1.3956,1.3815,1.3684,1.3065,1.2881,1.2881,1.2881,1.2344,1.1814,1.1814,1.1316,1.0813,1.0813,1.0261,0.9814,0.9814,0.9263,0.8804,0.8804,0.8209,0.7723,0.7723,0.7128,0.7182,0.8593,0.8156,0.7723,0.7723,0.7074,0.6642,0.6642,0.6642,0.6312,0.5597,0.5487,0.5218,0.4515,0.4519,0.4519,0.4519,0.5164,0.5869,0.6588,0.7343,0.8103,0.8804,0.8804,0.8804,1.5315,1.6065,1.6735,1.7124,1.7989,1.8703,1.8594,1.8612,1.8626,1.8527,1.8666,1.8848,1.8848,1.9294,1.953,1.9006,1.8893,1.8779,1.8419,1.838,1.8458,1.8612,1.865,1.8574,1.838,1.9006,1.9132,1.8419,1.8224,1.7867,1.7353,1.6951,1.668,1.6522,1.6522,1.6522,1.6522,1.6522,1.6522,1.6479,1.5466,1.4778,1.4411,1.419,1.4269,1.4489,1.4658,1.4796,1.4932,1.4405,1.4204,1.4158,1.3969,1.3926,1.3926,1.3926,1.3923,1.3911,1.339,1.3334,1.3525,1.3525,1.3525,1.3478,1.3238,1.319,1.3152,1.2978,1.2881,1.2881,1.2881,1.2344,1.1665,1.1266,1.0618,1.0012,0.9562,0.9309,0.9159,0.9159,0.8956,0.8646,0.8156,0.7883,0.7509,0.702,0.675,0.6804,0.7289,0.7128,0.6966,0.6966,0.675,0.6588,0.6588,0.6145,0.576,0.5542,0.5058,0.4732,0.4519,0.4519,0.4519,0.4519,0.4732,0.5167,0.5869,0.614,0.6632,0.7343,0.7343,0.7343,1.6383,1.6879,1.7242,1.7853,1.8539,1.901,1.901,1.8954,1.891,1.8841,1.8561,1.8435,1.8746,1.868,1.8629,1.8858,1.8427,1.8051,1.8104,1.7947,1.7907,1.8066,1.8106,1.8027,1.7827,1.8612,1.8765,1.7867,1.7827,1.7585,1.7034,1.6484,1.6194,1.6194,1.6194,1.6194,1.6194,1.638,1.6349,1.6065,1.524,1.4516,1.3928,1.3928,1.4032,1.4287,1.4447,1.4568,1.4746,1.443,1.4323,1.4365,1.4365,1.4365,1.4365,1.4365,1.4214,1.4053,1.3516,1.3072,1.2798,1.3056,1.2683,1.2206,1.2452,1.2353,1.2157,1.2157,1.2157,1.2157,1.2157,1.1633,1.0965,1.0568,0.9909,0.9309,0.891,0.8593,0.8427,0.8427,0.8209,0.7883,0.7396,0.7069,0.6686,0.5932,0.5828,0.6046,0.6534,0.6367,0.6199,0.6199,0.5987,0.5828,0.5828,0.5441,0.5164,0.5164,0.4732,0.4519,0.4519,0.4519,0.4519,0.4519,0.4519,0.4842,0.5487,0.5487,0.5869,0.6588,0.6588,0.6588,1.6713,1.6831,1.701,1.7637,1.8265,1.8713,1.8713,1.8738,1.8751,1.8599,1.7856,1.7486,1.8342,1.7459,1.7036,1.8493,1.7543,1.6915,1.7865,1.7585,1.7463,1.7947,1.8027,1.7841,1.7352,1.7787,1.7882,1.7391,1.7337,1.7102,1.6522,1.5932,1.5623,1.5579,1.5555,1.5567,1.5626,1.6181,1.6068,1.5277,1.5158,1.4767,1.4077,1.4077,1.4087,1.4107,1.4087,1.4107,1.4145,1.4116,1.4424,1.4814,1.4814,1.4814,1.4758,1.4814,1.4496,1.4038,1.4092,1.3421,1.269,1.3198,1.2226,1.099,1.1566,1.1316,1.0813,1.0813,1.0813,1.0813,1.0813,1.0312,0.9814,0.9814,0.9316,0.8804,0.8752,0.8209,0.767,0.767,0.7074,0.6534,0.6534,0.5928,0.5218,0.457,0.4519,0.5011,0.6317,0.5873,0.5433,0.5433,0.4897,0.4519,0.4519,0.4519,0.4519,0.4519,0.4519,0.4519,0.4519,0.4519,0.4519,0.4519,0.4519,0.4787,0.5433,0.5433,0.5819,0.648,0.648,0.648,1.8029,1.8553,1.8972,1.9151,1.9,1.8848,1.8848,1.7955,1.7082,1.7085,1.6552,1.6032,1.5833,1.6817,1.7441,1.6633,1.7197,1.7491,1.6967,1.6795,1.6752,1.6879,1.6909,1.7046,1.732,1.7869,1.8126,1.8002,1.7974,1.7531,1.6471,1.6272,1.5928,1.5366,1.5073,1.5232,1.5871,1.6029,1.5813,1.515,1.5133,1.4767,1.4077,1.4077,1.4307,1.46,1.4277,1.4492,1.5068,1.4746,1.4863,1.5254,1.5254,1.4897,1.4421,1.5013,1.4415,1.3379,1.3965,1.397,1.3484,1.2263,1.1939,1.1921,1.1251,1.0965,1.0813,1.0813,1.0813,1.0813,1.0813,1.0312,0.9814,0.9814,0.9316,0.8646,0.8103,0.783,0.7557,0.6966,0.6308,0.576,0.576,0.5222,0.4677,0.4515,0.4519,0.4625,0.5007,0.4897,0.4732,0.4732,0.4625,0.4519,0.4519,0.4519,0.4519,0.4519,0.4519,0.4519,0.4519,0.4519,0.4519,0.4519,0.4519,0.457,0.4732,0.4732,0.4842,0.5007,0.5007,0.5007,1.8682,1.9248,1.969,1.969,1.9281,1.8823,1.8454,1.7399,1.6304,1.5667,1.5261,1.4928,1.4648,1.5572,1.6308,1.6239,1.6682,1.7022,1.6883,1.6637,1.6522,1.6522,1.6522,1.6647,1.6974,1.7523,1.7849,1.7861,1.8002,1.7695,1.6769,1.616,1.5653,1.5217,1.4969,1.5225,1.6003,1.5927,1.568,1.5383,1.5257,1.5019,1.4697,1.4697,1.4824,1.5049,1.4805,1.4971,1.5391,1.5156,1.4965,1.4864,1.4864,1.4392,1.3734,1.4213,1.3786,1.3009,1.3114,1.332,1.339,1.199,1.1337,1.0998,1.0526,1.0167,0.9917,0.9917,0.9917,0.9917,0.9917,0.9666,0.9361,0.9361,0.9061,0.8593,0.783,0.745,0.6912,0.5878,0.5332,0.5054,0.5054,0.4732,0.4519,0.4519,0.4519,0.4519,0.4519,0.4519,0.4519,0.4519,0.4522,0.4522,0.4519,0.4522,0.4522,0.4519,0.4519,0.4519,0.4519,0.4519,0.4519,0.4519,0.4519,0.4519,0.4519,0.4519,0.4519,0.4519,0.4519,0.4519,1.8861,1.9281,1.969,1.969,1.9222,1.86,1.7903,1.6894,1.5788,1.4522,1.3985,1.3822,1.3997,1.4057,1.4641,1.6319,0.0,1.6115,1.7068,1.6795,1.6522,1.6522,1.6522,1.6547,1.6622,1.7149,1.7526,1.7497,1.7698,1.7618,1.701,1.5836,1.5143,1.4976,1.5101,1.5374,1.5858,1.571,1.5677,1.5687,1.5454,1.541,1.541,1.541,1.541,1.541,1.541,1.541,1.541,1.541,1.4932,1.4213,1.4213,1.3666,1.2818,1.2948,1.2887,1.2581,1.202,1.2205,1.2591,1.1906,1.0658,0.9508,0.9684,0.932,0.8858,0.8818,0.8804,0.8804,0.8804,0.8804,0.8804,0.8804,0.8699,0.8427,0.7723,0.6912,0.5932,0.4736,0.4519,0.4519,0.4519,0.4519,0.4519,0.4519,0.4519,0.4519,0.4519,0.4519,0.4519,0.4519,0.4473,0.4418,0.4239,0.4363,0.4477,0.4522,0.4519,0.4519,0.4519,0.4519,0.4519,0.4519,0.4519,0.4519,0.4519,0.4519,0.4519,0.4519,0.4519,0.4519,1.8902,1.9281,1.969,1.969,1.8884,1.8021,1.7913,1.6035,0.0,0.0,1.294,1.2124,1.2499,1.336,1.4245,1.4954,1.5792,1.6426,1.6591,1.6552,1.6522,0.0,1.6522,1.671,1.7187,1.7739,1.7991,1.7845,1.7717,1.7281,1.6423,1.5985,1.5285,1.4301,1.4982,1.5246,1.4989,1.5315,1.5476,1.5476,1.5439,1.541,1.541,1.541,1.541,1.541,1.541,1.541,1.541,1.541,1.4932,1.4213,1.4213,1.3295,1.2081,1.2757,1.2158,1.1115,1.1593,1.1476,1.0927,1.0565,1.0635,1.0704,0.9646,0.922,0.9057,0.8878,0.8804,0.8804,0.8804,0.8804,0.8804,0.8804,0.8321,0.767,0.6966,0.5769,0.4791,0.4574,0.4519,0.4519,0.4519,0.4519,0.4519,0.4519,0.4519,0.4522,0.4477,0.4522,0.4522,0.4477,0.4477,0.3968,0.2732,0.3752,0.4487,0.4477,0.4477,0.4473,0.4519,0.4519,0.4519,0.4519,0.4519,0.4519,0.4519,0.4519,0.4519,0.4519,0.4519,0.4519,1.809,1.8826,1.969,1.969,1.8796,1.7648,1.6737,0.0,0.0,0.0,1.1822,1.1547,1.1308,1.2311,0.0,1.369,1.4592,1.5466,1.6011,1.6082,1.6308,1.6898,1.6974,1.7187,1.7752,1.7944,1.7992,1.7918,1.7353,1.684,1.6385,1.5922,1.5385,1.4805,1.5195,1.5312,1.5117,1.5312,1.541,1.541,1.541,1.541,1.541,1.541,1.541,1.541,1.541,1.541,1.5352,1.4932,1.4332,1.3545,1.3114,1.2205,1.1226,1.16,1.1233,1.0681,1.1045,1.0926,1.0598,1.0394,1.0437,1.0312,0.9478,0.9084,0.8985,0.8844,0.8804,0.8699,0.8321,0.8209,0.8156,0.7723,0.7069,0.647,0.6091,0.5222,0.4519,0.4519,0.4519,0.4519,0.4519,0.4519,0.4519,0.4519,0.4522,0.4473,0.448,0.3796,0.363,0.4428,0.4494,0.3869,0.2343,0.2178,0.2514,0.3239,0.4082,0.4477,0.4525,0.4522,0.4519,0.4519,0.4519,0.4519,0.4519,0.4519,0.4519,0.4519,0.4519,0.4519,1.7288,1.844,1.969,1.969,1.8779,1.7441,1.5866,1.4547,0.0,1.1043,1.0946,1.1099,1.0702,1.1407,1.2279,0.0,1.3672,1.4475,1.5542,1.5906,1.6384,1.7275,1.7488,1.7668,1.7952,1.7956,1.7828,1.7674,1.6929,1.6425,1.6255,1.569,1.541,1.541,1.541,1.541,1.541,1.541,1.541,1.541,1.541,1.541,1.541,1.541,1.541,1.541,1.541,1.5294,1.5108,1.4451,1.3606,1.2696,1.2081,1.1288,1.0624,1.0624,1.0624,1.0624,1.0624,1.0624,1.0624,1.0624,1.0309,0.9806,0.9446,0.9178,0.8911,0.8625,0.8586,0.8374,0.767,0.745,0.7289,0.6529,0.5923,0.5487,0.5324,0.4897,0.4519,0.4519,0.4519,0.4522,0.4522,0.4522,0.4525,0.4525,0.4477,0.4484,0.4487,0.3469,0.3135,0.4389,0.4511,0.3766,0.1899,0.067,0.0502,0.1673,0.2845,0.3802,0.4477,0.4525,0.4519,0.4519,0.4519,0.4519,0.4519,0.4519,0.4519,0.4519,0.4519,0.4519,1.722,1.844,1.969,1.969,1.8698,1.7433,1.6427,0.0,1.2609,1.1522,1.0651,1.0301,1.1137,1.1049,1.1509,1.3493,0.0,1.4475,1.5542,1.6584,1.7262,1.7375,0.0,1.7892,1.7254,1.7633,1.7622,1.6946,1.6654,1.6208,1.5526,1.541,1.541,1.541,1.541,1.541,1.541,1.541,1.541,1.541,1.541,1.541,1.541,1.541,1.541,1.541,1.541,1.4991,1.4332,1.4204,1.3295,1.1896,1.1834,1.1288,1.0624,1.0624,1.0624,1.0624,1.0624,1.0624,1.0624,1.0624,1.0584,1.0436,0.9813,0.9626,0.9372,0.813,0.7777,0.7616,0.6912,0.6696,0.6529,0.576,0.5542,0.5324,0.4732,0.4519,0.4519,0.4519,0.4525,0.4477,0.4477,0.4487,0.4494,0.4494,0.4494,0.4497,0.4507,0.4396,0.4343,0.4472,0.4518,0.3317,0.0448,0.0056,0.0056,0.0168,0.0335,0.1618,0.4366,0.4477,0.4473,0.4519,0.4519,0.4519,0.4519,0.4519,0.4519,0.4519,0.4519,0.4519,1.6568,1.8166,1.969,1.969,1.8687,1.7317,1.5739,1.4039,1.2347,1.0821,1.0186,1.002,1.0418,1.0338,1.0714,1.2263,1.2545,1.3216,1.4991,1.5633,1.6106,1.6748,1.7253,1.7398,1.7053,1.705,1.6742,1.6032,1.5867,1.569,1.541,1.541,1.541,1.541,1.541,1.541,1.541,1.541,1.541,1.541,1.541,1.541,1.541,1.541,1.541,1.541,1.541,1.5235,1.4874,1.3906,1.3122,1.2451,1.1476,1.0863,1.0624,1.0624,1.0624,1.0624,1.0624,1.0624,1.0624,1.0624,1.0177,0.9648,0.9689,0.9143,0.838,0.7836,0.7396,0.6858,0.6145,0.566,0.5281,0.4952,0.4893,0.4842,0.4581,0.4473,0.4473,0.448,0.4487,0.4203,0.3294,0.3128,0.313,0.313,0.3928,0.4507,0.4514,0.4521,0.3781,0.1967,0.1796,0.1289,0.0112,-0.0,-0.0,-0.0,-0.0,0.0558,0.1729,0.3524,0.4484,0.4473,0.4473,0.4525,0.4519,0.4519,0.4522,0.4473,0.4473,0.4477,1.5932,1.7622,1.92,1.9009,1.8144,1.6779,1.4777,1.3453,1.2102,1.0276,0.9905,0.9905,0.9905,0.9905,1.027,1.1399,1.1864,1.273,1.4651,1.5344,1.5907,1.6633,1.6991,1.7114,1.702,1.6633,1.6192,1.5595,1.5548,1.5608,1.5748,1.5526,1.541,1.541,1.541,1.541,1.541,1.541,1.541,1.541,1.541,1.541,1.541,1.541,1.541,1.541,1.5177,1.505,1.4932,1.3295,1.2634,1.2512,1.1115,1.0624,1.0624,1.0624,1.0571,1.0428,1.0428,1.0243,0.9985,0.9985,0.9291,0.8491,0.8847,0.8297,0.7438,0.7139,0.6529,0.5878,0.5328,0.4838,0.4519,0.4522,0.4522,0.4525,0.4484,0.4141,0.3802,0.3811,0.4212,0.4157,0.3079,0.2124,0.1563,0.1563,0.2465,0.3147,0.3147,0.3151,0.2361,0.0224,-0.0,-0.0,-0.0,-0.0,-0.0,-0.0,-0.0,-0.0,-0.0,0.2066,0.3357,0.3802,0.4255,0.448,0.4522,0.4525,0.4473,0.448,0.4027,0.3805,1.5334,1.6824,1.7993,1.7473,1.6825,1.5758,1.3677,1.2681,1.1753,1.0236,0.9905,0.9905,0.9905,0.9905,1.027,1.1399,1.2504,1.3609,1.4752,1.6351,1.7363,1.7375,1.736,1.723,1.712,1.6539,1.6133,1.5912,1.589,1.6045,1.6461,1.5806,1.541,1.541,1.541,1.541,1.541,1.541,1.541,1.541,1.541,1.541,1.541,1.541,1.541,1.5352,1.4569,1.4204,1.4085,1.2504,1.1826,1.171,1.0926,1.0624,1.0624,1.0624,1.0374,1.012,1.012,0.9443,0.8616,0.8616,0.7918,0.7095,0.7151,0.7089,0.6869,0.5813,0.5058,0.4519,0.4519,0.4519,0.4522,0.4477,0.448,0.4484,0.4494,0.3299,0.2232,0.2232,0.3477,0.4514,0.4458,0.2018,-0.0,-0.0,0.0056,0.0056,0.0056,0.0056,0.0056,-0.0,-0.0,-0.0,-0.0,-0.0,-0.0,-0.0,-0.0,-0.0,-0.0,0.0056,0.0726,0.2174,0.3697,0.449,0.448,0.449,0.449,0.4477,0.2959,0.2232,1.3763,1.5101,1.6257,1.5744,1.5403,1.4772,1.3036,1.2417,1.1753,1.0236,0.9905,0.9905,0.9905,0.9905,1.0395,1.1902,1.2441,1.332,1.5178,1.5894,1.623,1.6183,1.5681,1.5239,1.506,1.4903,1.4887,1.5114,1.5154,1.5345,1.5728,1.5526,1.541,1.541,1.541,1.541,1.541,1.541,1.541,1.541,1.541,1.541,1.5352,1.4805,1.4569,1.4569,1.3734,1.3666,1.4085,1.2443,1.2135,1.2512,1.1108,1.0624,1.0624,1.0624,1.0374,1.0053,0.9492,0.9011,0.8493,0.8016,0.7153,0.6349,0.634,0.6183,0.5839,0.5018,0.468,0.4519,0.4473,0.4473,0.4477,0.4487,0.3694,0.3241,0.4274,0.4107,0.3142,0.1119,0.1064,0.1401,0.1401,0.0617,-0.0,-0.0,-0.0,-0.0,-0.0,-0.0,-0.0,-0.0,-0.0,-0.0,-0.0,-0.0,-0.0,-0.0,-0.1908,-0.213,-0.0112,-0.0,0.0223,0.067,0.2181,0.291,0.2903,0.3981,0.4497,0.4445,0.1903,0.0671,1.2461,1.3767,1.4567,1.4024,1.3857,1.3471,1.2074,1.1697,1.1296,1.0134,0.9905,0.9905,0.9905,0.9937,1.0427,1.1858,1.2452,1.3358,1.5166,1.5743,1.5825,1.533,1.4815,1.4314,1.3684,1.3997,1.4248,1.4277,1.46,1.4902,1.5156,1.5322,1.541,1.541,1.541,1.541,1.541,1.541,1.541,1.541,1.5108,1.4932,1.4932,1.4085,1.3734,1.3726,1.2879,1.3,0.0,1.202,1.1834,1.2389,1.1115,1.0624,1.0561,1.0238,0.9861,0.9402,0.8661,0.7957,0.7328,0.6874,0.6164,0.5454,0.5446,0.5314,0.5011,0.4632,0.4473,0.4477,0.4484,0.4086,0.3802,0.4386,0.3761,0.3026,0.2863,0.1903,0.0559,-0.1344,-0.1231,-0.0671,-0.0112,-0.0,-0.0,-0.0,-0.0,-0.0,-0.0,-0.0,-0.0,-0.0,-0.1009,-0.1682,-0.1682,-0.1682,-0.1456,-0.0839,-0.2577,-0.3028,-0.1736,-0.0615,-0.0,-0.0,0.0895,0.1398,0.1395,0.3477,0.3934,0.2751,0.0897,-0.0,0.0,1.2477,1.2835,1.2316,1.2228,1.2002,1.0881,1.0669,0.0,1.0018,0.9905,0.9931,1.0006,1.004,1.0444,1.159,1.2667,1.3712,1.4801,1.5844,1.6064,1.488,1.4744,1.4247,1.3065,1.3787,1.4082,1.3547,1.4248,1.4707,1.4736,1.5107,1.5264,1.5264,1.5264,1.5293,1.541,1.5352,1.5352,1.541,1.4569,1.4213,1.4145,1.3304,1.2887,1.2879,1.2135,1.2205,1.2826,1.1296,1.1108,1.171,1.0926,1.0561,1.0428,0.957,0.8921,0.8369,0.7511,0.6473,0.5487,0.5433,0.5011,0.448,0.4366,0.4421,0.448,0.4366,0.4258,0.4209,0.4154,0.313,0.24,0.3708,0.3996,0.3258,0.0448,-0.2355,-0.4396,-0.4455,-0.3363,-0.1952,-0.0558,-0.0223,-0.0168,-0.0168,-0.0056,-0.0,-0.0,-0.0,-0.0056,-0.028,-0.2809,-0.4514,-0.4511,-0.4511,-0.3878,-0.2456,-0.2343,-0.3019,-0.4438,-0.1788,-0.0223,-0.0,-0.0,-0.0,-0.0,0.2805,0.2751,-0.0,-0.0,-0.0112,0.8283,0.0,1.0349,0.998,1.0495,1.0906,0.0,1.042,1.0543,0.0,0.0,1.0169,1.1035,1.0849,1.1206,1.3204,1.3761,1.4312,1.5367,1.6082,1.6238,1.5499,1.4971,1.4422,1.3637,1.3377,1.3293,1.3486,1.3691,1.3945,1.4268,1.4321,1.415,1.3645,1.3645,1.4232,1.54,1.4815,1.4805,1.541,1.4569,1.4213,1.4145,1.2749,1.2081,1.2081,1.1896,1.1896,1.2081,1.1648,1.1655,1.171,1.0926,1.0174,0.957,0.9232,0.8453,0.7506,0.6585,0.5966,0.5433,0.4904,0.4646,0.4265,0.3072,0.358,0.4265,0.3072,0.1947,0.1055,0.1057,0.0778,0.0333,-0.0445,-0.0613,-0.0836,-0.1506,-0.2233,-0.3077,-0.4271,-0.4212,-0.3869,-0.353,-0.2458,-0.1673,-0.1673,-0.0726,-0.0,-0.0,-0.0,-0.0897,-0.3203,-0.4058,-0.4507,-0.449,-0.4494,-0.4327,-0.3981,-0.3974,-0.4144,-0.4497,-0.3808,-0.2343,-0.0056,-0.0,-0.0,-0.0,0.0728,0.0672,-0.0,-0.0,-0.1233,0.6578,0.798,0.9257,0.9316,0.9856,1.0355,1.0291,0.0,0.0,0.0,0.0,1.0169,1.1035,1.1171,1.1714,1.3398,1.415,1.4893,1.5915,1.5837,1.5656,1.5588,1.456,1.3836,1.3815,1.3419,1.3184,1.3213,1.3574,1.3809,1.3848,1.398,1.38,1.3141,1.274,1.3032,1.4118,1.3531,1.362,1.4264,1.3356,1.2947,1.3053,1.1834,1.1226,1.1288,1.1648,1.1586,1.1288,1.1648,1.1593,1.1163,1.0358,0.9642,0.9068,0.8115,0.736,0.6595,0.5694,0.5265,0.4846,0.3793,0.3922,0.4101,0.184,0.078,0.0502,0.1058,0.0111,-0.1166,-0.1895,-0.206,-0.2284,-0.3072,-0.3244,-0.3244,-0.3244,-0.3241,-0.3519,-0.4317,-0.4484,-0.4484,-0.4487,-0.3805,-0.3239,-0.3244,-0.2571,-0.1786,-0.1115,-0.1005,-0.1621,-0.3251,-0.4101,-0.4494,-0.448,-0.448,-0.448,-0.448,-0.4473,-0.4473,-0.448,-0.448,-0.307,-0.0056,-0.0,-0.0,-0.0,-0.0,-0.0728,-0.2076,-0.2076,-0.2579,0.5939,0.7415,0.8892,0.9295,0.9764,1.0204,1.051,0.0,0.0,0.0,0.0,0.0,0.0,1.1565,0.0,1.3301,1.4328,1.5272,1.6133,1.5332,1.488,1.541,1.4014,1.3238,1.3732,1.357,1.3262,1.291,1.3545,1.3789,1.3437,1.375,1.3565,1.2789,1.2066,1.1855,1.2076,1.1995,1.2233,1.2844,1.1802,1.1421,1.1697,1.0961,1.0624,1.0624,1.1469,1.1322,1.062,1.1396,1.1148,1.0236,0.9527,0.8943,0.8432,0.6911,0.6121,0.5706,0.4948,0.4462,0.3971,0.2905,0.2798,0.2633,0.0111,-0.246,-0.399,-0.1557,-0.1724,-0.2847,-0.415,-0.4494,-0.449,-0.449,-0.449,-0.449,-0.449,-0.4484,-0.4477,-0.4477,-0.4525,-0.4522,-0.4473,-0.4477,-0.448,-0.449,-0.4494,-0.4036,-0.2734,-0.2567,-0.2567,-0.2567,-0.3744,-0.448,-0.4477,-0.4522,-0.4519,-0.4519,-0.4519,-0.4519,-0.4519,-0.4473,-0.3236,-0.0502,-0.0392,-0.0336,-0.0336,-0.0336,-0.1624,-0.4166,-0.4396,-0.3819,0.6706,0.7879,0.876,0.8533,0.9541,1.0485,1.0105,0.0,0.0,0.0,0.0,0.0,0.0,1.288,1.3328,1.445,1.4736,1.4846,1.4948,1.4846,1.4744,1.4835,1.4143,1.3684,1.3779,1.3298,1.2949,1.2881,1.2998,1.3047,1.2978,1.3037,1.2501,1.1192,1.1038,1.059,0.9757,1.0624,1.1462,1.2214,1.1577,1.1353,1.1361,1.0871,1.0624,1.0624,1.1469,1.1193,1.0241,1.1061,1.0497,0.9045,0.8915,0.8027,0.6737,0.6389,0.566,0.4843,0.4608,0.3646,0.2736,0.3819,0.0838,-0.32,-0.3655,-0.4154,-0.4591,-0.4901,-0.457,-0.4196,-0.4425,-0.4473,-0.4522,-0.4522,-0.4522,-0.4522,-0.4522,-0.4522,-0.4522,-0.4522,-0.4519,-0.4519,-0.4519,-0.4522,-0.4522,-0.4522,-0.4477,-0.4425,-0.4196,-0.4147,-0.415,-0.4141,-0.4366,-0.4477,-0.4522,-0.4519,-0.4519,-0.4519,-0.4519,-0.4519,-0.4519,-0.4473,-0.3855,-0.2561,-0.2119,-0.1842,-0.1842,-0.1842,-0.2122,-0.2569,-0.3872,-0.4379,0.6321,0.7588,0.8747,0.8723,0.9995,1.1247,1.1253,0.0,0.0,0.0,0.0,0.0,0.0,0.0,1.405,1.5098,1.4971,1.472,1.4721,1.4422,1.4329,1.4663,1.3884,1.342,1.3768,1.3238,1.2881,1.2881,1.2881,1.2715,1.2344,1.2295,1.1683,1.0312,1.0261,0.9836,0.9005,0.9507,1.0125,1.0808,1.0379,1.0286,1.0455,1.02,1.0087,1.0147,1.0952,1.0754,0.9939,1.0303,0.9767,0.8597,0.7744,0.6889,0.6117,0.5529,0.4969,0.4568,0.4507,0.4039,0.3026,0.0447,-0.224,-0.4567,-0.5104,-0.5262,-0.5415,-0.6059,-0.5399,-0.4577,-0.4956,-0.4791,-0.4519,-0.4519,-0.4519,-0.4519,-0.4519,-0.4519,-0.4519,-0.4519,-0.4519,-0.4519,-0.4519,-0.4519,-0.4519,-0.4519,-0.4522,-0.4501,-0.4582,-0.4524,-0.4507,-0.4585,-0.4521,-0.4522,-0.4519,-0.4519,-0.4519,-0.4519,-0.4519,-0.4519,-0.4519,-0.4473,-0.4307,-0.3796,-0.358,-0.3469,-0.3469,-0.3469,-0.3466,-0.3463,-0.4144,-0.448,0.6173,0.7509,0.8888,0.9305,1.0424,1.1584,1.2083,0.0,0.0,0.0,0.0,0.0,0.0,1.3643,1.4474,1.5066,1.4675,1.4215,1.4029,1.3511,1.3263,1.3726,1.2957,1.2589,1.3034,1.2677,1.2412,1.2412,1.2412,1.2147,1.1616,1.1566,1.1015,0.9814,0.9814,0.9406,0.8533,0.8699,0.9031,0.9472,0.9312,0.9359,0.9586,0.9653,0.9686,0.9737,1.0351,1.0136,0.9343,0.9411,0.8831,0.781,0.657,0.5948,0.5571,0.4797,0.4473,0.448,0.4494,0.4045,0.2575,-0.2747,-0.4511,-0.4668,-0.5639,-0.585,-0.595,-0.6647,-0.5932,-0.5117,-0.5597,-0.5273,-0.4787,-0.4952,-0.5007,-0.5007,-0.5007,-0.5007,-0.5007,-0.5007,-0.5007,-0.5007,-0.5007,-0.5007,-0.4952,-0.4736,-0.4764,-0.4766,-0.4683,-0.4565,-0.4548,-0.4629,-0.4587,-0.4519,-0.4519,-0.4519,-0.4519,-0.4519,-0.4519,-0.4519,-0.4519,-0.4525,-0.4477,-0.4477,-0.4484,-0.4487,-0.4487,-0.4487,-0.4484,-0.4477,-0.4477,-0.4525,0.7164,0.8225,0.9279,1.0098,1.0537,0.0,1.1525,1.1199,0.0,1.1999,0.0,0.0,0.0,1.4346,1.458,1.4011,1.3358,1.2725,1.2101,1.1458,1.1007,1.1057,1.1015,1.0965,1.1015,1.0965,1.0973,1.0973,1.0973,1.0914,1.0864,1.0864,1.0517,0.9814,0.9814,0.9138,0.7777,0.848,0.8831,0.8871,0.9064,0.9196,0.9223,0.9559,0.9686,0.9686,0.9737,0.9233,0.8309,0.8303,0.7389,0.5966,0.5851,0.5385,0.4789,0.4587,0.448,0.4484,0.4504,0.2687,-0.0223,-0.3426,-0.4501,-0.4646,-0.5635,-0.5727,-0.5814,-0.723,-0.7074,-0.648,-0.6534,-0.5982,-0.5597,-0.6258,-0.6426,-0.6426,-0.6426,-0.6426,-0.6426,-0.6426,-0.6426,-0.6426,-0.6426,-0.6426,-0.6204,-0.5542,-0.5582,-0.5413,-0.4605,-0.4592,-0.4623,-0.4549,-0.4525,-0.4519,-0.4519,-0.4519,-0.4519,-0.4519,-0.4519,-0.4519,-0.4519,-0.4519,-0.4519,-0.4519,-0.4519,-0.4519,-0.4519,-0.4519,-0.4519,-0.4519,-0.4519,-0.4519,0.661,0.7876,0.9265,0.9926,1.0691,0.0,0.0,1.2454,1.2719,1.2436,1.3082,0.0,1.3914,1.4049,1.3974,1.329,1.2638,1.1953,1.1266,1.0965,1.0813,1.0813,1.0813,1.0813,1.0813,1.0813,1.0813,1.0813,1.0813,1.0618,1.0218,1.0167,0.9865,0.9211,0.9159,0.8896,0.8374,0.8209,0.8103,0.8103,0.8697,0.8971,0.8971,0.9085,0.9138,0.9138,0.8631,0.8239,0.7816,0.6924,0.6147,0.5592,0.5158,0.4826,0.4541,0.4497,0.3913,0.2959,0.2009,-0.0279,-0.2968,-0.415,-0.4487,-0.4754,-0.5946,-0.6268,-0.6475,-0.799,-0.783,-0.7289,-0.7289,-0.6745,-0.6253,-0.6534,-0.6588,-0.6588,-0.6588,-0.6588,-0.6588,-0.6588,-0.6588,-0.6588,-0.6588,-0.6588,-0.648,-0.6204,-0.5881,-0.572,-0.5936,-0.5514,-0.5394,-0.594,-0.5894,-0.5605,-0.5167,-0.5109,-0.4948,-0.4515,-0.4519,-0.4519,-0.4519,-0.4519,-0.4519,-0.4519,-0.4519,-0.4519,-0.4519,-0.4519,-0.4736,-0.5109,-0.5109,-0.5386,0.6523,0.7672,0.9058,0.0,0.0,0.0,1.2472,1.3257,1.3655,1.3023,1.3622,1.4155,1.3917,1.3836,1.3579,1.2948,1.2061,1.1316,1.0864,1.0415,1.0056,0.9835,0.9835,0.9732,0.9511,0.9459,0.9459,0.9459,0.9459,0.937,0.9131,0.8915,0.8666,0.848,0.8209,0.799,0.7765,0.7503,0.7235,0.7015,0.7777,0.8103,0.8103,0.8103,0.8103,0.8103,0.7557,0.7235,0.6902,0.5923,0.5378,0.5164,0.468,0.4519,0.4525,0.448,0.3239,0.1225,-0.0724,-0.2796,-0.4501,-0.4484,-0.4639,-0.5014,-0.6209,-0.675,-0.7182,-0.8427,-0.858,-0.8349,-0.8349,-0.7812,-0.7326,-0.754,-0.7593,-0.7545,-0.7343,-0.7289,-0.7289,-0.7289,-0.7289,-0.7289,-0.7289,-0.7289,-0.7235,-0.6966,-0.6579,-0.6452,-0.6889,-0.6384,-0.6156,-0.6738,-0.6673,-0.6421,-0.5873,-0.5651,-0.5324,-0.4842,-0.4625,-0.4519,-0.4519,-0.4519,-0.4519,-0.4519,-0.4519,-0.4625,-0.4842,-0.4842,-0.5167,-0.5873,-0.5873,-0.6091,0.7245,0.7798,0.8679,0.0,0.0,0.0,1.288,1.321,1.3382,1.3915,1.4385,1.4514,1.3909,1.3779,1.36,1.2968,1.1692,1.0813,1.0813,0.9666,0.8533,0.7777,0.7723,0.7396,0.6696,0.6588,0.6588,0.6588,0.6588,0.6912,0.767,0.702,0.6912,0.767,0.6966,0.6253,0.5542,0.6204,0.6204,0.5487,0.6258,0.6588,0.6588,0.6588,0.6588,0.6588,0.6588,0.6204,0.5487,0.5487,0.5109,0.4519,0.4519,0.4525,0.448,0.449,0.2567,-0.0445,-0.3482,-0.4497,-0.448,-0.448,-0.4959,-0.5651,-0.6367,-0.7128,-0.783,-0.8593,-0.9263,-0.9814,-0.9814,-0.9273,-0.8894,-0.9651,-0.9814,-0.9614,-0.8956,-0.8811,-0.8811,-0.8804,-0.8804,-0.8804,-0.8804,-0.8804,-0.854,-0.783,-0.7819,-0.7695,-0.7198,-0.7023,-0.6824,-0.6663,-0.6642,-0.6642,-0.6588,-0.5928,-0.5542,-0.5487,-0.4897,-0.4519,-0.4519,-0.4519,-0.4519,-0.4519,-0.4519,-0.4842,-0.5487,-0.5487,-0.5873,-0.6588,-0.6588,-0.6588,0.7636,0.8026,0.0,1.0057,0.0,0.0,0.0,1.4111,0.0,0.0,1.427,1.3873,1.3286,1.3152,1.2949,1.2236,1.1375,1.0669,1.0167,0.9361,0.8699,0.848,0.799,0.7616,0.7396,0.6912,0.6588,0.6588,0.6588,0.6696,0.6912,0.6696,0.6696,0.6912,0.6696,0.648,0.6258,0.5982,0.5706,0.5487,0.5222,0.5664,0.6588,0.6588,0.6588,0.6588,0.6036,0.5706,0.5487,0.5003,0.468,0.4519,0.4525,0.4477,0.4252,0.2117,0.0779,-0.0445,-0.3466,-0.4484,-0.4588,-0.5066,-0.5328,-0.576,-0.7015,-0.7509,-0.783,-0.8593,-0.8962,-0.9309,-1.0261,-1.0348,-1.0246,-1.0458,-1.0517,-1.0312,-0.9666,-0.951,-0.9361,-0.891,-0.8804,-0.8804,-0.8804,-0.8804,-0.8752,-0.848,-0.8057,-0.772,-0.7563,-0.7943,-0.8189,-0.8162,-0.8156,-0.7943,-0.7402,-0.7176,-0.6853,-0.6312,-0.6095,-0.555,-0.4519,-0.4948,-0.5218,-0.5218,-0.5714,-0.6095,-0.6258,-0.6258,-0.6637,-0.7396,-0.7396,-0.767,0.8472,0.8853,0.0,1.0721,1.1418,1.2249,1.4037,0.0,0.0,0.0,1.4422,1.392,1.3065,1.2881,1.2764,1.2295,1.1425,1.0661,1.0261,0.9413,0.8699,0.8374,0.7723,0.7128,0.6848,0.6204,0.5773,0.5773,0.5773,0.5878,0.6145,0.5932,0.5878,0.6145,0.5878,0.5773,0.5773,0.5336,0.5117,0.5117,0.4691,0.4967,0.5791,0.5782,0.5782,0.5723,0.5289,0.5124,0.5073,0.4695,0.4477,0.4477,0.4484,0.3747,0.2506,0.0668,-0.0778,-0.2058,-0.3855,-0.4695,-0.4959,-0.5382,-0.5923,-0.6519,-0.745,-0.7883,-0.8209,-0.8699,-0.9159,-0.9762,-1.061,-1.1015,-1.1116,-1.0864,-1.0813,-1.0517,-0.9614,-0.9413,-0.9361,-0.9211,-0.8956,-0.891,-0.9159,-0.8956,-0.8844,-0.8965,-0.8779,-0.8559,-0.8342,-0.8799,-0.9065,-0.8831,-0.8804,-0.8646,-0.8156,-0.7883,-0.7503,-0.7074,-0.675,-0.6362,-0.5747,-0.5864,-0.5928,-0.5928,-0.6622,-0.7004,-0.702,-0.7326,-0.7652,-0.8156,-0.8156,-0.8374,0.9439,0.0,0.0,1.1365,1.1837,0.0,1.4488,1.5341,1.5561,1.4925,1.4744,1.434,1.32,1.2929,1.2881,1.2881,1.1742,1.0813,1.0813,0.9666,0.8533,0.7883,0.7128,0.6421,0.576,0.5003,0.457,0.457,0.4519,0.4787,0.5378,0.4842,0.4787,0.5378,0.4842,0.4519,0.4519,0.4473,0.4421,0.4307,0.4262,0.4268,0.4268,0.4428,0.4425,0.4307,0.4262,0.4209,0.4095,0.4095,0.4095,0.4092,0.4095,0.2399,-0.0056,-0.0334,-0.2171,-0.4536,-0.4588,-0.5011,-0.5538,-0.5647,-0.6632,-0.7723,-0.7777,-0.8262,-0.8804,-0.8804,-0.971,-1.0712,-1.0762,-1.1266,-1.1566,-1.0965,-1.0813,-1.0466,-0.9159,-0.891,-0.9061,-0.9614,-0.9211,-0.9008,-0.9614,-0.9211,-0.8898,-0.9103,-0.9659,-0.98,-0.9216,-0.9439,-0.9399,-0.8864,-0.8804,-0.8804,-0.8804,-0.8209,-0.7777,-0.7777,-0.7235,-0.716,-0.7764,-0.716,-0.6794,-0.6902,-0.7564,-0.7941,-0.7978,-0.8534,-0.881,-0.891,-0.8804,-0.8804,0.9111,0.9473,0.0,0.0,1.2935,1.435,1.4789,1.563,1.6145,1.552,1.5005,1.4468,1.3732,1.3238,1.2881,1.2881,1.1742,1.0813,1.0813,0.9666,0.8752,0.8593,0.7937,0.7396,0.723,0.6032,0.5269,0.5269,0.4787,0.457,0.4736,0.457,0.457,0.4736,0.457,0.4522,0.4477,0.4477,0.3913,0.2679,0.2679,0.2681,0.2736,0.3925,0.3863,0.2679,0.2679,0.206,0.0943,0.0943,0.0942,0.0941,0.0942,0.0555,-0.0277,-0.2672,-0.3968,-0.4588,-0.5117,-0.5382,-0.5706,-0.6848,-0.745,-0.783,-0.8374,-0.8699,-0.8804,-0.8804,-0.9361,-1.0167,-1.0661,-1.0914,-1.0965,-1.0813,-1.0813,-1.0568,-0.9762,-0.9562,-0.9458,-0.9113,-0.891,-0.8857,-0.9008,-0.891,-0.8831,-0.8891,-0.9005,-0.9045,-0.8918,-0.8958,-0.8945,-0.8824,-0.8804,-0.8804,-0.8804,-0.8646,-0.8586,-0.8586,-0.8935,-0.9176,-0.9325,-0.8633,-0.8515,-0.9009,-0.9754,-1.0136,-1.0143,-0.9747,-0.9547,-0.9562,-0.9061,-0.8804,0.9512,0.0,0.0,1.2058,0.0,1.4651,1.517,1.5502,1.5793,1.6007,1.5321,1.4514,1.3909,1.3334,1.2881,1.2881,1.1742,1.0813,1.0813,0.9666,0.8804,0.8804,0.8156,0.7563,0.7182,0.614,0.5378,0.5058,0.4677,0.4519,0.4519,0.4519,0.4519,0.4519,0.4522,0.4473,0.448,0.3065,0.1949,0.1113,0.0445,0.0111,0.0167,0.1671,0.1504,0.0111,0.0111,-0.0334,-0.1111,-0.1835,-0.2169,-0.2166,-0.2169,-0.2443,-0.2989,-0.4567,-0.5301,-0.5563,-0.5932,-0.6253,-0.6686,-0.745,-0.7937,-0.8321,-0.8699,-0.8804,-0.8804,-0.8804,-0.951,-1.0364,-1.072,-1.1065,-1.1216,-1.0864,-1.0559,-1.0167,-0.9465,-0.9309,-0.9309,-0.9263,-0.9008,-0.891,-0.9211,-0.9125,-0.9011,-0.9011,-0.9132,-0.9178,-0.9031,-0.9011,-0.8965,-0.8824,-0.8804,-0.8804,-0.8804,-0.8804,-0.8956,-0.9263,-0.9614,-1.0064,-1.0712,-1.0383,-1.0222,-1.0222,-1.0897,-1.1116,-1.0813,-1.0466,-1.0115,-0.9762,-0.9106,-0.8804,0.0,0.0,1.141,1.2725,1.3571,0.0,1.5296,1.5195,1.5184,1.6126,1.5386,1.4429,1.3921,1.3307,1.2928,1.292,1.1742,1.0813,1.0813,0.9666,0.8804,0.8804,0.8268,0.7616,0.6858,0.6145,0.5382,0.4732,0.457,0.4519,0.4522,0.4522,0.4522,0.4522,0.419,0.391,0.3741,0.1223,-0.0278,-0.0779,-0.2007,-0.2623,-0.2565,-0.1335,-0.1558,-0.2956,-0.2679,-0.2676,-0.2954,-0.42,-0.4712,-0.4653,-0.4653,-0.5199,-0.6014,-0.59,-0.6164,-0.6642,-0.675,-0.7182,-0.7723,-0.783,-0.8368,-0.8956,-0.8956,-0.9061,-0.9159,-0.9159,-1.0012,-1.0965,-1.0813,-1.1216,-1.1466,-1.0762,-1.0115,-0.9458,-0.891,-0.8804,-0.8956,-0.951,-0.9159,-0.8956,-0.951,-0.9368,-0.911,-0.911,-0.9372,-0.9446,-0.9143,-0.911,-0.9072,-0.8983,-0.8956,-0.9008,-0.9159,-0.9159,-0.9361,-0.9909,-1.0064,-1.0669,-1.1765,-1.1922,-1.1724,-1.1174,-1.1724,-1.1665,-1.0965,-1.0965,-1.0568,-0.9762,-0.9211,-0.8903,0.0,0.0,1.1348,0.0,1.333,1.4243,0.0,1.4887,1.5044,1.5552,1.4807,1.4039,1.3905,1.3405,1.296,1.2909,1.1742,1.0813,1.0813,0.9666,0.8804,0.8804,0.8699,0.8374,0.7616,0.6907,0.615,0.5433,0.4842,0.4522,0.4477,0.4477,0.448,0.449,0.2785,0.1499,0.0612,0.0222,-0.1333,-0.3925,-0.4095,-0.4206,-0.4196,-0.3968,-0.4698,-0.5945,-0.4712,-0.4646,-0.5403,-0.5635,-0.5567,-0.5386,-0.5386,-0.5823,-0.6426,-0.5764,-0.5982,-0.6696,-0.7343,-0.7616,-0.783,-0.8427,-0.9106,-0.9666,-0.9666,-1.0064,-1.0517,-1.0517,-1.1065,-1.1516,-1.0965,-1.0864,-1.0762,-1.0115,-0.9413,-0.891,-0.8804,-0.8804,-0.8804,-0.891,-0.8857,-0.8804,-0.891,-0.8891,-0.8864,-0.8864,-0.8898,-0.8911,-0.8871,-0.8864,-0.9056,-0.9621,-0.9666,-0.9917,-1.0466,-1.0517,-1.0559,-1.0661,-1.1216,-1.1616,-1.1814,-1.2403,-1.2715,-1.2618,-1.2725,-1.2403,-1.1665,-1.1665,-1.1015,-0.9814,-0.9718,-0.9361,0.9218,1.0545,1.1925,0.0,1.3513,1.4206,1.4992,1.4546,1.4181,1.4935,1.4283,1.355,1.3493,1.299,1.2508,1.2246,1.1323,1.0629,1.0491,0.9645,0.8971,0.8837,0.8804,0.8368,0.7182,0.6804,0.615,0.5003,0.4684,0.4473,0.448,0.2894,0.2,0.2001,0.111,0.0166,-0.0833,-0.1944,-0.3176,-0.4477,-0.4477,-0.4473,-0.4525,-0.4525,-0.5022,-0.5909,-0.4919,-0.4967,-0.5668,-0.5293,-0.5285,-0.5487,-0.5487,-0.6195,-0.7182,-0.6848,-0.7176,-0.7883,-0.8209,-0.8573,-0.8928,-0.9256,-0.9814,-1.0364,-1.0364,-1.0568,-1.0813,-1.0813,-1.1266,-1.1665,-1.0965,-1.1384,-1.1692,-1.0618,-1.0167,-0.9814,-0.9465,-0.9061,-0.8804,-0.8804,-0.8804,-0.8804,-0.8804,-0.8804,-0.891,-0.9316,-0.9361,-0.951,-0.9865,-0.9917,-1.0012,-1.032,-1.0364,-1.0466,-1.0762,-1.0813,-1.0965,-1.1366,-1.1665,-1.1972,-1.2393,-1.2715,-1.2881,-1.2881,-1.2881,-1.2559,-1.1814,-1.1814,-1.1116,-0.9814,-0.9814,-0.9666,0.0,0.0,1.1904,1.2816,1.3412,1.4082,0.0,1.4339,1.3629,1.4559,1.3912,1.3153,1.3041,1.2625,1.2173,1.1664,1.0927,1.0332,1.0235,0.9524,0.8969,0.8823,0.8646,0.799,0.675,0.6421,0.5823,0.4577,0.4473,0.448,0.4487,0.1667,-0.0333,-0.1111,-0.1166,-0.1498,-0.2279,-0.3738,-0.4525,-0.4519,-0.4519,-0.4519,-0.4519,-0.4519,-0.4842,-0.5487,-0.4787,-0.4897,-0.5487,-0.4948,-0.5058,-0.5542,-0.5706,-0.647,-0.7402,-0.7402,-0.7883,-0.8533,-0.8738,-0.9249,-0.9814,-1.0012,-1.0517,-1.1065,-1.1065,-1.1174,-1.1325,-1.1325,-1.1674,-1.1922,-1.1216,-1.1832,-1.2304,-1.1074,-1.0813,-1.0568,-0.9718,-0.9159,-0.8804,-0.8804,-0.8804,-0.8857,-0.9008,-0.9061,-0.9263,-0.9961,-1.0064,-1.021,-1.0762,-1.0813,-1.0864,-1.1065,-1.1065,-1.1124,-1.1334,-1.1325,-1.1525,-1.203,-1.208,-1.2344,-1.2881,-1.2881,-1.2881,-1.2881,-1.2881,-1.2559,-1.1814,-1.1814,-1.1116,-0.9814,-0.9961,-0.9865,0.0,0.9384,0.0,1.1523,1.2663,1.3811,1.4882,1.4465,1.4,1.4415,1.3828,1.3072,1.2615,1.245,1.2203,1.1701,1.0553,0.9872,1.0139,0.9195,0.8528,0.8771,0.8156,0.7456,0.6696,0.5977,0.5277,0.4532,0.448,0.449,0.4511,0.1618,-0.1337,-0.4169,-0.4262,-0.4307,-0.4363,-0.4467,-0.4519,-0.4519,-0.4519,-0.4519,-0.4519,-0.4519,-0.4842,-0.5487,-0.4787,-0.4897,-0.5487,-0.5487,-0.5487,-0.5597,-0.6258,-0.6588,-0.6642,-0.6642,-0.7128,-0.7824,-0.8482,-0.9169,-0.9917,-1.0517,-1.1216,-1.1765,-1.1765,-1.2246,-1.2774,-1.2774,-1.2822,-1.2666,-1.1922,-1.1814,-1.1665,-1.0965,-1.0813,-1.0415,-0.9106,-0.8804,-0.8804,-0.8804,-0.8804,-0.9008,-0.9666,-0.9762,-0.9961,-1.0669,-1.0771,-1.0762,-1.0813,-1.0813,-1.1065,-1.1665,-1.1765,-1.203,-1.2725,-1.2774,-1.2832,-1.2822,-1.2822,-1.2871,-1.2881,-1.2881,-1.2881,-1.2881,-1.2881,-1.2559,-1.1814,-1.1814,-1.1116,-0.9814,-1.0466,-1.0064,0.0,0.0,0.0,1.1466,1.2361,1.319,1.4227,1.4179,1.3946,1.41,1.3868,1.3399,1.2638,1.2252,1.1861,1.1294,1.0591,0.9944,0.9542,0.9103,0.8687,0.8252,0.7989,0.738,0.6319,0.6294,0.5794,0.4406,0.4424,0.4491,0.4501,-0.0209,-0.3368,-0.4446,-0.4487,-0.4523,-0.4506,-0.4495,-0.4487,-0.4473,-0.4522,-0.4519,-0.4519,-0.4519,-0.4625,-0.4842,-0.4625,-0.4897,-0.5487,-0.5058,-0.5113,-0.5542,-0.5814,-0.6204,-0.6588,-0.6588,-0.7074,-0.7771,-0.8482,-0.9467,-1.061,-1.1747,-1.2541,-1.3178,-1.3548,-1.3852,-1.4071,-1.4071,-1.4071,-1.3826,-1.2735,-1.2735,-1.2793,-1.1706,-1.1466,-1.1216,-1.0261,-1.0064,-0.9961,-0.951,-0.9762,-1.0012,-0.9814,-1.0167,-1.0669,-1.1366,-1.1466,-1.1625,-1.2098,-1.2157,-1.2255,-1.2461,-1.2501,-1.2608,-1.2881,-1.2881,-1.2881,-1.2881,-1.2881,-1.2881,-1.2881,-1.2881,-1.2881,-1.2881,-1.2881,-1.2559,-1.1814,-1.1814,-1.1316,-1.0415,-1.0269,-1.0115,0.8485,0.0,0.0,0.0,1.1775,1.2455,1.3812,1.3999,1.3939,1.4062,1.407,1.3828,1.3113,1.2342,1.1627,1.1094,1.0457,0.9815,0.9197,0.8952,0.8602,0.7984,0.7541,0.6954,0.6072,0.5967,0.5287,0.363,0.3288,0.2732,0.1817,-0.2067,-0.4321,-0.4372,-0.3953,-0.3736,-0.3715,-0.3752,-0.3975,-0.4515,-0.4505,-0.4522,-0.4519,-0.4519,-0.4519,-0.4519,-0.4519,-0.4732,-0.5109,-0.4677,-0.4787,-0.5164,-0.5433,-0.5655,-0.5932,-0.615,-0.6691,-0.7444,-0.8357,-0.96,-1.1057,-1.2628,-1.3416,-1.3909,-1.4514,-1.4698,-1.4698,-1.4698,-1.4698,-1.4514,-1.3643,-1.3606,-1.3579,-1.2686,-1.2316,-1.2039,-1.1584,-1.1124,-1.0669,-1.0218,-1.0517,-1.0712,-1.0517,-1.0864,-1.1366,-1.208,-1.2187,-1.2344,-1.2822,-1.2881,-1.2881,-1.2881,-1.2881,-1.2881,-1.2881,-1.2881,-1.2881,-1.2881,-1.2881,-1.2881,-1.2881,-1.2881,-1.2881,-1.2881,-1.2881,-1.2666,-1.2187,-1.1922,-1.1566,-1.1116,-1.0661,-1.0568,0.0,0.0,0.0,1.0443,1.0913,1.1589,1.3652,1.3966,1.3949,1.4347,1.4383,1.4251,1.396,1.2742,1.1616,1.1132,1.0176,0.9443,0.9146,0.864,0.82,0.7916,0.6786,0.6003,0.596,0.4907,0.367,0.2307,0.1001,-0.0852,-0.3441,-0.378,-0.3923,-0.4076,-0.2811,-0.2159,-0.2111,-0.2182,-0.2961,-0.4414,-0.4457,-0.447,-0.4519,-0.4519,-0.4519,-0.4519,-0.4515,-0.4515,-0.4515,-0.4515,-0.4519,-0.4625,-0.5273,-0.5109,-0.4625,-0.5273,-0.6036,-0.6848,-0.8266,-0.9629,-1.1157,-1.3178,-1.3815,-1.3956,-1.456,-1.4744,-1.4744,-1.4744,-1.4744,-1.4744,-1.4744,-1.4283,-1.3815,-1.3815,-1.3334,-1.2881,-1.2881,-1.1841,-1.0872,-1.0813,-1.0864,-1.1065,-1.1715,-1.1814,-1.208,-1.2822,-1.2929,-1.2929,-1.2929,-1.2929,-1.2881,-1.2881,-1.2881,-1.2881,-1.2881,-1.2881,-1.2881,-1.2881,-1.2881,-1.2881,-1.2881,-1.2881,-1.2881,-1.2881,-1.2881,-1.2881,-1.2881,-1.2187,-1.1814,-1.1814,-1.1814,-1.1408,0.797,0.0,0.0,0.0,0.0,0.0,1.1664,1.2132,1.243,1.2882,1.3115,1.3315,1.3588,1.2611,1.1836,1.2008,1.0912,0.992,0.9461,0.8947,0.8406,0.7968,0.6874,0.5991,0.5534,0.5179,0.4127,0.2079,-0.0831,-0.2838,-0.3552,-0.3632,-0.292,-0.1201,-0.0786,-0.061,-0.063,-0.1464,-0.2215,-0.286,-0.3806,-0.4365,-0.4519,-0.4519,-0.4519,-0.4515,-0.5003,-0.5218,-0.5218,-0.5218,-0.555,-0.6041,-0.6204,-0.6204,-0.6041,-0.6204,-0.7052,-0.8258,-0.9113,-1.0351,-1.1855,-1.3794,-1.4468,-1.4652,-1.57,-1.602,-1.602,-1.602,-1.602,-1.5876,-1.5454,-1.4595,-1.3815,-1.3815,-1.3334,-1.2881,-1.2881,-1.2569,-1.2147,-1.1616,-1.194,-1.2197,-1.1864,-1.2599,-1.3341,-1.3494,-1.3552,-1.3552,-1.3552,-1.3152,-1.2881,-1.2881,-1.2881,-1.2881,-1.2881,-1.2881,-1.2881,-1.2881,-1.2881,-1.2881,-1.2881,-1.2881,-1.2881,-1.2881,-1.2881,-1.2881,-1.2881,-1.2187,-1.208,-1.2559,-1.203,-1.1166,0.8046,0.7899,0.8064,0.874,0.0,0.0,1.08,1.1502,1.1993,1.2606,1.3055,1.3356,1.3375,1.2736,1.2219,1.2263,1.15,1.0542,0.9637,0.9039,0.839,0.7599,0.6507,0.5615,0.5101,0.4789,0.3629,0.1247,-0.1385,-0.3057,-0.3554,-0.3595,-0.2954,-0.1561,-0.1027,-0.0769,-0.0743,-0.146,-0.2184,-0.2941,-0.3712,-0.4303,-0.4647,-0.4766,-0.4954,-0.5222,-0.5729,-0.6293,-0.6817,-0.6817,-0.6725,-0.6588,-0.6588,-0.6794,-0.6993,-0.6993,-0.7882,-0.9231,-0.9936,-1.0864,-1.2101,-1.4075,-1.4698,-1.4937,-1.6151,-1.6522,-1.6522,-1.6522,-1.6522,-1.6423,-1.6051,-1.5096,-1.419,-1.419,-1.3515,-1.2881,-1.2881,-1.2881,-1.2774,-1.2344,-1.2618,-1.2861,-1.2657,-1.3273,-1.3909,-1.4143,-1.419,-1.419,-1.419,-1.3647,-1.3286,-1.3286,-1.3065,-1.2881,-1.2881,-1.2881,-1.2881,-1.2881,-1.2881,-1.2881,-1.2881,-1.2881,-1.2881,-1.2881,-1.2881,-1.2881,-1.2881,-1.2452,-1.2501,-1.2881,-1.1882,-1.0965,0.8319,0.8094,0.8199,0.8748,0.8545,0.0,1.0417,1.1246,1.1857,1.2562,1.3175,1.3479,1.3066,1.2728,1.2409,1.2031,1.1711,1.1089,0.9767,0.9119,0.8333,0.7155,0.6112,0.5275,0.4727,0.3803,0.2324,0.0178,-0.1336,-0.2588,-0.3619,-0.3751,-0.3755,-0.3711,-0.2674,-0.214,-0.2184,-0.2219,-0.2882,-0.4142,-0.4087,-0.4401,-0.5009,-0.5221,-0.5701,-0.6263,-0.6607,-0.7541,-0.8736,-0.8874,-0.8212,-0.7058,-0.7058,-0.7416,-0.797,-0.797,-0.8802,-1.0038,-1.0697,-1.1323,-1.2209,-1.4075,-1.4698,-1.4937,-1.6151,-1.6522,-1.6522,-1.6522,-1.6522,-1.6522,-1.6522,-1.5611,-1.4698,-1.4698,-1.38,-1.2881,-1.2881,-1.2881,-1.2929,-1.2968,-1.3017,-1.3152,-1.3732,-1.3909,-1.4179,-1.4698,-1.4789,-1.4789,-1.4789,-1.4283,-1.3909,-1.3909,-1.342,-1.3065,-1.3017,-1.3017,-1.2968,-1.2881,-1.2881,-1.2881,-1.2881,-1.2881,-1.2881,-1.2881,-1.2881,-1.2881,-1.2881,-1.2881,-1.2881,-1.2881,-1.1534,-1.0864,0.9583,0.9313,0.905,0.8879,0.8912,0.0,0.853,0.9011,0.9528,0.9637,1.0047,1.0646,1.1506,1.119,1.0849,1.1094,1.0766,1.0386,1.0099,0.9658,0.878,0.7196,0.6823,0.6165,0.4815,0.2266,0.049,0.0044,-0.2576,-0.4184,-0.422,-0.47,-0.4826,-0.4478,-0.4248,-0.4299,-0.4635,-0.4939,-0.5321,-0.5733,-0.5376,-0.5329,-0.5629,-0.5667,-0.6021,-0.6564,-0.756,-0.8377,-0.9076,-1.0019,-1.0246,-0.9982,-0.9982,-1.0077,-1.0179,-1.0179,-1.0687,-1.1399,-1.1548,-1.208,-1.29,-1.4236,-1.4698,-1.4937,-1.6151,-1.6522,-1.6522,-1.6522,-1.6522,-1.6522,-1.6522,-1.5611,-1.4698,-1.4698,-1.38,-1.2881,-1.2881,-1.2881,-1.3065,-1.3552,-1.3637,-1.3637,-1.3779,-1.4595,-1.5276,-1.541,-1.541,-1.541,-1.541,-1.4915,-1.4514,-1.4514,-1.4433,-1.4154,-1.3695,-1.3637,-1.342,-1.2929,-1.2881,-1.2881,-1.2881,-1.2881,-1.2881,-1.2881,-1.2881,-1.2881,-1.2881,-1.2881,-1.2881,-1.2881,-1.203,-1.1316,0.9843,0.9375,0.901,0.8678,0.8386,0.0,0.0,0.8224,0.8531,0.8832,0.8961,0.9204,0.9847,0.9814,0.9706,0.9718,0.9712,0.9522,0.9041,0.8777,0.8049,0.6343,0.5964,0.5154,0.3429,0.1288,-0.0489,-0.1692,-0.351,-0.4491,-0.4391,-0.4957,-0.5216,-0.4995,-0.4995,-0.5091,-0.5285,-0.5512,-0.5777,-0.6146,-0.5903,-0.613,-0.6783,-0.6918,-0.7301,-0.7884,-0.8573,-0.9374,-1.0204,-1.0751,-1.1309,-1.1792,-1.1074,-1.1015,-1.1316,-1.1283,-1.1742,-1.2344,-1.2344,-1.2608,-1.3065,-1.3967,-1.4468,-1.488,-1.5776,-1.6238,-1.6522,-1.6522,-1.6522,-1.6522,-1.6522,-1.5611,-1.4698,-1.4698,-1.38,-1.2968,-1.3286,-1.3324,-1.3515,-1.4154,-1.4503,-1.4675,-1.4675,-1.5174,-1.572,-1.6008,-1.6051,-1.6051,-1.6051,-1.5511,-1.5141,-1.5141,-1.4595,-1.4143,-1.3815,-1.3505,-1.3238,-1.2929,-1.2881,-1.2881,-1.2881,-1.2881,-1.2881,-1.2881,-1.2881,-1.2881,-1.2881,-1.2881,-1.2881,-1.2881,-1.2138,-1.1466,0.9941,0.9295,0.8782,0.8326,0.7749,0.7348,0.0,0.0,0.0,0.8261,0.8105,0.7921,0.8056,0.8372,0.8561,0.8236,0.8409,0.8272,0.7347,0.7311,0.68,0.5319,0.5152,0.4227,0.2027,0.0308,-0.1502,-0.3442,-0.4148,-0.4483,-0.4561,-0.526,-0.5647,-0.5647,-0.5647,-0.569,-0.5819,-0.5819,-0.6058,-0.6584,-0.6584,-0.7086,-0.7975,-0.82,-0.8637,-0.9215,-0.9484,-1.0208,-1.1159,-1.1323,-1.1931,-1.2657,-1.1607,-1.1525,-1.203,-1.1999,-1.2363,-1.2881,-1.2881,-1.2881,-1.3017,-1.3589,-1.4283,-1.4971,-1.5588,-1.6095,-1.6522,-1.6522,-1.6522,-1.6522,-1.6522,-1.57,-1.488,-1.488,-1.4014,-1.3382,-1.3873,-1.3956,-1.4143,-1.4744,-1.5276,-1.5588,-1.5588,-1.5688,-1.5952,-1.6423,-1.6522,-1.6522,-1.6522,-1.6051,-1.5764,-1.5764,-1.4903,-1.4236,-1.4003,-1.3515,-1.3162,-1.2929,-1.2881,-1.2978,-1.3065,-1.3065,-1.3017,-1.2881,-1.2881,-1.2881,-1.2881,-1.2881,-1.2881,-1.2881,-1.2138,-1.1466,1.0758,0.991,0.891,0.7858,0.758,0.7252,0.6158,0.0,0.648,0.6067,0.0,0.5766,0.6066,0.0,0.0,0.7005,0.6638,0.616,0.5586,0.5634,0.5497,0.475,0.5835,0.5364,0.2114,-0.1225,-0.3324,-0.3571,-0.4244,-0.4841,-0.5163,-0.6204,-0.681,-0.681,-0.681,-0.7063,-0.7614,-0.7614,-0.7855,-0.8415,-0.8415,-0.8464,-0.8594,-0.8627,-0.8937,-0.9488,-0.9873,-1.0367,-1.0987,-1.1759,-1.2163,-1.2297,-1.257,-1.2725,-1.2774,-1.2774,-1.2832,-1.2881,-1.2881,-1.2881,-1.3017,-1.3589,-1.4595,-1.5588,-1.6194,-1.6436,-1.6522,-1.6522,-1.6522,-1.6522,-1.6522,-1.6008,-1.5499,-1.5499,-1.496,-1.4514,-1.456,-1.4606,-1.4789,-1.5365,-1.5543,-1.5588,-1.5588,-1.6051,-1.6423,-1.6479,-1.6522,-1.6522,-1.6522,-1.6423,-1.638,-1.638,-1.6293,-1.5744,-1.4698,-1.4525,-1.4025,-1.2978,-1.2881,-1.3152,-1.3684,-1.3684,-1.3467,-1.2929,-1.2881,-1.2881,-1.2881,-1.2881,-1.2881,-1.2881,-1.2138,-1.1466,1.0347,0.9207,0.8042,0.7377,0.6546,0.5778,0.5449,0.5286,0.5241,0.5242,0.0,0.0,0.0,0.0,0.0,0.0,0.3979,0.4129,0.4474,0.3955,0.3378,0.3011,0.3076,0.2036,-0.0764,-0.2593,-0.3357,-0.2774,-0.3755,-0.459,-0.5137,-0.6184,-0.6847,-0.6979,-0.7321,-0.7663,-0.7912,-0.8201,-0.8635,-0.9159,-0.9159,-0.9319,-0.9637,-0.9637,-0.9755,-0.9971,-1.0141,-1.0481,-1.0937,-1.1309,-1.1611,-1.1855,-1.2086,-1.2422,-1.2881,-1.2881,-1.2881,-1.2881,-1.2881,-1.2881,-1.3065,-1.4014,-1.4641,-1.5242,-1.6194,-1.6522,-1.6522,-1.6522,-1.6522,-1.6522,-1.6522,-1.6051,-1.5588,-1.5588,-1.5141,-1.4789,-1.5141,-1.5231,-1.5421,-1.6008,-1.6139,-1.6139,-1.6139,-1.6324,-1.6522,-1.6522,-1.6522,-1.6522,-1.6522,-1.6522,-1.6522,-1.6522,-1.6194,-1.5776,-1.5276,-1.4926,-1.434,-1.3467,-1.342,-1.3552,-1.3779,-1.3815,-1.3684,-1.342,-1.3055,-1.2881,-1.2881,-1.2881,-1.2881,-1.2881,-1.2559,-1.2039,0.9679,0.8323,0.7099,0.6623,0.5459,0.4515,0.4801,0.4242,0.387,0.4477,0.3775,0.0,0.0,0.0,0.2793,0.2139,0.0,0.2079,0.2591,0.1931,0.1391,0.1315,0.059,-0.0711,-0.2872,-0.2954,-0.2769,-0.2517,-0.3606,-0.4578,-0.5236,-0.6104,-0.6801,-0.7224,-0.7663,-0.8036,-0.8316,-0.8716,-0.9199,-0.9716,-0.9716,-0.9922,-1.0283,-1.0283,-1.0283,-1.0283,-1.0283,-1.0459,-1.0752,-1.1023,-1.1219,-1.1439,-1.184,-1.2213,-1.2539,-1.2656,-1.2783,-1.2881,-1.2881,-1.2881,-1.3065,-1.4107,-1.456,-1.488,-1.592,-1.638,-1.6522,-1.6522,-1.6522,-1.6522,-1.6522,-1.6194,-1.5864,-1.5864,-1.5511,-1.5287,-1.5732,-1.5864,-1.5964,-1.6423,-1.6522,-1.6522,-1.6522,-1.6522,-1.6522,-1.6522,-1.6522,-1.6522,-1.6522,-1.6522,-1.6522,-1.6522,-1.6095,-1.5776,-1.5632,-1.5186,-1.4698,-1.4097,-1.4179,-1.4226,-1.405,-1.4226,-1.4143,-1.3826,-1.3372,-1.3065,-1.2881,-1.2881,-1.2881,-1.2881,-1.2881,-1.2501,0.8935,0.7624,0.6247,0.5466,0.4648,0.4026,0.4021,0.2928,0.2183,0.3319,0.2048,0.0848,0.1316,0.2119,0.2706,0.2689,0.1204,0.0,0.0,-0.0504,-0.0225,0.003,-0.0318,-0.1198,-0.2833,-0.1765,-0.1687,-0.3416,-0.4262,-0.4964,-0.5636,-0.627,-0.7008,-0.7863,-0.787,-0.8398,-0.9439,-0.9478,-0.9765,-1.0283,-1.0283,-1.0283,-1.0283,-1.0283,-1.0283,-1.0283,-1.0283,-1.0332,-1.0371,-1.1295,-1.1358,-1.105,-1.2413,-1.2404,-1.1704,-1.209,-1.252,-1.2881,-1.2881,-1.2881,-1.3017,-1.3647,-1.4236,-1.4835,-1.5454,-1.6051,-1.6522,-1.6522,-1.6522,-1.6522,-1.6522,-1.6479,-1.6466,-1.6466,-1.6479,-1.6436,-1.6466,-1.6466,-1.6479,-1.6522,-1.6522,-1.6522,-1.6522,-1.6522,-1.6522,-1.6522,-1.6522,-1.6522,-1.6522,-1.6522,-1.6522,-1.6522,-1.6466,-1.6238,-1.5632,-1.5588,-1.532,-1.4698,-1.5231,-1.5276,-1.4698,-1.5231,-1.4994,-1.3815,-1.3768,-1.3457,-1.2881,-1.2881,-1.2881,-1.2881,-1.2881,-1.2501,0.7395,0.6177,0.5085,0.4552,0.3761,0.3043,0.2747,0.1167,-0.0135,0.03,-0.0168,-0.044,0.0302,0.0705,0.0519,-0.0689,-0.1386,-0.1729,0.0,-0.2038,-0.2286,-0.1848,-0.1898,-0.2103,-0.2388,-0.2525,-0.2816,-0.3306,-0.443,-0.5171,-0.5299,-0.5992,-0.6644,-0.716,-0.777,-0.8262,-0.863,-0.8993,-0.9389,-0.9853,-0.957,-0.9736,-1.0273,-0.998,-1.001,-1.0322,-1.0611,-1.0764,-1.0812,-1.1502,-1.1643,-1.154,-1.2009,-1.1987,-1.1757,-1.2471,-1.2629,-1.249,-1.2783,-1.2881,-1.3065,-1.4061,-1.4514,-1.488,-1.5876,-1.6337,-1.6522,-1.6522,-1.6522,-1.6522,-1.6522,-1.6522,-1.6522,-1.6522,-1.6522,-1.6522,-1.6522,-1.6522,-1.6522,-1.6522,-1.6522,-1.6522,-1.6522,-1.6522,-1.6522,-1.6522,-1.6522,-1.6522,-1.6522,-1.6522,-1.6522,-1.6522,-1.6522,-1.6423,-1.6194,-1.582,-1.5499,-1.532,-1.5499,-1.5499,-1.532,-1.5499,-1.541,-1.4994,-1.4595,-1.4107,-1.3515,-1.3515,-1.3286,-1.2881,-1.2881,-1.2774,0.6174,0.5126,0.4279,0.4053,0.3048,0.2052,0.1819,-0.0034,-0.1741,-0.1887,-0.1909,-0.1887,-0.1756,-0.1032,-0.0818,-0.1881,-0.205,-0.2097,0.0,-0.2858,-0.3192,-0.2761,-0.2788,-0.2707,-0.2358,-0.2759,-0.317,-0.3471,-0.4317,-0.4991,-0.5308,-0.58,-0.6387,-0.7078,-0.7665,-0.8166,-0.848,-0.8833,-0.921,-0.9607,-0.9327,-0.9566,-1.0246,-1.0103,-1.0241,-1.0528,-1.1058,-1.1282,-1.1319,-1.1847,-1.1957,-1.1811,-1.2174,-1.2076,-1.1801,-1.232,-1.2382,-1.2248,-1.2725,-1.2881,-1.3065,-1.4061,-1.4525,-1.488,-1.5876,-1.6324,-1.6522,-1.6522,-1.6522,-1.6522,-1.6522,-1.6522,-1.6522,-1.6522,-1.6637,-1.671,-1.6552,-1.6637,-1.671,-1.6552,-1.6522,-1.6522,-1.6522,-1.6522,-1.6522,-1.6522,-1.6522,-1.6522,-1.6522,-1.6522,-1.6522,-1.6522,-1.6522,-1.6522,-1.6522,-1.6139,-1.5908,-1.5908,-1.5908,-1.5908,-1.5908,-1.5908,-1.582,-1.5588,-1.5017,-1.4376,-1.3815,-1.36,-1.3286,-1.2881,-1.2881,-1.2881]},{"header":{"parameterUnit":"m.s-1","parameterCategory":1,"la1":30.6,"la2":29.2853,"lo1":-89.7004,"lo2":-87.6739,"dy":0.0162,"dx":0.0183,"nx":112,"ny":82,"refTime":"2024-07-06T12:00:00:Z","depth":0,"parameterNumber":3,"parameterNumberName":"V-component_of_WINDS"},"data":[0.0,0.0,0.0,0.0,0.0,0.0,0.0,0.0,0.0,0.0,0.0,0.0,0.0,0.0,0.0,0.0,0.0,0.0,0.0,0.0,0.0,0.0,0.0,0.0,0.0,0.0,0.0,0.0,0.0,0.0,0.0,0.0,0.0,0.0,0.0,0.0,0.0,0.0,0.0,0.0,0.0,0.0,0.0,0.0,0.0,0.0,0.0,0.0,0.0,0.0,0.0,0.0,0.0,0.0,0.0,0.0,0.0,0.0,0.0,0.0,0.0,0.0,0.0,0.0,0.0,0.0,0.0,0.0,0.0,0.0,0.0,0.0,0.0,0.0,0.0,0.0,0.0,0.0,0.0,0.0,0.0,0.0,0.0,0.0,0.0,0.0,0.0,0.0,0.0,0.0,-0.6671,-0.754,-0.9481,-1.0694,-1.0694,-1.1255,-1.1011,-0.9562,0.0,0.0,0.0,0.0,0.0,0.0,0.0,0.0,0.0,0.0,0.0,0.0,0.0,0.0,0.0,0.0,0.0,0.0,0.0,0.0,0.0,0.0,0.0,0.0,0.0,0.0,0.0,0.0,0.0,0.0,0.0,0.0,0.0,0.0,0.0,0.0,0.0,0.0,0.0,0.0,0.0,0.0,0.0,0.0,0.0,0.0,0.0,0.0,0.0,0.0,0.0,0.0,0.0,0.0,0.0,0.0,0.0,0.0,0.0,0.0,0.0,0.0,0.0,0.0,0.0,0.0,0.0,0.0,0.0,0.0,0.0,0.0,0.0,0.0,0.0,0.0,0.0,0.0,0.0,0.0,0.0,0.0,0.0,0.0,0.0,0.0,0.0,0.0,0.0,0.0,0.0,0.0,0.0,0.0,0.0,0.0,0.0,0.0,0.0,0.0,0.0,0.0,0.0,0.0,-0.7368,-0.93,-1.0224,-1.0694,-1.0694,-1.1067,-1.086,-0.9894,0.0,0.0,0.0,0.0,0.0,0.0,0.0,0.0,0.0,0.0,0.0,0.0,0.0,0.0,0.0,0.0,0.0,0.0,0.0,0.0,0.0,0.0,0.0,0.0,0.0,0.0,0.0,0.0,0.0,0.0,0.0,0.0,0.0,0.0,0.0,0.0,0.0,0.0,0.0,0.0,0.0,0.0,0.0,0.0,0.0,0.0,0.0,0.0,0.0,0.0,0.0,0.0,0.0,0.0,0.0,0.0,0.0,0.0,0.0,0.0,0.0,0.0,0.0,0.0,0.0,0.0,0.0,0.0,0.0,0.0,0.0,0.0,0.0,0.0,0.0,0.0,0.0,0.0,0.0,0.0,0.0,0.0,0.0,0.0,0.0,0.0,0.0,0.0,0.0,0.0,0.0,0.0,0.0,0.0,0.0,0.0,0.0,0.0,0.0,0.0,0.0,0.0,0.0,-0.6676,-0.8017,-0.9728,-1.0671,-1.1186,-1.1186,-1.1633,-1.1375,-1.0148,-0.9197,0.0,0.0,0.0,0.0,0.0,0.0,0.0,0.0,0.0,0.0,0.0,0.0,0.0,0.0,0.0,0.0,0.0,0.0,0.0,0.0,0.0,0.0,0.0,0.0,0.0,0.0,0.0,0.0,0.0,0.0,0.0,0.0,0.0,0.0,0.0,0.0,0.0,0.0,0.0,0.0,0.0,0.0,0.0,0.0,0.0,0.0,0.0,0.0,0.0,0.0,0.0,0.0,0.0,0.0,0.0,0.0,0.0,0.0,0.0,0.0,0.0,0.0,0.0,0.0,0.0,0.0,0.0,0.0,0.0,0.0,0.0,0.0,0.0,0.0,0.0,0.0,0.0,0.0,0.0,0.0,0.0,0.0,0.0,0.0,0.0,0.0,0.0,0.0,0.0,0.0,0.0,0.0,0.0,0.0,0.0,0.0,0.0,0.0,0.0,0.0,0.0,0.0,-0.7715,-0.8578,-0.9766,-1.091,-1.1588,-1.1588,-1.1851,-1.1467,-1.0148,-0.8752,0.0,0.0,0.0,0.0,0.0,0.0,0.0,0.0,0.0,0.0,0.0,0.0,0.0,0.0,0.0,0.0,0.0,0.0,0.0,0.0,0.0,0.0,0.0,0.0,0.0,0.0,0.0,0.0,0.0,0.0,0.0,0.0,0.0,0.0,0.0,0.0,0.0,0.0,0.0,0.0,0.0,0.0,0.0,0.0,0.0,0.0,0.0,0.0,0.0,0.0,0.0,0.0,0.0,0.0,0.0,0.0,0.0,0.0,0.0,0.0,0.0,0.0,0.0,0.0,0.0,0.0,0.0,0.0,0.0,0.0,0.0,0.0,0.0,0.0,0.0,0.0,0.0,0.0,0.0,0.0,0.0,0.0,0.0,0.0,0.0,0.0,0.0,0.0,0.0,0.0,0.0,0.0,0.0,0.0,0.0,0.0,0.0,0.0,0.0,0.0,0.0,0.0,-0.8054,-0.9035,-0.9816,-1.091,-1.1588,-1.1588,-1.0953,-1.0297,-0.9668,-0.7634,0.0,0.0,0.0,0.0,0.0,0.0,0.0,0.0,0.0,0.0,0.0,0.0,0.0,0.0,0.0,0.0,0.0,0.0,0.0,0.0,0.0,0.0,0.0,0.0,0.0,0.0,0.0,0.0,0.0,0.0,0.0,0.0,0.0,0.0,0.0,0.0,0.0,0.0,0.0,0.0,0.0,0.0,0.0,0.0,0.0,0.0,0.0,0.0,0.0,0.0,0.0,0.0,0.0,0.0,0.0,0.0,0.0,0.0,0.0,0.0,0.0,0.0,0.0,0.0,0.0,0.0,0.0,0.0,0.0,0.0,0.0,0.0,0.0,0.0,0.0,0.0,0.0,0.0,0.0,0.0,0.0,0.0,0.0,0.0,0.0,0.0,0.0,0.0,0.0,0.0,0.0,0.0,0.0,0.0,0.0,0.0,0.0,0.0,0.0,0.0,0.0,0.0,-0.8394,-0.9579,-1.0318,-1.1123,-1.1726,-1.2077,-1.1848,-1.1114,-0.9692,0.0,0.0,0.0,0.0,0.0,0.0,0.0,0.0,0.0,0.0,0.0,0.0,0.0,0.0,0.0,0.0,0.0,0.0,0.0,0.0,0.0,0.0,0.0,0.0,0.0,0.0,0.0,0.0,0.0,0.0,0.0,0.0,0.0,0.0,0.0,0.0,0.0,0.0,0.0,0.0,0.0,0.0,0.0,0.0,0.0,0.0,0.0,0.0,0.0,0.0,0.0,0.0,0.0,0.0,0.0,0.0,0.0,0.0,0.0,0.0,0.0,0.0,0.0,0.0,0.0,0.0,0.0,0.0,0.0,0.0,0.0,0.0,0.0,0.0,0.0,0.0,0.0,0.0,0.0,0.0,0.0,0.0,0.0,0.0,0.0,0.0,0.0,0.0,0.0,0.0,0.0,0.0,0.0,0.0,0.0,0.0,0.0,0.0,0.0,0.0,0.0,0.0,-0.7259,-0.8758,-1.0065,-1.0649,-1.1236,-1.1738,-1.2115,-1.2063,-1.1199,-0.9345,0.0,0.0,0.0,0.0,0.0,0.0,0.0,0.0,0.0,0.0,0.0,0.0,0.0,0.0,0.0,0.0,0.0,0.0,0.0,0.0,0.0,0.0,0.0,0.0,0.0,0.0,0.0,0.0,0.0,0.0,0.0,0.0,0.0,0.0,0.0,0.0,0.0,0.0,0.0,0.0,0.0,0.0,0.0,0.0,0.0,0.0,0.0,0.0,0.0,0.0,0.0,0.0,0.0,0.0,0.0,0.0,0.0,0.0,0.0,0.0,0.0,0.0,0.0,0.0,0.0,0.0,0.0,0.0,0.0,0.0,0.0,0.0,0.0,0.0,0.0,0.0,0.0,0.0,0.0,0.0,0.0,0.0,0.0,0.0,0.0,0.0,0.0,0.0,0.0,0.0,0.0,0.0,0.0,0.0,0.0,0.0,0.0,0.0,0.0,0.0,0.0,0.0,-0.7531,-0.9214,-1.0482,-1.0699,-1.1236,-1.1588,-1.16,-1.1191,-1.0191,0.0,0.0,0.0,0.0,0.0,0.0,0.0,0.0,0.0,0.0,0.0,0.0,0.0,0.0,0.0,0.0,0.0,0.0,0.0,0.0,0.0,0.0,0.0,0.0,0.0,0.0,0.0,0.0,0.0,0.0,0.0,0.0,0.0,0.0,0.0,0.0,0.0,0.0,0.0,0.0,0.0,0.0,0.0,0.0,0.0,0.0,0.0,0.0,0.0,0.0,0.0,0.0,0.0,0.0,0.0,0.0,0.0,0.0,0.0,0.0,0.0,0.0,0.0,0.0,0.0,0.0,0.0,0.0,0.0,0.0,0.0,0.0,0.0,0.0,0.0,0.0,0.0,0.0,0.0,0.0,0.0,0.0,0.0,0.0,0.0,0.0,0.0,0.0,0.0,0.0,0.0,0.0,0.0,0.0,0.0,0.0,0.0,0.0,0.0,0.0,0.0,0.0,0.0,-0.7576,-0.975,-1.1309,-1.1332,-1.1487,-1.1738,-1.2128,-1.1736,-1.0703,-0.8924,0.0,0.0,0.0,0.0,0.0,0.0,0.0,0.0,0.0,0.0,0.0,0.0,0.0,0.0,0.0,0.0,0.0,0.0,0.0,0.0,0.0,0.0,0.0,0.0,0.0,0.0,0.0,0.0,0.0,0.0,0.0,0.0,0.0,0.0,0.0,0.0,0.0,0.0,0.0,0.0,0.0,0.0,0.0,0.0,0.0,0.0,0.0,0.0,0.0,0.0,0.0,0.0,0.0,0.0,0.0,0.0,0.0,0.0,0.0,0.0,0.0,0.0,0.0,0.0,0.0,0.0,0.0,0.0,0.0,0.0,0.0,0.0,0.0,0.0,0.0,0.0,0.0,0.0,0.0,0.0,0.0,0.0,0.0,0.0,0.0,0.0,0.0,0.0,0.0,0.0,0.0,0.0,0.0,0.0,0.0,0.0,0.0,0.0,0.0,0.0,0.0,0.0,-0.7587,-0.9965,-1.1656,-1.1615,-1.1588,-1.1726,-1.2052,-1.1838,-1.0863,-0.8921,0.0,0.0,0.0,0.0,0.0,0.0,0.0,0.0,0.0,0.0,0.0,0.0,0.0,0.0,0.0,0.0,0.0,0.0,0.0,0.0,0.0,0.0,0.0,0.0,0.0,0.0,0.0,0.0,0.0,0.0,0.0,0.0,0.0,0.0,0.0,0.0,0.0,0.0,0.0,0.0,0.0,0.0,0.0,0.0,0.0,0.0,0.0,0.0,0.0,0.0,0.0,0.0,0.0,0.0,0.0,0.0,0.0,0.0,0.0,0.0,0.0,0.0,0.0,0.0,0.0,0.0,0.0,0.0,0.0,0.0,0.0,0.0,0.0,0.0,0.0,0.0,0.0,0.0,0.0,0.0,0.0,0.0,0.0,0.0,0.0,0.0,0.0,0.0,0.0,0.0,0.0,0.0,0.0,0.0,0.0,0.0,0.0,0.0,0.0,0.0,0.0,0.0,-0.7657,-1.0056,-1.1736,-1.1691,-1.1663,-1.1638,-1.1588,-1.1667,-1.0813,-0.8762,0.0,0.0,0.0,0.0,0.0,0.0,0.0,0.0,0.0,0.0,0.0,0.0,0.0,0.0,0.0,0.0,0.0,0.0,0.0,0.0,0.0,0.0,0.0,0.0,0.0,0.0,0.0,0.0,0.0,0.0,0.0,0.0,0.0,0.0,0.0,0.0,0.0,0.0,0.0,0.0,0.0,0.0,0.0,0.0,0.0,0.0,0.0,0.0,0.0,0.0,0.0,0.0,0.0,0.0,0.0,0.0,0.0,0.0,0.0,0.0,-0.7743,-0.7547,0.0,0.0,0.0,0.0,0.0,0.0,0.0,0.0,0.0,0.0,0.0,0.0,0.0,0.0,0.0,0.0,0.0,0.0,0.0,0.0,0.0,0.0,0.0,0.0,0.0,0.0,0.0,0.0,0.0,0.0,0.0,0.0,0.0,0.0,0.0,0.0,0.0,0.0,0.0,0.0,-0.8239,-1.0625,-1.2297,-1.2228,-1.2241,-1.2065,-1.1656,-1.1667,-1.1116,-0.969,-0.9677,0.0,0.0,0.0,0.0,0.0,0.0,0.0,0.0,0.0,0.0,0.0,0.0,0.0,0.0,0.0,0.0,0.0,0.0,0.0,0.0,0.0,0.0,0.0,0.0,0.0,0.0,0.0,0.0,0.0,0.0,0.0,0.0,0.0,0.0,0.0,0.0,0.0,0.0,0.0,0.0,0.0,0.0,0.0,0.0,0.0,0.0,0.0,0.0,0.0,0.0,0.0,0.0,0.0,0.0,0.0,0.0,0.0,0.0,0.0,-0.9449,-0.9082,0.0,0.0,0.0,0.0,0.0,0.0,0.0,0.0,0.0,0.0,0.0,0.0,0.0,0.0,0.0,0.0,0.0,0.0,0.0,0.0,0.0,0.0,0.0,0.0,0.0,0.0,0.0,0.0,0.0,0.0,0.0,0.0,0.0,0.0,0.0,0.0,0.0,0.0,0.0,0.0,-0.8947,-1.1256,-1.2885,-1.3006,-1.281,-1.2569,-1.2303,-1.1924,-1.1344,-1.0486,-1.0545,0.0,0.0,0.0,0.0,0.0,0.0,0.0,0.0,0.0,0.0,0.0,0.0,0.0,0.0,0.0,0.0,0.0,0.0,0.0,0.0,0.0,0.0,0.0,0.0,0.0,0.0,0.0,0.0,0.0,0.0,0.0,0.0,0.0,0.0,0.0,0.0,0.0,0.0,0.0,0.0,0.0,0.0,0.0,0.0,0.0,0.0,0.0,0.0,0.0,0.0,0.0,0.0,0.0,-1.1632,-1.1844,-1.2045,-1.2045,-1.2143,-1.2265,-1.1226,-1.0908,-1.1107,-1.0683,0.0,0.0,0.0,0.0,0.0,0.0,0.0,0.0,0.0,0.0,0.0,0.0,0.0,0.0,0.0,0.0,0.0,0.0,0.0,0.0,0.0,0.0,-1.1946,-1.1977,-1.2652,-1.2712,-1.0482,0.0,0.0,0.0,0.0,0.0,0.0,0.0,0.0,0.0,0.0,0.0,-0.9779,-1.1897,-1.3486,-1.3805,-1.3486,-1.3187,-1.3019,-1.2469,-1.1846,-1.1158,-1.1434,-1.1318,0.0,0.0,0.0,0.0,0.0,0.0,0.0,0.0,0.0,0.0,0.0,0.0,0.0,0.0,0.0,0.0,0.0,0.0,0.0,0.0,0.0,0.0,0.0,0.0,0.0,0.0,0.0,0.0,0.0,0.0,0.0,0.0,-0.6097,-0.6697,0.0,0.0,0.0,0.0,0.0,0.0,0.0,0.0,0.0,0.0,0.0,0.0,0.0,-1.0854,-1.1233,-1.2594,-1.304,-1.2588,-1.3748,-1.3871,-1.3029,-1.3029,-1.2927,-1.2834,-1.2986,0.0,-1.2815,-1.2012,0.0,0.0,0.0,0.0,0.0,0.0,0.0,0.0,0.0,0.0,0.0,0.0,0.0,0.0,0.0,0.0,0.0,0.0,0.0,0.0,0.0,0.0,-1.377,-1.3837,-1.3782,-1.3625,-1.3257,-1.1954,-1.0771,-1.0548,-1.0197,-0.9653,0.0,0.0,0.0,0.0,0.0,0.0,-1.078,-1.2664,-1.4098,-1.437,-1.4345,-1.3969,-1.3059,-1.3498,-1.3163,-1.1688,-1.1874,-1.1812,-1.1385,-1.1019,0.0,0.0,0.0,0.0,0.0,0.0,0.0,0.0,0.0,0.0,0.0,0.0,0.0,0.0,0.0,0.0,0.0,0.0,0.0,0.0,0.0,0.0,0.0,0.0,0.0,0.0,0.0,0.0,0.0,-0.6053,-0.6893,-0.7061,-0.7191,-0.7253,0.0,0.0,0.0,0.0,0.0,0.0,0.0,0.0,0.0,-1.1295,-1.1786,-1.2461,-1.3342,-1.4397,-1.4822,-1.4629,-1.5533,-1.5576,-1.4818,-1.4818,-1.4678,-1.4358,-1.4565,-1.4574,-1.4433,-1.3529,-1.2922,-1.2531,0.0,0.0,0.0,0.0,-1.1255,-1.1465,-1.2177,-1.2442,-1.247,-1.2374,0.0,0.0,0.0,0.0,0.0,0.0,0.0,-1.1915,-1.3171,-1.3997,-1.4604,-1.4992,-1.501,-1.4917,-1.4917,-1.4076,-1.3046,-1.2132,-1.2297,-1.204,-1.0279,-1.0293,0.0,0.0,0.0,-1.2288,-1.2784,-1.397,-1.4879,-1.5182,-1.4982,-1.467,-1.4237,-1.4111,-1.3799,-1.3093,-1.285,-1.2702,-1.2693,-1.1975,-1.1479,0.0,0.0,0.0,0.0,0.0,0.0,0.0,0.0,0.0,0.0,0.0,0.0,0.0,0.0,0.0,0.0,0.0,0.0,0.0,0.0,0.0,0.0,0.0,0.0,0.0,0.0,0.0,0.0,-0.6814,-0.7395,-0.7402,-0.7963,-0.8327,0.0,0.0,0.0,0.0,0.0,0.0,-1.0408,-1.1618,-1.2574,-1.3161,-1.3742,-1.4528,-1.553,-1.6024,-1.6351,-1.6459,-1.6757,-1.6662,-1.6154,-1.601,-1.5731,-1.5335,-1.5335,-1.5335,-1.5306,-1.4689,-1.4237,-1.3912,-1.3981,-1.3726,-1.3389,-1.3685,-1.3629,-1.3556,-1.4615,-1.4935,-1.4804,-1.4337,-1.4038,-1.369,-1.2613,0.0,0.0,0.0,0.0,-1.3464,-1.4645,-1.5257,-1.5591,-1.5817,-1.5862,-1.5876,-1.58,-1.5463,-1.4834,-1.3643,-1.4047,-1.3987,-1.2071,-1.2163,0.0,-1.2081,-1.3014,-1.3938,-1.4491,-1.5132,-1.5664,-1.5909,-1.5536,-1.5225,-1.5104,-1.4746,-1.4414,-1.4127,-1.3795,-1.3644,-1.3747,-1.2948,-1.249,-1.247,0.0,0.0,0.0,0.0,0.0,0.0,0.0,0.0,0.0,0.0,0.0,0.0,0.0,0.0,0.0,0.0,0.0,0.0,0.0,0.0,0.0,0.0,0.0,0.0,0.0,0.0,0.0,0.0,0.0,-0.7909,-0.9103,0.0,0.0,0.0,0.0,-1.13,-1.1963,-1.2274,-1.2088,-1.4298,-1.5388,-1.499,-1.6585,-1.7473,-1.7533,-1.7578,-1.7608,-1.7605,-1.7142,-1.6697,-1.6261,-1.5768,-1.5297,-1.4942,-1.4942,-1.4942,-1.498,-1.5281,-1.5605,-1.5862,-1.5862,-1.5458,-1.5015,-1.6097,-1.5894,-1.5243,-1.6378,-1.6059,-1.5168,-1.5208,-1.4724,-1.4269,-1.5267,-1.4888,0.0,0.0,-1.6273,-1.6201,-1.6656,-1.7159,-1.7287,-1.6236,-1.6027,-1.6026,-1.5846,-1.5419,-1.5082,-1.5087,-1.482,-1.449,-1.4109,0.0,-1.4015,-1.3818,-1.4581,-1.5211,-1.5249,-1.5842,-1.6254,-1.6258,-1.5983,-1.558,-1.5134,-1.5477,-1.5255,-1.4184,-1.4488,-1.455,-1.4177,-1.3747,-1.3342,-1.2972,-1.1954,0.0,0.0,0.0,0.0,0.0,0.0,0.0,0.0,0.0,0.0,0.0,0.0,0.0,0.0,0.0,0.0,0.0,0.0,0.0,0.0,0.0,0.0,0.0,0.0,0.0,0.0,0.0,0.0,-0.8659,-0.9994,0.0,-1.079,-1.1536,-1.2163,-1.2427,-1.3482,-1.4126,-1.4131,-1.5324,-1.5932,-1.5763,-1.6354,-1.6835,-1.719,-1.7597,-1.7835,-1.785,-1.8065,-1.7759,-1.6929,-1.6731,-1.6384,-1.5932,-1.5932,-1.5932,-1.5932,-1.6084,-1.5958,-1.5698,-1.5944,-1.5924,-1.5757,-1.6137,-1.6083,-1.5831,-1.6228,-1.6123,-1.5768,-1.5804,-1.5607,-1.5538,-1.6272,-1.625,-1.6099,-1.6659,-1.6742,-1.6733,-1.6847,-1.6801,-1.6641,-1.6584,-1.6608,-1.6584,-1.6532,-1.6649,-1.6875,-1.7205,-1.6799,-1.6423,-1.6496,-1.7133,-1.7492,-1.7166,-1.7403,-1.756,-1.7311,-1.7074,-1.685,-1.6633,-1.6501,-1.6285,-1.5909,-1.6231,-1.5943,-1.4818,-1.5175,-1.5021,-1.405,-1.3962,-1.3628,-1.3016,-1.2266,-1.1503,0.0,0.0,0.0,0.0,0.0,0.0,0.0,0.0,0.0,0.0,0.0,0.0,0.0,0.0,0.0,0.0,0.0,0.0,0.0,0.0,0.0,0.0,0.0,0.0,0.0,-0.9032,-0.9812,-0.9698,-1.1026,-1.1992,-1.2113,-1.2911,-1.3615,-1.4016,-1.4875,-1.5341,-1.5308,-1.6032,-1.6382,-1.6248,-1.6586,-1.7015,-1.7569,-1.8021,-1.8346,-1.8506,-1.8766,-1.8535,-1.7827,-1.7463,-1.7118,-1.6752,-1.6595,-1.6522,-1.6522,-1.6522,-1.6249,-1.5867,-1.6112,-1.6214,-1.6201,-1.6175,-1.5944,-1.5658,-1.5854,-1.5942,-1.5987,-1.6123,-1.6039,-1.6014,-1.676,-1.6973,-1.7015,-1.7248,-1.7305,-1.7269,-1.7088,-1.6904,-1.6812,-1.6944,-1.7008,-1.7022,-1.6913,-1.7309,-1.7842,-1.8374,-1.7946,-1.7692,-1.8274,-1.8882,-1.9326,-1.943,-1.9457,-1.9345,-1.9134,-1.8575,-1.798,-1.739,-1.7245,-1.6992,-1.6506,-1.6581,-1.6324,-1.5536,-1.5551,-1.5189,-1.4238,-1.4024,-1.3661,-1.3074,-1.2456,-1.1834,-1.1124,0.0,0.0,0.0,0.0,0.0,0.0,0.0,0.0,0.0,0.0,0.0,0.0,0.0,0.0,0.0,0.0,0.0,0.0,0.0,0.0,0.0,0.0,0.0,-0.9458,-1.002,-1.0592,-1.102,-1.2239,-1.3279,-1.3888,-1.4782,-1.5538,-1.6068,-1.6123,-1.5941,-1.5537,-1.6507,-1.688,-1.6507,-1.7528,-1.8341,-1.8855,-1.8893,-1.9169,-1.969,-1.9169,-1.8893,-1.8855,-1.7827,-1.7312,-1.7271,-1.6752,-1.6522,-1.6522,-1.6522,-1.6522,-1.6509,-1.6416,-1.6378,-1.6378,-1.6333,-1.5668,-1.488,-1.5454,-1.5709,-1.5787,-1.6177,-1.5944,-1.5742,-1.6794,-1.7071,-1.7194,-1.7848,-1.8013,-1.7894,-1.7381,-1.7666,-1.7875,-1.7298,-1.7222,-1.7292,-1.7055,-1.7408,-1.7964,-1.8594,-1.823,-1.8176,-1.9394,-1.9284,-1.9378,-2.0435,-2.0558,0.0,-2.0558,-2.0237,-1.9638,-1.8575,-1.815,-1.7647,-1.6921,-1.6554,-1.634,-1.6313,-1.5661,-1.5134,-1.4848,-1.41,-1.3558,-1.3255,-1.2656,-1.2102,-1.1618,0.0,0.0,0.0,0.0,0.0,0.0,0.0,0.0,0.0,0.0,0.0,0.0,0.0,0.0,0.0,0.0,0.0,0.0,0.0,0.0,0.0,-1.0027,-1.087,-1.042,-1.1218,-1.2038,-1.2539,-1.356,-1.4441,-1.4997,-1.5577,-1.5973,-1.6241,-1.6255,-1.6245,-1.6239,-1.6517,-1.6606,-1.6481,-1.6789,-1.7394,-1.8302,-1.8341,-1.8779,-1.969,-1.9169,-1.8893,-1.8893,-1.8185,-1.7666,-1.7312,-1.7146,-1.6879,-1.6522,-1.6522,-1.6522,-1.6522,-1.6497,-1.6497,-1.6497,-1.6459,-1.6489,-1.6617,-1.6799,-1.6822,-1.6801,-1.6523,-1.635,-1.636,-1.7022,-1.6926,-1.6651,-1.6806,-1.6566,-1.6286,-1.6591,-1.6773,-1.7014,-1.7689,-1.8166,-1.8524,-1.8809,-1.9254,-1.9888,-2.0942,-2.0768,-2.0654,-2.1267,-2.1559,-2.1833,-2.2364,-2.2,-2.1648,-2.1648,-2.1115,-2.0521,-1.9979,-1.9354,-1.8788,-1.83,-1.7893,-1.7415,-1.6776,-1.6768,-1.6529,-1.5923,-1.569,-1.5174,-1.4378,-1.3624,-1.2835,0.0,0.0,0.0,0.0,0.0,0.0,0.0,0.0,0.0,0.0,0.0,0.0,0.0,0.0,0.0,0.0,0.0,0.0,0.0,0.0,0.0,0.0,-1.1223,-1.2241,-1.2128,-1.268,-1.322,-1.3534,-1.4302,-1.5001,-1.5531,-1.58,-1.6036,-1.634,-1.6391,-1.6408,-1.6509,-1.6522,-1.6522,-1.6522,-1.6522,-1.7034,-1.8106,-1.8106,-1.865,-1.969,-1.9369,-1.9244,-1.9207,-1.8688,-1.8263,-1.7947,-1.7747,-1.7353,-1.6837,-1.7076,-1.7034,-1.6795,0.0,0.0,0.0,0.0,-1.676,-1.7272,-1.7272,-1.7409,-1.7544,-1.6993,-1.6993,-1.7188,-1.7271,-1.7203,-1.7094,-1.7094,-1.686,-1.668,-1.6998,-1.7094,-1.7341,-1.821,-1.8826,-1.9273,-1.9549,-2.0283,-2.1022,-2.167,-2.1888,0.0,-2.2694,-2.272,-2.282,-2.3328,-2.3039,-2.2775,-2.2775,-2.2404,-2.1868,-2.1241,-2.078,-2.0171,-1.929,-1.8884,0.0,0.0,0.0,-1.6937,-1.6286,-1.6199,0.0,0.0,0.0,0.0,0.0,-1.4432,0.0,0.0,-1.3054,-1.2879,0.0,0.0,0.0,0.0,0.0,0.0,0.0,0.0,0.0,0.0,0.0,0.0,0.0,0.0,0.0,0.0,-1.2452,-1.3509,-1.411,-1.4236,-1.4274,-1.4274,-1.4702,-1.5178,-1.5731,-1.5781,-1.5994,-1.6441,-1.6522,-1.6522,-1.6522,-1.6522,0.0,0.0,0.0,-1.7034,-1.8106,-1.8106,-1.865,-1.969,-1.9639,-1.9639,-1.969,-1.9132,-1.8893,-1.8855,-1.8419,-1.7907,-1.7422,-1.7907,-1.7827,-1.7299,-1.6275,-1.6176,-1.6579,-1.6574,-1.692,-1.7383,-1.7383,0.0,0.0,-1.7544,-1.7706,-1.8027,-1.7544,-1.7666,-1.8013,-1.8013,-1.7959,-1.792,-1.7973,-1.8078,-1.8313,-1.8841,-1.9368,-1.9748,-1.9818,-2.0766,-2.1562,-2.1499,-2.216,-2.2972,-2.3588,-2.3159,-2.2957,-2.3653,-2.3774,-2.3774,-2.3774,-2.3774,-2.3379,-2.238,-2.2198,0.0,-2.0228,-1.9759,-1.9251,-1.8588,-1.7872,-1.7152,-1.6514,-1.6443,-1.6492,-1.662,-1.6675,-1.6776,-1.6896,-1.699,-1.6903,-1.6658,-1.5216,-1.4851,0.0,0.0,0.0,0.0,0.0,0.0,0.0,0.0,0.0,0.0,0.0,0.0,0.0,0.0,0.0,-1.2246,-1.3258,-1.4123,-1.4676,-1.513,-1.5379,-1.5379,-1.5467,-1.5756,-1.6308,-1.6358,-1.6409,-1.6509,-1.6522,-1.6522,-1.6522,-1.6522,-1.6522,-1.6522,-1.6522,-1.7034,-1.8106,-1.8106,-1.865,-1.969,-1.9244,0.0,-1.969,-1.9132,-1.8893,-1.8893,-1.8779,-1.8458,-1.7947,-1.8066,-1.8027,-1.7933,-1.7679,-1.7679,-1.784,-1.826,-1.8454,-1.8559,-1.8559,-1.8636,-1.865,-1.8145,-1.8027,-1.8066,-1.7987,-1.7666,0.0,-1.7383,-1.7016,-1.6741,-1.7247,-1.7915,-1.8668,-1.9302,-2.0112,-2.0813,-2.1149,-2.1413,-2.1757,-2.231,-2.277,-2.3212,-2.3631,-2.357,-2.3631,-2.4036,-2.4094,-2.4094,-2.4094,-2.4094,-2.3921,-2.3433,-2.2857,-2.2353,-2.2006,-2.1377,-2.1061,-2.124,-2.0662,-1.9638,-1.8196,-1.872,-1.874,-1.8031,-1.8031,-1.7657,-1.6903,-1.7546,-1.7829,-1.7749,-1.6624,-1.6069,0.0,0.0,0.0,0.0,0.0,0.0,0.0,0.0,0.0,0.0,0.0,-0.967,-1.0534,0.0,-1.2543,-1.363,-1.4425,-1.5004,-1.5241,-1.5756,-1.6007,-1.5731,-1.5944,-1.622,-1.6497,-1.6522,-1.638,-1.6051,-1.6324,-1.638,-1.6051,-1.6337,-1.6522,-1.6522,-1.6752,-1.7312,-1.8106,-1.838,-1.8893,-1.969,-1.9442,-1.9442,-1.969,-1.9406,-1.9281,-1.9281,-1.9281,-1.9006,-1.8496,-1.8496,-1.865,-1.893,-1.9111,-1.8925,-1.8574,-1.9095,-1.9281,-1.9281,-1.9281,-1.9281,-1.9207,-1.865,-1.8688,-1.8878,-1.8849,-1.8806,-1.8801,-1.9031,-1.8862,-1.8722,-1.9002,-1.945,-1.9901,-2.0234,-2.0797,-2.1368,-2.1568,-2.189,-2.2307,-2.2848,-2.3212,-2.3566,-2.3896,-2.3937,-2.4016,-2.417,-2.419,-2.419,-2.419,-2.419,-2.4151,-2.3976,-2.3611,-2.3229,-2.2789,-2.2045,-2.1711,-2.1977,-2.1806,-2.1379,-2.0636,-2.105,-2.1079,-2.0608,-2.0438,-2.0094,-1.9604,-1.9837,-1.9884,-1.9732,-1.9197,-1.868,0.0,0.0,0.0,0.0,0.0,0.0,0.0,0.0,-0.8476,-0.9638,-1.0432,-1.1271,-1.2371,-1.3073,-1.3885,-1.4877,-1.5404,-1.5731,-1.5844,-1.6233,-1.6358,-1.5906,-1.6245,-1.6522,-1.6522,-1.6522,-1.6281,-1.582,-1.6238,-1.6324,-1.594,-1.6398,-1.671,-1.6795,-1.7229,-1.7706,-1.8263,-1.8688,-1.9169,-1.969,-1.969,-1.969,-1.969,-1.969,-1.969,-1.969,-1.969,-1.9442,-1.9043,-1.914,-1.9413,-1.9839,-2.0246,-1.9989,-1.9346,-1.9788,-1.9874,-1.9818,-1.9818,-1.9782,-1.9639,-1.9207,-1.9369,-1.9711,-1.9743,-2.0008,-2.0416,-2.0862,-2.0991,-2.0991,-2.0991,-2.1055,-2.1134,-2.1134,-2.143,-2.1735,-2.1735,-2.2241,-2.2772,-2.3045,-2.3414,-2.3795,-2.4054,-2.4151,-2.419,-2.419,-2.419,-2.419,-2.419,-2.419,-2.419,-2.419,-2.419,-2.3933,-2.329,-2.2683,-2.2321,-2.2297,-2.2486,-2.2614,-2.263,-2.2748,-2.2784,-2.2766,-2.2448,-2.2273,-2.2246,-2.193,-2.1697,-2.1479,-2.1479,-2.106,-0.7293,-0.7941,-0.8397,-0.865,-0.8168,-0.8069,0.0,0.0,-0.967,-1.0653,-1.1915,-1.2926,-1.3085,-1.3986,-1.489,-1.5505,-1.5655,-1.5869,-1.6358,-1.6471,-1.6497,-1.6434,-1.6471,-1.6522,-1.6522,-1.6522,-1.6466,-1.6423,-1.6479,-1.6667,-1.7092,-1.7188,-1.7422,-1.7907,-1.7987,-1.8263,-1.8817,-1.8855,-1.9169,-1.969,-1.969,-1.969,-1.969,-1.969,-1.969,-1.969,-1.969,-1.969,-1.9639,-2.0019,-2.0177,-2.028,-2.0731,-2.0862,-2.0781,-2.0829,-2.0599,-2.0212,-2.0212,-2.0,-1.969,-1.9639,-1.9639,-1.9782,-2.0108,-2.028,-2.0416,-2.0862,-2.0991,-2.0991,-2.0991,-2.1275,-2.1521,-2.1521,-2.1899,-2.2209,-2.2209,-2.2456,-2.2721,-2.2746,-2.3277,-2.3714,-2.3753,-2.3996,-2.419,-2.419,-2.419,-2.419,-2.419,-2.419,-2.419,-2.419,-2.419,-2.4153,-2.4061,-2.4153,-2.3948,-2.3376,-2.3525,-2.3384,-2.2794,-2.2793,-2.2728,-2.262,-2.2419,-2.2214,-2.2021,-2.1865,-2.1785,-2.1768,-2.1768,-2.1443,-0.9357,-0.944,-0.9224,-0.9655,-0.9755,-0.9998,-1.1042,-1.1559,-1.2138,-1.3078,-1.3752,-1.4287,-1.4613,-1.504,-1.553,-1.6082,-1.617,-1.6258,-1.6484,-1.6522,-1.6522,-1.6522,-1.6522,-1.6522,-1.6522,-1.6522,-1.6497,-1.6416,-1.6782,-1.7063,-1.7218,-1.7558,-1.7867,-1.8106,-1.8419,-1.865,-1.8893,-1.9207,-1.9479,-1.969,-1.969,-1.9818,-2.007,-2.007,-2.007,-2.0035,-1.9818,-1.9839,-2.0054,-2.0212,-2.0449,-2.0764,-2.1181,-2.1337,-2.1306,-2.1086,-2.0862,-2.0731,-2.0731,-2.0599,-2.0481,-2.0481,-2.0481,-2.0532,-2.0943,-2.107,-2.1165,-2.1615,-2.1751,-2.1751,-2.1751,-2.1886,-2.2044,-2.2203,-2.2395,-2.259,-2.2798,-2.3063,-2.3277,-2.3277,-2.3671,-2.3996,-2.3996,-2.4094,-2.419,-2.419,-2.419,-2.419,-2.419,-2.419,-2.419,-2.419,-2.419,-2.419,-2.419,-2.4393,-2.4425,-2.4266,-2.4417,-2.4438,-2.4265,-2.4255,-2.4226,-2.4167,-2.3957,-2.3795,-2.3629,-2.347,-2.3305,-2.3199,-2.3199,-2.3069,-1.0593,-1.0531,-1.0254,-1.0671,-1.118,-1.1713,-1.2187,-1.2979,-1.3897,-1.4738,-1.5029,-1.5255,-1.5618,-1.5819,-1.6099,-1.6646,-1.671,-1.671,-1.671,-1.671,-1.668,-1.6522,-1.6522,-1.6552,-1.671,-1.671,-1.6697,-1.6646,-1.7203,-1.7558,-1.7679,-1.8064,-1.838,-1.8535,-1.893,-1.9132,-1.9132,-1.953,-1.969,-1.969,-1.9803,-2.0035,-2.0299,-2.0449,-2.0483,-2.0483,-2.0174,-2.0243,-2.0516,-2.0601,-2.099,-2.1504,-2.1925,-2.2092,-2.2046,-2.1771,-2.1454,-2.115,-2.115,-2.1086,-2.0991,-2.0991,-2.0991,-2.1071,-2.1491,-2.1582,-2.1688,-2.218,-2.231,-2.231,-2.231,-2.2332,-2.2463,-2.266,-2.2772,-2.2898,-2.3141,-2.3459,-2.3692,-2.3692,-2.3976,-2.419,-2.419,-2.4247,-2.4284,-2.4284,-2.4339,-2.4339,-2.4209,-2.4247,-2.4284,-2.4284,-2.4321,-2.4357,-2.4357,-2.4495,-2.467,-2.4842,-2.4937,-2.5088,-2.5284,-2.5303,-2.5303,-2.5303,-2.5099,-2.4924,-2.4804,-2.4591,-2.4393,-2.419,-2.419,-2.419,-1.0232,-1.0908,-1.1633,-1.1657,-1.209,-1.2673,-1.3144,-1.3676,-1.4244,-1.4775,-1.5291,-1.568,-1.5693,-1.6132,-1.6655,-1.7188,-1.7271,-1.7271,-1.7271,-1.7271,-1.7076,-1.6552,-1.6522,-1.671,-1.7229,-1.7271,-1.7271,-1.7271,-1.7787,-1.8302,-1.8803,-1.8855,-1.9132,-1.9639,-1.969,-1.969,-1.969,-1.969,-1.969,-1.9711,-2.0089,-2.028,-2.0314,-2.0748,-2.0959,-2.0959,-2.0975,-2.0959,-2.0991,-2.1399,-2.1993,-2.2712,-2.3177,-2.3359,-2.3329,-2.3329,-2.2605,-2.1582,-2.1582,-2.1337,-2.0991,-2.0991,-2.0991,-2.1071,-2.1491,-2.1582,-2.1688,-2.218,-2.231,-2.231,-2.231,-2.25,-2.2695,-2.2695,-2.2947,-2.3189,-2.3189,-2.3459,-2.3692,-2.3692,-2.3976,-2.419,-2.419,-2.4357,-2.4495,-2.4495,-2.4654,-2.4639,-2.4266,-2.4375,-2.4495,-2.4495,-2.467,-2.479,-2.479,-2.479,-2.4855,-2.4986,-2.501,-2.5088,-2.5284,-2.5303,-2.5303,-2.5303,-2.5099,-2.4924,-2.4804,-2.4591,-2.4393,-2.419,-2.419,-2.419,-1.2402,-1.2779,-1.2841,-1.3199,-1.3741,-1.4222,-1.4397,-1.5343,-1.6263,-1.6464,-1.666,-1.6749,-1.6749,-1.6625,-1.668,-1.7188,-1.7312,-1.7435,-1.7787,-1.7827,-1.7747,-1.7585,-1.7544,-1.7626,-1.7827,-1.7188,-1.7076,-1.7787,-1.7987,-1.8341,-1.8855,-1.9244,-1.953,-1.969,-1.969,-1.969,-1.969,-1.969,-1.969,-1.9726,-2.0431,-2.091,-2.1165,-2.1337,-2.166,-2.2099,-2.1327,-2.173,-2.2883,-2.2503,-2.2953,-2.3916,-2.4073,-2.412,-2.412,-2.412,-2.3874,-2.3382,-2.2396,-2.1974,-2.1857,-2.1857,-2.1857,-2.1886,-2.2032,-2.2061,-2.2106,-2.2254,-2.231,-2.231,-2.231,-2.25,-2.2772,-2.2972,-2.33,-2.3588,-2.3816,-2.3937,-2.4016,-2.4016,-2.4113,-2.4247,-2.4375,-2.4444,-2.4561,-2.4685,-2.476,-2.4746,-2.4607,-2.4654,-2.47,-2.47,-2.476,-2.4804,-2.4804,-2.4877,-2.4949,-2.4998,-2.5141,-2.5224,-2.5303,-2.5303,-2.5303,-2.5303,-2.5224,-2.5118,-2.4924,-2.4858,-2.4752,-2.4591,-2.4591,-2.4591,-1.3626,-1.3853,-1.3715,-1.4264,-1.4813,-1.5257,-1.5257,-1.6332,-1.7177,-1.6816,-1.7008,-1.7116,-1.6805,-1.6527,-1.6554,-1.7205,-1.7411,-1.7661,-1.8025,-1.8263,-1.8302,-1.8145,-1.8106,-1.8185,-1.838,-1.7585,-1.7422,-1.8341,-1.838,-1.8612,-1.9169,-1.9645,-1.9909,-1.9909,-1.9909,-1.9909,-1.9909,-1.9782,-2.001,-2.0562,-2.1564,-2.2246,-2.2618,-2.2618,-2.2898,-2.3314,-2.2569,-2.2978,-2.4064,-2.3547,-2.3955,-2.4881,-2.4881,-2.4881,-2.4881,-2.4881,-2.4743,-2.434,-2.341,-2.2988,-2.2852,-2.2728,-2.2647,-2.2598,-2.2463,-2.2517,-2.2624,-2.2624,-2.2624,-2.2624,-2.2624,-2.2832,-2.3117,-2.3323,-2.3631,-2.3937,-2.4151,-2.4266,-2.4303,-2.4303,-2.4357,-2.4444,-2.4575,-2.4651,-2.4737,-2.4949,-2.4994,-2.4942,-2.4818,-2.4842,-2.4864,-2.4864,-2.4936,-2.4994,-2.4994,-2.5061,-2.5099,-2.5099,-2.5224,-2.5303,-2.5303,-2.5303,-2.5303,-2.5303,-2.5303,-2.5203,-2.501,-2.501,-2.4924,-2.4804,-2.4804,-2.4804,-1.39,-1.4186,-1.4337,-1.4865,-1.5394,-1.5772,-1.5772,-1.6578,-1.7032,-1.6026,-1.6506,-1.6813,-1.5875,-1.5928,-1.638,-1.7169,-1.7619,-1.7982,-1.8179,-1.8612,-1.8727,-1.8263,-1.8185,-1.8394,-1.8936,-1.85,-1.8436,-1.8979,-1.9003,-1.9161,-1.969,-2.012,-2.0361,-2.0395,-2.0364,-2.0379,-2.0457,-2.0071,-2.0659,-2.2229,-2.3342,-2.4097,-2.4506,-2.4506,-2.4523,-2.4557,-2.4523,-2.4557,-2.4625,-2.4574,-2.4983,-2.5659,-2.5659,-2.5659,-2.5692,-2.5659,-2.5234,-2.4686,-2.4655,-2.4338,-2.3867,-2.3568,-2.3361,-2.317,-2.2822,-2.2947,-2.3189,-2.3189,-2.3189,-2.3189,-2.3189,-2.3437,-2.3692,-2.3692,-2.3955,-2.419,-2.4209,-2.4357,-2.4512,-2.4512,-2.467,-2.4818,-2.4818,-2.493,-2.5088,-2.5274,-2.5303,-2.519,-2.4874,-2.4943,-2.5022,-2.5022,-2.5192,-2.5303,-2.5303,-2.5303,-2.5303,-2.5303,-2.5303,-2.5303,-2.5303,-2.5303,-2.5303,-2.5303,-2.5303,-2.5214,-2.5022,-2.5022,-2.4956,-2.4832,-2.4832,-2.4832,-1.5128,-1.5567,-1.5919,-1.607,-1.6517,-1.6896,-1.6896,-1.7339,-1.7688,-1.7385,-1.714,-1.6747,-1.6041,-1.6099,-1.6407,-1.6926,-1.7576,-1.8351,-1.9177,-1.9406,-1.9442,-1.9332,-1.9281,-1.9523,-2.019,-1.9759,-1.9868,-2.0892,-2.0138,-1.9642,-1.963,-2.0548,-2.1233,-2.1643,-2.1132,-2.1355,-2.2458,-2.2369,-2.2689,-2.344,-2.3753,-2.4097,-2.4506,-2.4506,-2.478,-2.5287,-2.4729,-2.5101,-2.6099,-2.5541,-2.5744,-2.642,-2.642,-2.6601,-2.684,-2.6536,-2.6688,-2.6982,-2.6684,-2.5596,-2.4325,-2.4199,-2.3946,-2.365,-2.3197,-2.3117,-2.3189,-2.3189,-2.3189,-2.3189,-2.3189,-2.3437,-2.3692,-2.3692,-2.3955,-2.4247,-2.4393,-2.4461,-2.4526,-2.47,-2.4836,-2.4949,-2.4949,-2.5107,-2.5234,-2.5284,-2.5303,-2.5264,-2.5171,-2.5192,-2.5224,-2.5224,-2.5264,-2.5303,-2.5303,-2.5303,-2.5303,-2.5303,-2.5303,-2.5303,-2.5303,-2.5303,-2.5303,-2.5303,-2.5303,-2.5274,-2.5224,-2.5224,-2.5203,-2.5171,-2.5171,-2.5171,-1.6169,-1.6439,-1.6522,-1.6522,-1.6909,-1.7098,-1.6399,-1.7098,-1.7484,-1.6013,-1.6294,-1.6362,-1.4906,-1.564,-1.6451,-1.6381,-1.7503,-1.8576,-1.9251,-1.9566,-1.969,-1.969,-1.969,-1.9839,-2.0228,-2.0247,-2.0533,-2.1192,-2.0892,-2.0718,-2.0801,-2.1839,-2.2563,-2.2882,-2.2508,-2.2572,-2.3176,-2.3724,-2.4144,-2.4381,-2.4896,-2.5245,-2.5456,-2.5456,-2.5676,-2.6065,-2.5642,-2.593,-2.6657,-2.6251,-2.6451,-2.6954,-2.6954,-2.721,-2.7547,-2.7303,-2.75,-2.7897,-2.7805,-2.7011,-2.586,-2.5138,-2.4733,-2.4415,-2.3642,-2.3522,-2.3649,-2.3649,-2.3649,-2.3649,-2.3649,-2.3774,-2.3917,-2.3917,-2.4074,-2.4266,-2.4461,-2.4559,-2.4716,-2.4962,-2.5084,-2.5122,-2.5122,-2.5224,-2.5303,-2.5303,-2.5303,-2.5303,-2.5303,-2.5303,-2.5303,-2.5303,-2.5322,-2.5322,-2.5303,-2.5322,-2.5322,-2.5303,-2.5303,-2.5303,-2.5303,-2.5303,-2.5303,-2.5303,-2.5303,-2.5303,-2.5303,-2.5303,-2.5303,-2.5303,-2.5303,-2.5303,-1.7057,-1.6909,-1.6522,-1.6522,-1.6857,-1.6821,-1.5427,-1.6386,-1.671,-1.3781,-1.4866,-1.5623,-1.3341,-1.4878,-1.6332,-1.5828,0.0,-1.8702,-1.8956,-1.9406,-1.969,-1.969,-1.969,-1.972,-1.9809,-2.0438,-2.0887,-2.1038,-2.1758,-2.2248,-2.2471,-2.3479,-2.4001,-2.3967,-2.4166,-2.4016,-2.3511,-2.4659,-2.5211,-2.5227,-2.6236,-2.6691,-2.6691,-2.6691,-2.6691,-2.6691,-2.6691,-2.6691,-2.6691,-2.6691,-2.6939,-2.7303,-2.7303,-2.756,-2.7964,-2.7926,-2.7954,-2.8093,-2.8316,-2.8237,-2.7788,-2.6276,-2.5731,-2.5429,-2.4272,-2.4121,-2.4337,-2.4226,-2.419,-2.419,-2.419,-2.419,-2.419,-2.419,-2.4228,-2.4303,-2.4495,-2.4716,-2.4949,-2.5243,-2.5303,-2.5303,-2.5303,-2.5303,-2.5303,-2.5303,-2.5303,-2.5303,-2.5303,-2.5303,-2.5303,-2.5303,-2.537,-2.538,-2.5331,-2.539,-2.539,-2.5322,-2.5303,-2.5303,-2.5303,-2.5303,-2.5303,-2.5303,-2.5303,-2.5303,-2.5303,-2.5303,-2.5303,-2.5303,-2.5303,-2.5303,-1.7244,-1.6909,-1.6522,-1.6522,-1.6561,-1.6586,-1.6271,-1.5895,0.0,0.0,-1.4499,-1.4071,-1.3287,-1.4327,-1.5478,-1.5966,-1.7159,-1.8404,-1.9426,-1.9639,-1.969,0.0,-1.969,-1.9914,-2.0483,-2.1141,-2.1922,-2.284,-2.3943,-2.4115,-2.3024,-2.4037,-2.458,-2.4399,-2.5562,-2.5882,-2.5195,-2.6,-2.6404,-2.6404,-2.6607,-2.6691,-2.6691,-2.6691,-2.6691,-2.6691,-2.6691,-2.6691,-2.6691,-2.6691,-2.6939,-2.7303,-2.7303,-2.7718,-2.829,-2.7992,-2.8299,-2.8767,-2.8515,-2.8583,-2.8651,-2.7702,-2.7172,-2.6662,-2.546,-2.5161,-2.5054,-2.4392,-2.419,-2.419,-2.419,-2.419,-2.419,-2.419,-2.4339,-2.4512,-2.47,-2.4987,-2.5233,-2.5293,-2.5303,-2.5303,-2.5303,-2.5303,-2.5303,-2.5303,-2.5303,-2.5322,-2.539,-2.5322,-2.5322,-2.539,-2.539,-2.5415,-2.5459,-2.5487,-2.5447,-2.539,-2.539,-2.537,-2.5303,-2.5303,-2.5303,-2.5303,-2.5303,-2.5303,-2.5303,-2.5303,-2.5303,-2.5303,-2.5303,-2.5303,-1.8011,-1.7327,-1.6522,-1.6522,-1.6484,-1.6242,-1.527,0.0,0.0,0.0,-1.348,-1.346,-1.2394,-1.3673,0.0,-1.5138,-1.6349,-1.7714,-1.8996,-1.9166,-1.9435,-2.0139,-2.0228,-2.0483,-2.1156,-2.2061,-2.2823,-2.3351,-2.4782,-2.5322,-2.4639,-2.5357,-2.5732,-2.5642,-2.6319,-2.6522,-2.6184,-2.6522,-2.6691,-2.6691,-2.6691,-2.6691,-2.6691,-2.6691,-2.6691,-2.6691,-2.6691,-2.6691,-2.6725,-2.6939,-2.7241,-2.7619,-2.7805,-2.8237,-2.8682,-2.8533,-2.87,-2.8952,-2.8773,-2.8839,-2.892,-2.8558,-2.773,-2.669,-2.569,-2.5127,-2.4685,-2.43,-2.419,-2.4228,-2.4339,-2.4357,-2.4375,-2.4495,-2.4651,-2.4795,-2.4891,-2.5107,-2.5303,-2.5303,-2.5303,-2.5303,-2.5303,-2.5303,-2.5303,-2.5303,-2.5322,-2.537,-2.5409,-2.5401,-2.5426,-2.5438,-2.5486,-2.5509,-2.5498,-2.5532,-2.5521,-2.5459,-2.5416,-2.539,-2.5341,-2.5322,-2.5303,-2.5303,-2.5303,-2.5303,-2.5303,-2.5303,-2.5303,-2.5303,-2.5303,-2.5303,-1.8702,-1.7652,-1.6522,-1.6522,-1.6325,-1.5773,-1.4224,-1.4233,0.0,-1.1894,-1.2482,-1.2995,-1.1731,-1.3065,-1.4376,0.0,-1.5728,-1.7174,-1.8523,-1.8957,-1.9525,-2.0587,-2.0842,-2.115,-2.1777,-2.2777,-2.3445,-2.3561,-2.5098,-2.6033,-2.6139,-2.6505,-2.6691,-2.6691,-2.6691,-2.6691,-2.6691,-2.6691,-2.6691,-2.6691,-2.6691,-2.6691,-2.6691,-2.6691,-2.6691,-2.6691,-2.6691,-2.6758,-2.6841,-2.7178,-2.7589,-2.802,-2.829,-2.8658,-2.8994,-2.8994,-2.8994,-2.8994,-2.8994,-2.8994,-2.8994,-2.8994,-2.8132,-2.6943,-2.5952,-2.5217,-2.465,-2.4358,-2.4247,-2.4321,-2.4512,-2.4559,-2.4607,-2.4799,-2.4911,-2.501,-2.5046,-2.5192,-2.5303,-2.5303,-2.5303,-2.5322,-2.5322,-2.5322,-2.5341,-2.5341,-2.539,-2.5428,-2.5447,-2.5488,-2.5531,-2.5544,-2.5582,-2.5584,-2.5554,-2.5597,-2.5581,-2.5531,-2.5466,-2.544,-2.539,-2.5341,-2.5303,-2.5303,-2.5303,-2.5303,-2.5303,-2.5303,-2.5303,-2.5303,-2.5303,-2.5303,-1.8792,-1.7652,-1.6522,-1.6522,-1.5759,-1.4955,-1.4534,0.0,-1.2609,-1.2195,-1.2039,-1.2007,-1.21,-1.2599,-1.3416,-1.4789,0.0,-1.7174,-1.8523,-1.9765,-2.0572,-2.0707,0.0,-2.1801,-2.2284,-2.2979,-2.3599,-2.409,-2.5281,-2.6191,-2.6624,-2.6691,-2.6691,-2.6691,-2.6691,-2.6691,-2.6691,-2.6691,-2.6691,-2.6691,-2.6691,-2.6691,-2.6691,-2.6691,-2.6691,-2.6691,-2.6691,-2.6906,-2.7241,-2.7286,-2.7718,-2.8368,-2.8394,-2.8658,-2.8994,-2.8994,-2.8994,-2.8994,-2.8994,-2.8994,-2.8994,-2.8994,-2.8883,-2.848,-2.6961,-2.6447,-2.6103,-2.4836,-2.4478,-2.4528,-2.4716,-2.4775,-2.4799,-2.4949,-2.4998,-2.5046,-2.5224,-2.5303,-2.5303,-2.5303,-2.5341,-2.539,-2.539,-2.5447,-2.5486,-2.5486,-2.5486,-2.5505,-2.5563,-2.5582,-2.5611,-2.5688,-2.562,-2.5626,-2.568,-2.5683,-2.5664,-2.5605,-2.5584,-2.5535,-2.5409,-2.539,-2.537,-2.5303,-2.5303,-2.5303,-2.5303,-2.5303,-2.5303,-2.5303,-2.5303,-2.5303,-1.9059,-1.7851,-1.6522,-1.6522,-1.568,-1.479,-1.4422,-1.3381,-1.2401,-1.2018,-1.1874,-1.1836,-1.1932,-1.2104,-1.2656,-1.4107,-1.4688,-1.5681,-1.7787,-1.8548,-1.9451,-2.0868,-2.169,-2.247,-2.3364,-2.4351,-2.5175,-2.5657,-2.6148,-2.6505,-2.6691,-2.6691,-2.6691,-2.6691,-2.6691,-2.6691,-2.6691,-2.6691,-2.6691,-2.6691,-2.6691,-2.6691,-2.6691,-2.6691,-2.6691,-2.6691,-2.6691,-2.6791,-2.6971,-2.7439,-2.7823,-2.8129,-2.8583,-2.8863,-2.8994,-2.8994,-2.8994,-2.8994,-2.8994,-2.8994,-2.8994,-2.8994,-2.8739,-2.822,-2.6985,-2.5998,-2.5227,-2.4664,-2.4575,-2.4731,-2.4877,-2.5012,-2.5115,-2.5182,-2.5173,-2.5203,-2.5331,-2.537,-2.537,-2.5409,-2.5447,-2.5456,-2.5452,-2.5473,-2.5492,-2.5492,-2.552,-2.5563,-2.5601,-2.564,-2.568,-2.5706,-2.5679,-2.5671,-2.5703,-2.5703,-2.5684,-2.5664,-2.5625,-2.558,-2.5527,-2.548,-2.5428,-2.537,-2.537,-2.5341,-2.5303,-2.5303,-2.5322,-2.537,-2.537,-2.539,-1.8986,-1.8089,-1.6912,-1.6744,-1.5982,-1.5108,-1.4332,-1.3395,-1.2532,-1.1926,-1.1805,-1.1805,-1.1805,-1.1805,-1.2239,-1.3585,-1.4139,-1.5171,-1.7384,-1.8205,-1.9211,-2.091,-2.1846,-2.2711,-2.3533,-2.4543,-2.5417,-2.6084,-2.6135,-2.6235,-2.647,-2.6624,-2.6691,-2.6691,-2.6691,-2.6691,-2.6691,-2.6691,-2.6691,-2.6691,-2.6691,-2.6691,-2.6691,-2.6691,-2.6691,-2.6691,-2.6825,-2.6873,-2.6939,-2.7718,-2.8047,-2.8102,-2.8767,-2.8994,-2.8994,-2.8994,-2.8847,-2.865,-2.865,-2.8529,-2.8393,-2.8393,-2.797,-2.7345,-2.6635,-2.5726,-2.4909,-2.4692,-2.4799,-2.4962,-2.5065,-2.5184,-2.5303,-2.5322,-2.5322,-2.5341,-2.5428,-2.5427,-2.544,-2.5498,-2.5514,-2.5523,-2.5538,-2.5556,-2.5558,-2.5558,-2.5604,-2.5628,-2.5628,-2.5667,-2.5692,-2.5702,-2.5703,-2.5703,-2.5703,-2.5703,-2.5703,-2.5703,-2.5664,-2.5625,-2.5605,-2.5541,-2.5503,-2.544,-2.5428,-2.5409,-2.5322,-2.5341,-2.537,-2.5409,-2.5425,-2.5459,-1.8519,-1.836,-1.7915,-1.7246,-1.6679,-1.5896,-1.435,-1.3599,-1.2939,-1.1985,-1.1805,-1.1805,-1.1805,-1.1805,-1.2239,-1.3585,-1.4902,-1.6219,-1.7503,-1.94,-2.0692,-2.0707,-2.163,-2.2353,-2.2412,-2.2869,-2.3584,-2.4738,-2.4822,-2.5186,-2.5964,-2.6436,-2.6691,-2.6691,-2.6691,-2.6691,-2.6691,-2.6691,-2.6691,-2.6691,-2.6691,-2.6691,-2.6691,-2.6691,-2.6691,-2.6725,-2.7115,-2.7286,-2.7348,-2.8084,-2.8376,-2.8446,-2.8839,-2.8994,-2.8994,-2.8994,-2.8503,-2.7805,-2.7805,-2.7424,-2.6916,-2.6916,-2.6519,-2.6023,-2.6007,-2.6004,-2.5861,-2.5178,-2.5141,-2.5303,-2.5303,-2.5303,-2.5322,-2.539,-2.5409,-2.5428,-2.5486,-2.549,-2.5508,-2.5508,-2.5546,-2.5601,-2.5611,-2.5643,-2.5703,-2.5703,-2.5703,-2.5703,-2.5703,-2.5703,-2.5703,-2.5703,-2.5703,-2.5703,-2.5703,-2.5703,-2.5703,-2.5703,-2.5703,-2.5664,-2.5605,-2.5605,-2.5576,-2.5493,-2.5495,-2.5466,-2.5409,-2.5466,-2.5466,-2.539,-2.5473,-2.5508,-1.6548,-1.6336,-1.5976,-1.5271,-1.5005,-1.4644,-1.3558,-1.3257,-1.2939,-1.1985,-1.1805,-1.1805,-1.1805,-1.1805,-1.2388,-1.4184,-1.4827,-1.5874,-1.8089,-1.8942,-1.9602,-2.0345,-2.1682,-2.2915,-2.3753,-2.3967,-2.4413,-2.5279,-2.5346,-2.5665,-2.6437,-2.6624,-2.6691,-2.6691,-2.6691,-2.6691,-2.6691,-2.6691,-2.6691,-2.6691,-2.6691,-2.6691,-2.6725,-2.6987,-2.7115,-2.7115,-2.7547,-2.756,-2.7348,-2.8112,-2.8246,-2.8102,-2.8749,-2.8994,-2.8994,-2.8994,-2.8503,-2.7809,-2.7964,-2.7528,-2.6935,-2.706,-2.6695,-2.6195,-2.6157,-2.5753,-2.5292,-2.5228,-2.5253,-2.5303,-2.537,-2.537,-2.539,-2.5447,-2.5476,-2.5478,-2.5543,-2.5571,-2.5589,-2.562,-2.5642,-2.5665,-2.5665,-2.5696,-2.5703,-2.5703,-2.5703,-2.5703,-2.5703,-2.5703,-2.5703,-2.5703,-2.5703,-2.5703,-2.5703,-2.5703,-2.5703,-2.5703,-2.5671,-2.5634,-2.5664,-2.5625,-2.5585,-2.5577,-2.5571,-2.5538,-2.548,-2.5492,-2.5505,-2.5534,-2.5613,-2.5636,-1.5116,-1.5357,-1.5283,-1.4586,-1.4475,-1.4196,-1.3176,-1.299,-1.2824,-1.197,-1.1805,-1.1805,-1.1805,-1.2108,-1.2818,-1.4195,-1.5173,-1.635,-1.8074,-1.8762,-1.9455,-2.0436,-2.1456,-2.2468,-2.3583,-2.3762,-2.4068,-2.4729,-2.5287,-2.5812,-2.6251,-2.6539,-2.6691,-2.6691,-2.6691,-2.6691,-2.6691,-2.6691,-2.6691,-2.6691,-2.6841,-2.6939,-2.6939,-2.7348,-2.7547,-2.753,-2.7936,-2.788,0.0,-2.8316,-2.8394,-2.8156,-2.8767,-2.8994,-2.9017,-2.9112,-2.8436,-2.75,-2.768,-2.7078,-2.6202,-2.6344,-2.6179,-2.5937,-2.5898,-2.5547,-2.519,-2.5302,-2.537,-2.539,-2.5428,-2.5436,-2.544,-2.5524,-2.5545,-2.5564,-2.5622,-2.5613,-2.5619,-2.5648,-2.5634,-2.5636,-2.5664,-2.5664,-2.5664,-2.5703,-2.5703,-2.5703,-2.5703,-2.5703,-2.5703,-2.5703,-2.5683,-2.5668,-2.5668,-2.5668,-2.5642,-2.5631,-2.5593,-2.5583,-2.5625,-2.5618,-2.5605,-2.5605,-2.5629,-2.5606,-2.5548,-2.5546,-2.5558,-2.5634,-2.5687,-2.5703,0.0,-1.5001,-1.5364,-1.4677,-1.4573,-1.4303,-1.3026,-1.2771,0.0,-1.1939,-1.1805,-1.1835,-1.1925,-1.2678,-1.3428,-1.3935,-1.5854,-1.7394,-1.7717,-1.8882,-2.0015,-2.0862,-2.0959,-2.1323,-2.218,-2.2498,-2.2867,-2.3346,-2.4678,-2.5473,-2.5524,-2.6167,-2.6572,-2.6572,-2.6572,-2.6623,-2.6691,-2.6725,-2.6725,-2.6691,-2.7115,-2.7303,-2.7317,-2.7736,-2.7954,-2.7936,-2.8246,-2.8237,-2.7982,-2.8676,-2.8749,-2.8446,-2.8839,-2.9017,-2.9044,-2.9235,-2.8295,-2.6953,-2.7083,-2.6205,-2.501,-2.5022,-2.519,-2.5409,-2.5409,-2.5399,-2.5409,-2.5409,-2.5447,-2.5495,-2.5504,-2.5492,-2.5512,-2.5572,-2.5588,-2.5614,-2.568,-2.5634,-2.5582,-2.5592,-2.5541,-2.5511,-2.558,-2.5585,-2.5605,-2.5683,-2.5683,-2.5684,-2.5684,-2.5703,-2.5703,-2.5682,-2.5647,-2.5601,-2.5582,-2.5582,-2.5567,-2.5507,-2.5498,-2.5506,-2.5495,-2.5563,-2.5585,-2.5605,-2.5664,-2.5664,-2.5605,-2.5609,-2.5634,-2.5703,-2.5703,-2.5703,-1.1194,0.0,-1.278,-1.1946,-1.2508,-1.3056,0.0,-1.2418,-1.2621,0.0,0.0,-1.2119,-1.3151,-1.3103,-1.3594,-1.5666,-1.6473,-1.7209,-1.8313,-1.9166,-1.9874,-2.0382,-2.0797,-2.1181,-2.1718,-2.2153,-2.268,-2.3359,-2.3714,-2.4154,-2.4712,-2.4929,-2.5139,-2.5394,-2.5394,-2.5808,-2.6674,-2.7004,-2.6987,-2.6691,-2.7115,-2.7303,-2.7317,-2.7974,-2.829,-2.829,-2.8368,-2.8368,-2.829,-2.8471,-2.8489,-2.8446,-2.8839,-2.9134,-2.9235,-2.8626,-2.7867,-2.7064,-2.666,-2.5844,-2.5022,-2.5231,-2.5379,-2.5485,-2.5479,-2.5472,-2.5485,-2.5479,-2.5453,-2.5447,-2.5486,-2.5457,-2.5447,-2.5504,-2.552,-2.5533,-2.5542,-2.5527,-2.5518,-2.5524,-2.5514,-2.5509,-2.5519,-2.5526,-2.5531,-2.5531,-2.5595,-2.5625,-2.5625,-2.5664,-2.5687,-2.5621,-2.5618,-2.5563,-2.5466,-2.5486,-2.5515,-2.5492,-2.5453,-2.5446,-2.5505,-2.5479,-2.5498,-2.5605,-2.5664,-2.5684,-2.5684,-2.5673,-2.5675,-2.5703,-2.5703,-2.5673,-0.9438,-1.0884,-1.2173,-1.1556,-1.2225,-1.2902,-1.2374,0.0,0.0,0.0,0.0,-1.2119,-1.3151,-1.3673,-1.4465,-1.6038,-1.7166,-1.8148,-1.9051,-1.9821,-2.0311,-2.0314,-2.1086,-2.1615,-2.1582,-2.2333,-2.2835,-2.2885,-2.3511,-2.3917,-2.3985,-2.4337,-2.4641,-2.4977,-2.514,-2.5714,-2.6692,-2.6556,-2.673,-2.7255,-2.7233,-2.7452,-2.7833,-2.8394,-2.8682,-2.8658,-2.8471,-2.8496,-2.8658,-2.8471,-2.8515,-2.8707,-2.9048,-2.9026,-2.876,-2.8536,-2.7711,-2.6698,-2.6505,-2.5876,-2.5222,-2.5382,-2.5481,-2.5532,-2.552,-2.5515,-2.5542,-2.5505,-2.5468,-2.5442,-2.5496,-2.5464,-2.5464,-2.5479,-2.5498,-2.5498,-2.5498,-2.5478,-2.5441,-2.5457,-2.5428,-2.5428,-2.5447,-2.5459,-2.5459,-2.5498,-2.5535,-2.5543,-2.5542,-2.5586,-2.5593,-2.5556,-2.5532,-2.5486,-2.5409,-2.5409,-2.5409,-2.5409,-2.537,-2.537,-2.5409,-2.5409,-2.546,-2.5605,-2.5664,-2.5703,-2.5703,-2.5703,-2.5673,-2.5658,-2.5658,-2.5613,-0.8763,-1.064,-1.2466,-1.1897,-1.2497,-1.312,-1.275,0.0,0.0,0.0,0.0,0.0,0.0,-1.441,0.0,-1.5992,-1.7852,-1.9372,-1.9834,-2.0532,-2.0862,-2.0449,-2.1477,-2.2032,-2.1658,-2.2584,-2.297,-2.2361,-2.346,-2.3883,-2.3274,-2.3816,-2.4347,-2.4698,-2.5015,-2.5569,-2.6499,-2.587,-2.6233,-2.7543,-2.7305,-2.7572,-2.824,-2.8742,-2.8994,-2.8994,-2.8565,-2.856,-2.8787,-2.8384,-2.8482,-2.8905,-2.9105,-2.88,-2.8241,-2.851,-2.7611,-2.6282,-2.6376,-2.5967,-2.5434,-2.5499,-2.555,-2.5587,-2.5527,-2.5546,-2.555,-2.546,-2.5449,-2.5486,-2.5484,-2.5486,-2.5466,-2.5466,-2.5466,-2.5466,-2.5466,-2.5428,-2.539,-2.539,-2.5341,-2.5322,-2.537,-2.539,-2.5409,-2.5466,-2.5486,-2.5483,-2.5479,-2.5496,-2.5496,-2.5496,-2.5429,-2.5409,-2.539,-2.5322,-2.5303,-2.5303,-2.5303,-2.5303,-2.5303,-2.537,-2.5439,-2.5561,-2.5641,-2.5662,-2.5662,-2.5662,-2.5632,-2.5581,-2.5582,-2.5556,-0.9989,-1.1411,-1.2224,-1.0632,-1.1574,-1.272,-1.2096,0.0,0.0,0.0,0.0,0.0,0.0,-1.5555,-1.6097,-1.7221,-1.8526,-1.9701,-2.0669,-2.091,-2.0959,-2.0894,-2.1368,-2.1688,-2.1628,-2.2132,-2.2429,-2.231,-2.2513,-2.2598,-2.2479,-2.2581,-2.2904,-2.3464,-2.3536,-2.4211,-2.5585,-2.5809,-2.5897,-2.5897,-2.6785,-2.7241,-2.7428,-2.8505,-2.8994,-2.8994,-2.8565,-2.8233,-2.7948,-2.755,-2.7707,-2.8256,-2.8276,-2.846,-2.8612,-2.7951,-2.7211,-2.6455,-2.5803,-2.5542,-2.5498,-2.5556,-2.5592,-2.5601,-2.56,-2.5504,-2.5389,-2.5212,-2.5274,-2.5418,-2.5418,-2.537,-2.5322,-2.5322,-2.5322,-2.5322,-2.5322,-2.5322,-2.5322,-2.5322,-2.5303,-2.5303,-2.5303,-2.5322,-2.5322,-2.5322,-2.539,-2.5418,-2.5418,-2.5465,-2.5484,-2.5427,-2.5409,-2.539,-2.5322,-2.5303,-2.5303,-2.5303,-2.5303,-2.5303,-2.5303,-2.537,-2.5412,-2.5438,-2.5498,-2.5539,-2.5539,-2.5539,-2.5537,-2.5515,-2.5528,-2.5486,-0.9283,-1.0589,-1.1555,-1.0629,-1.2288,-1.4014,-1.353,0.0,0.0,0.0,0.0,0.0,0.0,0.0,-1.6893,-1.8812,-1.9777,-2.0448,-2.0927,-2.1181,-2.1244,-2.1039,-2.1584,-2.1899,-2.1612,-2.2032,-2.231,-2.231,-2.231,-2.236,-2.25,-2.2527,-2.2807,-2.3437,-2.3459,-2.3894,-2.474,-2.4928,-2.5379,-2.6092,-2.6182,-2.6449,-2.6886,-2.7464,-2.7714,-2.7691,-2.7278,-2.7126,-2.7123,-2.684,-2.7019,-2.7475,-2.7687,-2.7631,-2.7312,-2.6579,-2.6173,-2.5909,-2.5563,-2.5502,-2.5564,-2.5582,-2.5605,-2.5572,-2.5371,-2.5298,-2.5206,-2.4999,-2.513,-2.5312,-2.5201,-2.5233,-2.5303,-2.5303,-2.5303,-2.5303,-2.5303,-2.5303,-2.5303,-2.5303,-2.5303,-2.5303,-2.5303,-2.5303,-2.5303,-2.5303,-2.5322,-2.5524,-2.5986,-2.5659,-2.5563,-2.6005,-2.564,-2.5322,-2.5303,-2.5303,-2.5303,-2.5303,-2.5303,-2.5303,-2.5303,-2.537,-2.5399,-2.5401,-2.5472,-2.5488,-2.5488,-2.5488,-2.5468,-2.5449,-2.5446,-2.5409,-0.8815,-0.992,-1.1074,-1.1288,-1.3046,-1.4694,-1.4592,0.0,0.0,0.0,0.0,0.0,0.0,-1.7075,-1.8035,-2.0268,-2.0959,-2.1274,-2.1397,-2.1728,-2.1857,-2.1546,-2.2108,-2.2364,-2.2017,-2.2292,-2.2508,-2.2508,-2.2508,-2.2607,-2.2797,-2.2822,-2.3093,-2.3692,-2.3692,-2.3878,-2.4266,-2.4228,-2.4814,-2.6025,-2.5585,-2.5713,-2.6337,-2.6521,-2.6612,-2.6573,-2.6277,-2.6235,-2.6383,-2.6213,-2.6394,-2.6795,-2.7106,-2.6829,-2.6211,-2.557,-2.537,-2.5409,-2.5486,-2.5541,-2.5574,-2.5595,-2.5582,-2.5494,-2.5177,-2.5089,-2.5025,-2.4808,-2.4949,-2.5149,-2.4986,-2.5077,-2.5214,-2.5182,-2.5171,-2.5171,-2.5171,-2.5171,-2.5171,-2.5171,-2.5171,-2.5171,-2.5171,-2.5171,-2.5182,-2.5243,-2.5397,-2.5714,-2.6226,-2.589,-2.5793,-2.6255,-2.5687,-2.5303,-2.5303,-2.5303,-2.5303,-2.5303,-2.5303,-2.5303,-2.5303,-2.5341,-2.539,-2.539,-2.5428,-2.5447,-2.5447,-2.5447,-2.5428,-2.539,-2.539,-2.5341,-0.986,-1.0527,-1.1157,-1.2582,-1.2955,0.0,-1.3735,-1.3346,0.0,-1.578,0.0,0.0,0.0,-1.878,-1.9704,-2.1269,-2.1799,-2.2152,-2.2521,-2.2855,-2.3076,-2.3052,-2.3093,-2.3117,-2.3093,-2.3117,-2.3135,-2.3135,-2.3135,-2.3141,-2.3165,-2.3165,-2.3346,-2.3692,-2.3692,-2.3961,-2.4478,-2.4284,-2.4263,-2.4373,-2.5072,-2.5439,-2.5513,-2.6264,-2.6612,-2.6612,-2.6573,-2.6256,-2.5764,-2.5745,-2.5981,-2.6365,-2.639,-2.6469,-2.6484,-2.5687,-2.5409,-2.5428,-2.5543,-2.5562,-2.5526,-2.5592,-2.5524,-2.5379,-2.5158,-2.5057,-2.4937,-2.4604,-2.467,-2.4832,-2.4818,-2.4917,-2.4986,-2.4869,-2.4847,-2.4847,-2.4847,-2.4847,-2.4847,-2.4847,-2.4847,-2.4847,-2.4847,-2.4847,-2.4883,-2.4998,-2.571,-2.6025,-2.5466,-2.6043,-2.6217,-2.5476,-2.5341,-2.5303,-2.5303,-2.5303,-2.5303,-2.5303,-2.5303,-2.5303,-2.5303,-2.5303,-2.5303,-2.5303,-2.5303,-2.5303,-2.5303,-2.5303,-2.5303,-2.5303,-2.5303,-2.5303,-0.8812,-0.9857,-1.1042,-1.2042,-1.2854,0.0,0.0,-1.4842,-1.5637,-1.7038,-1.7361,0.0,-1.9151,-2.0157,-2.1012,-2.1795,-2.2224,-2.26,-2.2972,-2.3117,-2.3189,-2.3189,-2.3189,-2.3189,-2.3189,-2.3189,-2.3189,-2.3189,-2.3189,-2.33,-2.35,-2.3522,-2.3671,-2.3996,-2.4016,-2.4114,-2.4321,-2.4357,-2.4393,-2.4393,-2.456,-2.4649,-2.4649,-2.4961,-2.5107,-2.5107,-2.5245,-2.517,-2.4978,-2.5179,-2.5359,-2.5487,-2.5639,-2.5723,-2.5755,-2.5505,-2.5423,-2.5473,-2.5526,-2.5545,-2.5551,-2.5484,-2.5447,-2.5339,-2.5006,-2.4907,-2.4814,-2.4409,-2.4461,-2.4607,-2.4607,-2.4741,-2.485,-2.4818,-2.4804,-2.4804,-2.4804,-2.4804,-2.4804,-2.4804,-2.4804,-2.4804,-2.4804,-2.4804,-2.4832,-2.4883,-2.5222,-2.5539,-2.571,-2.5664,-2.565,-2.5729,-2.5279,-2.5024,-2.5118,-2.5111,-2.5163,-2.5284,-2.5303,-2.5303,-2.5303,-2.5303,-2.5303,-2.5303,-2.5303,-2.5303,-2.5303,-2.5303,-2.5243,-2.5111,-2.5111,-2.5072,-0.8387,-0.9645,-1.1086,0.0,0.0,0.0,-1.4929,-1.58,-1.6713,-1.7843,-1.8663,-1.9483,-2.0344,-2.1103,-2.1731,-2.2091,-2.2565,-2.2947,-2.3165,-2.3392,-2.3548,-2.3599,-2.3599,-2.3642,-2.3689,-2.371,-2.371,-2.371,-2.371,-2.3787,-2.3943,-2.4003,-2.4136,-2.4284,-2.4357,-2.4409,-2.4441,-2.4543,-2.4623,-2.4666,-2.4478,-2.4393,-2.4393,-2.4393,-2.4393,-2.4393,-2.4526,-2.4623,-2.4678,-2.4911,-2.5034,-2.5099,-2.5253,-2.5303,-2.5341,-2.5409,-2.5459,-2.5498,-2.5517,-2.5531,-2.5524,-2.5428,-2.534,-2.5209,-2.4902,-2.476,-2.4639,-2.4303,-2.4229,-2.4247,-2.4247,-2.4405,-2.4535,-2.447,-2.4454,-2.4489,-2.4591,-2.4607,-2.4607,-2.4607,-2.4607,-2.4607,-2.4607,-2.4607,-2.4623,-2.47,-2.4988,-2.5404,-2.5937,-2.5603,-2.5397,-2.5593,-2.5125,-2.4828,-2.4943,-2.4974,-2.5046,-2.5203,-2.5264,-2.5303,-2.5303,-2.5303,-2.5303,-2.5303,-2.5303,-2.5264,-2.5203,-2.5203,-2.5118,-2.4943,-2.4943,-2.4891,-0.8986,-1.0117,-1.1361,0.0,0.0,0.0,-1.5555,-1.5814,-1.6306,-1.8053,-1.9799,-2.1118,-2.1521,-2.1628,-2.1764,-2.2237,-2.2824,-2.3189,-2.3189,-2.3774,-2.4266,-2.4478,-2.4495,-2.4575,-2.4775,-2.4804,-2.4804,-2.4804,-2.4804,-2.4716,-2.4512,-2.4685,-2.4716,-2.4512,-2.47,-2.485,-2.4998,-2.4883,-2.4883,-2.501,-2.4869,-2.4804,-2.4804,-2.4804,-2.4804,-2.4804,-2.4804,-2.4883,-2.501,-2.501,-2.5111,-2.5303,-2.5303,-2.5341,-2.5409,-2.5466,-2.5496,-2.5504,-2.5584,-2.5505,-2.5409,-2.5409,-2.522,-2.4974,-2.4842,-2.4654,-2.4461,-2.4266,-2.3976,-2.3692,-2.3692,-2.3846,-2.3948,-2.3738,-2.3692,-2.3795,-2.4113,-2.4208,-2.4208,-2.419,-2.419,-2.419,-2.419,-2.419,-2.4284,-2.4461,-2.5181,-2.577,-2.5954,-2.5982,-2.5691,-2.4865,-2.479,-2.479,-2.4804,-2.493,-2.4998,-2.501,-2.5192,-2.5303,-2.5303,-2.5303,-2.5303,-2.5303,-2.5303,-2.5203,-2.501,-2.501,-2.4943,-2.4804,-2.4804,-2.4804,-0.8631,-0.9912,0.0,-1.2364,0.0,0.0,0.0,-1.6817,0.0,0.0,-2.086,-2.1568,-2.2003,-2.2106,-2.2203,-2.2537,-2.294,-2.3277,-2.3522,-2.3917,-2.4228,-2.4284,-2.4409,-2.4528,-2.4575,-2.4716,-2.4804,-2.4804,-2.4804,-2.4775,-2.4716,-2.4775,-2.4775,-2.4716,-2.4775,-2.4832,-2.4869,-2.4917,-2.4962,-2.501,-2.5107,-2.5031,-2.4804,-2.4804,-2.4804,-2.4804,-2.4904,-2.4962,-2.501,-2.5152,-2.5253,-2.5303,-2.5341,-2.539,-2.5408,-2.5479,-2.5496,-2.5504,-2.5468,-2.5428,-2.537,-2.5179,-2.5065,-2.4949,-2.4666,-2.4561,-2.4461,-2.4266,-2.4132,-2.3937,-2.3459,-2.3379,-2.3424,-2.3351,-2.3346,-2.3437,-2.3774,-2.3837,-2.3917,-2.4151,-2.419,-2.419,-2.419,-2.419,-2.4209,-2.4284,-2.4613,-2.4864,-2.4933,-2.4814,-2.4652,-2.4393,-2.4375,-2.4445,-2.4594,-2.462,-2.4712,-2.4855,-2.491,-2.5037,-2.5303,-2.5163,-2.5088,-2.5088,-2.5,-2.491,-2.4869,-2.4869,-2.4771,-2.4575,-2.4575,-2.4512,-0.9165,-1.0597,0.0,-1.3006,-1.4227,-1.5538,-1.6803,0.0,0.0,0.0,-2.1181,-2.1538,-2.218,-2.231,-2.2332,-2.2527,-2.2915,-2.3259,-2.3459,-2.3896,-2.4228,-2.4321,-2.4495,-2.4654,-2.4693,-2.4883,-2.5006,-2.5006,-2.5006,-2.4962,-2.4877,-2.4949,-2.4962,-2.4877,-2.4962,-2.5006,-2.5006,-2.5103,-2.5149,-2.5149,-2.5311,-2.5258,-2.5082,-2.5044,-2.5044,-2.5038,-2.5153,-2.5187,-2.5217,-2.533,-2.539,-2.539,-2.5428,-2.5448,-2.5443,-2.5499,-2.5476,-2.5444,-2.5412,-2.533,-2.522,-2.5053,-2.4911,-2.4762,-2.4559,-2.4444,-2.4357,-2.4228,-2.4016,-2.3714,-2.3282,-2.3093,-2.3045,-2.3165,-2.3189,-2.3346,-2.3795,-2.3896,-2.3917,-2.3996,-2.4113,-2.4151,-2.4016,-2.4113,-2.43,-2.463,-2.5318,-2.5579,-2.493,-2.5021,-2.4905,-2.4263,-2.419,-2.4247,-2.4375,-2.4444,-2.4543,-2.467,-2.476,-2.4823,-2.4892,-2.4905,-2.493,-2.493,-2.4714,-2.4629,-2.4685,-2.4535,-2.4456,-2.4375,-2.4375,-2.4321,-1.0078,0.0,0.0,-1.3665,-1.4617,0.0,-1.7342,-1.8283,-1.9216,-2.0637,-2.0959,-2.126,-2.2077,-2.2282,-2.231,-2.231,-2.2798,-2.3189,-2.3189,-2.3774,-2.4266,-2.4444,-2.4654,-2.4828,-2.4949,-2.5152,-2.5274,-2.5274,-2.5303,-2.5214,-2.5034,-2.5203,-2.5214,-2.5034,-2.5203,-2.5303,-2.5303,-2.537,-2.5399,-2.5399,-2.5466,-2.5505,-2.5505,-2.5438,-2.5418,-2.5399,-2.5466,-2.5495,-2.5493,-2.5493,-2.5493,-2.5474,-2.5493,-2.5493,-2.5488,-2.5486,-2.5454,-2.5399,-2.537,-2.519,-2.4979,-2.4955,-2.4752,-2.4495,-2.4478,-2.4339,-2.419,-2.419,-2.3735,-2.3236,-2.3212,-2.2972,-2.2822,-2.3117,-2.3189,-2.3369,-2.4016,-2.4151,-2.4074,-2.3795,-2.3996,-2.4094,-2.3795,-2.3996,-2.4447,-2.5182,-2.6539,-2.6924,-2.5495,-2.5933,-2.5823,-2.4355,-2.419,-2.419,-2.419,-2.4357,-2.4478,-2.4478,-2.4623,-2.4564,-2.4256,-2.4564,-2.4708,-2.4678,-2.436,-2.4261,-2.4372,-2.41,-2.4042,-2.4151,-2.419,-2.419,-0.9312,-1.0708,0.0,0.0,-1.5484,-1.7254,-1.7625,-1.8627,-1.9672,-2.0317,-2.0748,-2.115,-2.1658,-2.2032,-2.231,-2.231,-2.2798,-2.3189,-2.3189,-2.3774,-2.4209,-2.4266,-2.4426,-2.4575,-2.4604,-2.4885,-2.5057,-2.5057,-2.5214,-2.5274,-2.5243,-2.5274,-2.5274,-2.5243,-2.5274,-2.5322,-2.539,-2.539,-2.5423,-2.5485,-2.5485,-2.5504,-2.5498,-2.55,-2.547,-2.5485,-2.5485,-2.5464,-2.5412,-2.5412,-2.5393,-2.5354,-2.5393,-2.5424,-2.5428,-2.5426,-2.5415,-2.537,-2.5149,-2.5053,-2.4962,-2.4693,-2.4559,-2.4461,-2.4321,-2.4228,-2.419,-2.419,-2.3917,-2.3522,-2.3259,-2.3141,-2.3117,-2.3189,-2.3189,-2.3323,-2.3714,-2.3816,-2.3858,-2.4054,-2.4151,-2.417,-2.4094,-2.4151,-2.4263,-2.4428,-2.474,-2.485,-2.4502,-2.4612,-2.4575,-2.4245,-2.419,-2.419,-2.419,-2.4247,-2.4247,-2.4247,-2.4058,-2.3905,-2.3826,-2.4044,-2.4045,-2.378,-2.3548,-2.345,-2.3468,-2.3678,-2.378,-2.3816,-2.4074,-2.419,-0.9185,0.0,0.0,-1.4307,0.0,-1.723,-1.7298,-1.807,-1.8822,-1.9076,-2.0149,-2.1118,-2.1521,-2.1974,-2.231,-2.231,-2.2798,-2.3189,-2.3189,-2.3774,-2.419,-2.419,-2.4375,-2.4545,-2.4639,-2.4858,-2.5034,-2.5141,-2.5234,-2.5303,-2.5303,-2.5303,-2.5303,-2.5303,-2.5322,-2.537,-2.5409,-2.5421,-2.5472,-2.5503,-2.5504,-2.5508,-2.5507,-2.5492,-2.5503,-2.5508,-2.5508,-2.5486,-2.5444,-2.5442,-2.5435,-2.5396,-2.5435,-2.5371,-2.5253,-2.5254,-2.521,-2.5094,-2.4949,-2.485,-2.4737,-2.4559,-2.4426,-2.4339,-2.4228,-2.419,-2.419,-2.419,-2.3837,-2.3414,-2.3253,-2.3069,-2.2996,-2.3165,-2.3305,-2.3522,-2.3876,-2.3937,-2.3937,-2.3976,-2.4094,-2.4151,-2.3996,-2.4405,-2.4759,-2.4759,-2.5089,-2.5217,-2.4814,-2.4759,-2.463,-2.4245,-2.419,-2.419,-2.419,-2.419,-2.4113,-2.3976,-2.3795,-2.3566,-2.3236,-2.332,-2.337,-2.337,-2.3106,-2.3045,-2.3189,-2.3369,-2.3544,-2.3714,-2.4036,-2.419,0.0,0.0,-1.301,-1.5099,-1.6174,0.0,-1.6766,-1.725,-1.77,-1.7754,-1.9257,-2.0702,-2.1234,-2.1716,-2.2057,-2.2265,-2.2798,-2.3189,-2.3189,-2.3774,-2.419,-2.419,-2.4358,-2.4528,-2.4731,-2.4877,-2.5053,-2.5224,-2.5274,-2.5303,-2.5322,-2.5322,-2.5322,-2.5322,-2.5379,-2.5404,-2.541,-2.5459,-2.5487,-2.5496,-2.5507,-2.549,-2.5477,-2.5473,-2.548,-2.5454,-2.5485,-2.5465,-2.5434,-2.5437,-2.5426,-2.5417,-2.5417,-2.5271,-2.505,-2.5057,-2.4953,-2.479,-2.476,-2.4639,-2.4495,-2.4461,-2.4303,-2.4113,-2.4113,-2.4074,-2.4016,-2.4016,-2.3588,-2.3117,-2.3189,-2.2996,-2.2873,-2.3212,-2.3544,-2.3858,-2.4151,-2.419,-2.4113,-2.3837,-2.4016,-2.4113,-2.3837,-2.4563,-2.5201,-2.5201,-2.575,-2.5952,-2.5293,-2.5201,-2.4924,-2.4186,-2.4113,-2.4094,-2.4016,-2.4016,-2.3917,-2.3631,-2.3566,-2.3277,-2.2721,-2.266,-2.2764,-2.3038,-2.2764,-2.2772,-2.3117,-2.3117,-2.3323,-2.3714,-2.3996,-2.4133,0.0,0.0,-1.2883,0.0,-1.5815,-1.6603,0.0,-1.6975,-1.7614,-1.7272,-1.8042,-1.9059,-2.0044,-2.0544,-2.1149,-2.2136,-2.2798,-2.3189,-2.3189,-2.3774,-2.419,-2.419,-2.4228,-2.4321,-2.4528,-2.4697,-2.4896,-2.5022,-2.5203,-2.5322,-2.539,-2.539,-2.5409,-2.5466,-2.5434,-2.5425,-2.5481,-2.5448,-2.5434,-2.55,-2.5493,-2.5475,-2.5418,-2.5415,-2.5349,-2.5247,-2.5426,-2.5379,-2.5149,-2.5158,-2.5113,-2.5072,-2.5072,-2.4975,-2.4847,-2.4968,-2.4917,-2.4775,-2.4591,-2.4528,-2.4461,-2.4303,-2.4036,-2.3774,-2.3774,-2.3566,-2.3346,-2.3346,-2.3069,-2.2848,-2.3117,-2.3165,-2.3212,-2.3544,-2.3896,-2.4151,-2.419,-2.419,-2.419,-2.4151,-2.417,-2.419,-2.4151,-2.4262,-2.4355,-2.4355,-2.4447,-2.4483,-2.4373,-2.4355,-2.4222,-2.3813,-2.3774,-2.3649,-2.3369,-2.3346,-2.3305,-2.3259,-2.2996,-2.2797,-2.2695,-2.249,-2.236,-2.2415,-2.2377,-2.249,-2.2772,-2.2772,-2.3093,-2.3692,-2.3753,-2.3917,-0.8558,-1.0363,-1.2241,0.0,-1.5008,-1.5777,-1.5661,-1.6155,-1.6604,-1.6514,-1.6723,-1.7421,-1.9092,-1.9719,-2.0212,-2.0894,-2.1409,-2.1914,-2.2498,-2.3001,-2.3523,-2.4115,-2.419,-2.4303,-2.4639,-2.4746,-2.4896,-2.5152,-2.5273,-2.537,-2.5409,-2.5402,-2.541,-2.5429,-2.5425,-2.541,-2.5436,-2.5414,-2.5408,-2.539,-2.539,-2.537,-2.5341,-2.5341,-2.5248,-2.5095,-2.5308,-2.5258,-2.505,-2.5172,-2.5134,-2.501,-2.501,-2.4845,-2.4639,-2.4693,-2.462,-2.4444,-2.4357,-2.421,-2.404,-2.3958,-2.3692,-2.3414,-2.3414,-2.3323,-2.3189,-2.3189,-2.2972,-2.2772,-2.3117,-2.2958,-2.2824,-2.33,-2.3522,-2.3692,-2.3876,-2.4074,-2.419,-2.419,-2.419,-2.419,-2.419,-2.419,-2.4151,-2.3955,-2.3917,-2.3837,-2.3671,-2.3649,-2.3588,-2.3455,-2.3414,-2.3369,-2.3212,-2.3189,-2.3117,-2.2923,-2.2772,-2.2634,-2.2473,-2.236,-2.231,-2.231,-2.231,-2.2426,-2.2695,-2.2695,-2.3045,-2.3692,-2.3692,-2.3774,0.0,0.0,-1.1346,-1.2872,-1.401,-1.4774,0.0,-1.531,-1.561,-1.5613,-1.5725,-1.6315,-1.795,-1.8718,-1.9293,-1.99,-2.0336,-2.095,-2.195,-2.2437,-2.3063,-2.4079,-2.4247,-2.4409,-2.476,-2.4828,-2.4975,-2.5312,-2.537,-2.5409,-2.5447,-2.5434,-2.5427,-2.5444,-2.5422,-2.5405,-2.5406,-2.539,-2.5341,-2.5303,-2.5303,-2.5303,-2.5303,-2.5303,-2.5203,-2.501,-2.5214,-2.5192,-2.501,-2.5163,-2.5141,-2.4998,-2.4962,-2.4795,-2.4594,-2.4594,-2.4444,-2.4266,-2.4172,-2.3939,-2.3692,-2.3588,-2.3346,-2.3069,-2.3069,-2.3038,-2.2965,-2.2965,-2.2789,-2.266,-2.2996,-2.273,-2.2544,-2.3087,-2.3189,-2.3323,-2.3753,-2.4016,-2.419,-2.419,-2.419,-2.417,-2.4094,-2.4074,-2.3976,-2.361,-2.3566,-2.3482,-2.3212,-2.3189,-2.3165,-2.3069,-2.3069,-2.3063,-2.2982,-2.2965,-2.2865,-2.2625,-2.2599,-2.25,-2.231,-2.231,-2.231,-2.231,-2.231,-2.2426,-2.2695,-2.2695,-2.3045,-2.3692,-2.361,-2.3671,0.0,-0.8866,0.0,-1.1624,-1.2886,-1.3811,-1.3939,-1.4592,-1.5013,-1.4669,-1.5224,-1.5928,-1.6366,-1.7293,-1.8437,-1.9765,-2.0489,-2.1171,-2.1994,-2.2616,-2.3272,-2.4098,-2.4375,-2.4578,-2.4775,-2.4898,-2.5096,-2.538,-2.5409,-2.5466,-2.5582,-2.5535,-2.5512,-2.56,-2.5466,-2.5399,-2.539,-2.5332,-2.5303,-2.5303,-2.5303,-2.5303,-2.5303,-2.5303,-2.5203,-2.501,-2.5214,-2.5192,-2.501,-2.501,-2.501,-2.4986,-2.4869,-2.4804,-2.479,-2.479,-2.4654,-2.4442,-2.4118,-2.3886,-2.3649,-2.3346,-2.2996,-2.2721,-2.2721,-2.2554,-2.2349,-2.2349,-2.2321,-2.2388,-2.266,-2.2695,-2.2772,-2.3117,-2.3189,-2.3392,-2.4036,-2.419,-2.419,-2.419,-2.419,-2.4094,-2.3774,-2.3714,-2.361,-2.3277,-2.323,-2.3212,-2.3189,-2.3189,-2.3069,-2.2772,-2.2721,-2.2625,-2.2377,-2.2349,-2.2338,-2.2321,-2.2321,-2.2293,-2.231,-2.231,-2.231,-2.231,-2.231,-2.2426,-2.2695,-2.2695,-2.3045,-2.3692,-2.3369,-2.3566,0.0,0.0,0.0,-1.0324,-1.1228,-1.2087,-1.3094,-1.3574,-1.4007,-1.4729,-1.5134,-1.5551,-1.6176,-1.6786,-1.742,-1.8162,-1.8625,-1.9308,-2.0463,-2.0811,-2.1368,-2.252,-2.2718,-2.2882,-2.3177,-2.3285,-2.3455,-2.3775,-2.3871,-2.3938,-2.3995,-2.3964,-2.3964,-2.3986,-2.3919,-2.4111,-2.461,-2.4553,-2.4812,-2.537,-2.5322,-2.5303,-2.5303,-2.5303,-2.5264,-2.5203,-2.5264,-2.5192,-2.501,-2.5141,-2.513,-2.4998,-2.4937,-2.4883,-2.4804,-2.4804,-2.467,-2.4459,-2.4118,-2.3728,-2.3282,-2.2686,-2.2279,-2.1931,-2.1681,-2.1535,-2.1462,-2.1462,-2.1462,-2.1598,-2.2169,-2.2169,-2.2158,-2.2729,-2.2873,-2.2996,-2.3459,-2.3566,-2.361,-2.3837,-2.3714,-2.3588,-2.3692,-2.3522,-2.3277,-2.2923,-2.2873,-2.2815,-2.2634,-2.2624,-2.2571,-2.248,-2.2436,-2.2398,-2.231,-2.231,-2.231,-2.231,-2.231,-2.231,-2.231,-2.231,-2.231,-2.231,-2.231,-2.2426,-2.2695,-2.2695,-2.2947,-2.3392,-2.3477,-2.3544,-0.6963,0.0,0.0,0.0,-0.988,-1.0498,-1.2006,-1.2385,-1.2773,-1.4001,-1.4569,-1.5091,-1.5767,-1.6378,-1.6917,-1.7248,-1.7664,-1.8362,-1.9611,-1.9874,-2.0389,-2.1641,-2.1902,-2.2055,-2.2273,-2.2463,-2.2673,-2.2917,-2.3028,-2.3081,-2.3093,-2.3052,-2.3036,-2.3026,-2.3003,-2.3257,-2.3794,-2.4025,-2.4405,-2.4966,-2.5226,-2.5322,-2.5303,-2.5303,-2.5303,-2.5303,-2.5303,-2.5224,-2.5111,-2.5234,-2.5214,-2.5099,-2.5022,-2.4993,-2.4949,-2.4896,-2.4756,-2.454,-2.41,-2.3611,-2.3052,-2.2207,-2.1786,-2.1521,-2.1118,-2.0991,-2.0991,-2.0991,-2.0991,-2.1118,-2.1622,-2.1668,-2.1731,-2.2197,-2.2449,-2.2643,-2.2857,-2.3063,-2.3277,-2.35,-2.3346,-2.3236,-2.3346,-2.3165,-2.2923,-2.2599,-2.2563,-2.25,-2.2321,-2.231,-2.231,-2.231,-2.231,-2.231,-2.231,-2.231,-2.231,-2.231,-2.231,-2.231,-2.231,-2.231,-2.231,-2.231,-2.231,-2.2388,-2.2563,-2.266,-2.2822,-2.3045,-2.3259,-2.3323,0.0,0.0,0.0,-0.8763,-0.8838,-0.9055,-1.057,-1.0961,-1.1296,-1.2253,-1.3472,-1.4502,-1.497,-1.6019,-1.6901,-1.7224,-1.7805,-1.8534,-1.9613,-1.999,-2.0553,-2.1603,-2.2025,-2.2211,-2.2243,-2.2598,-2.2852,-2.2911,-2.2927,-2.2953,-2.3025,-2.2893,-2.2829,-2.2822,-2.2894,-2.2945,-2.297,-2.3748,-2.4116,-2.4111,-2.4957,-2.5351,-2.5303,-2.5303,-2.5303,-2.5303,-2.5284,-2.5284,-2.5284,-2.5284,-2.5303,-2.5264,-2.5077,-2.5111,-2.5264,-2.5077,-2.4904,-2.4693,-2.4007,-2.3536,-2.3003,-2.1931,-2.1582,-2.1491,-2.1086,-2.0959,-2.0959,-2.0959,-2.0959,-2.0959,-2.0959,-2.1275,-2.1582,-2.1582,-2.1974,-2.231,-2.231,-2.2747,-2.3183,-2.3189,-2.3165,-2.3069,-2.2746,-2.2695,-2.2599,-2.2321,-2.2282,-2.2282,-2.2282,-2.2282,-2.231,-2.231,-2.231,-2.231,-2.231,-2.231,-2.231,-2.231,-2.231,-2.231,-2.231,-2.231,-2.231,-2.231,-2.231,-2.231,-2.231,-2.2563,-2.2695,-2.2695,-2.2695,-2.288,-0.6483,0.0,0.0,0.0,0.0,0.0,-0.899,-0.9019,-0.924,-1.1051,-1.2283,-1.3257,-1.3948,-1.5573,-1.6747,-1.6528,-1.7294,-1.8082,-1.8568,-1.8865,-1.9218,-1.9721,-2.0107,-2.0388,-2.0476,-2.077,-2.0985,-2.1109,-2.1156,-2.1198,-2.1228,-2.1136,-2.1108,-2.1157,-2.1177,-2.1515,-2.2198,-2.2335,-2.2999,-2.4167,-2.4373,-2.4755,-2.5303,-2.5303,-2.5303,-2.5284,-2.5152,-2.5088,-2.5088,-2.5088,-2.5037,-2.4923,-2.4883,-2.4883,-2.4923,-2.4883,-2.4595,-2.4155,-2.3741,-2.3249,-2.2652,-2.1549,-2.115,-2.1023,-2.0277,-2.005,-2.005,-2.005,-2.005,-2.0139,-2.0416,-2.1039,-2.1582,-2.1582,-2.1974,-2.231,-2.231,-2.2443,-2.2607,-2.2797,-2.2695,-2.2581,-2.2669,-2.2269,-2.1878,-2.1807,-2.1794,-2.1794,-2.1794,-2.2106,-2.231,-2.231,-2.231,-2.231,-2.231,-2.231,-2.231,-2.231,-2.231,-2.231,-2.231,-2.231,-2.231,-2.231,-2.231,-2.231,-2.231,-2.2563,-2.2599,-2.2426,-2.2625,-2.3021,-0.6574,-0.6599,-0.6737,-0.7269,0.0,0.0,-0.8287,-0.8091,-0.8204,-1.0254,-1.1299,-1.2079,-1.2916,-1.4523,-1.571,-1.5626,-1.6577,-1.7545,-1.8125,-1.843,-1.8734,-1.9048,-1.9448,-1.9744,-1.9904,-2.0142,-2.0323,-2.0392,-2.0441,-2.0456,-2.0416,-2.0389,-2.0373,-2.0409,-2.0443,-2.0728,-2.1276,-2.1552,-2.2178,-2.3114,-2.3438,-2.3794,-2.4187,-2.4521,-2.4624,-2.4568,-2.4816,-2.478,-2.458,-2.458,-2.4666,-2.4804,-2.4804,-2.4708,-2.4591,-2.4591,-2.4259,-2.3737,-2.3408,-2.3035,-2.2521,-2.1366,-2.0991,-2.0845,-1.9945,-1.969,-1.969,-1.969,-1.969,-1.9747,-2.0,-2.0682,-2.1337,-2.1337,-2.184,-2.231,-2.231,-2.231,-2.2349,-2.25,-2.2415,-2.2276,-2.2258,-2.1874,-2.1521,-2.1368,-2.1337,-2.1337,-2.1337,-2.1735,-2.2003,-2.2003,-2.218,-2.231,-2.231,-2.231,-2.231,-2.231,-2.231,-2.231,-2.231,-2.231,-2.231,-2.231,-2.231,-2.231,-2.231,-2.2463,-2.2436,-2.231,-2.2704,-2.3117,-0.6858,-0.6822,-0.6941,-0.7471,-0.7044,0.0,-0.8175,-0.7911,-0.7848,-0.9552,-1.0293,-1.0915,-1.1817,-1.3123,-1.4212,-1.466,-1.5826,-1.6995,-1.7988,-1.8391,-1.8717,-1.9136,-1.9535,-1.9858,-2.0076,-2.0271,-2.0395,-2.0409,-2.0386,-2.0344,-2.0265,-2.0241,-2.026,-2.0269,-2.0313,-2.0357,-2.0352,-2.1114,-2.1527,-2.1559,-2.2324,-2.2643,-2.2596,-2.3309,-2.3518,-2.3375,-2.4233,-2.4286,-2.384,-2.3894,-2.4191,-2.4613,-2.4613,-2.4447,-2.4169,-2.4169,-2.3858,-2.3365,-2.307,-2.2835,-2.2485,-2.1366,-2.0991,-2.0845,-1.9945,-1.969,-1.969,-1.969,-1.969,-1.969,-1.969,-2.0345,-2.0991,-2.0991,-2.1661,-2.231,-2.231,-2.231,-2.2282,-2.2237,-2.2209,-2.2106,-2.1658,-2.1521,-2.1321,-2.0991,-2.0926,-2.0926,-2.0926,-2.1275,-2.1521,-2.1521,-2.1899,-2.218,-2.2209,-2.2209,-2.2237,-2.231,-2.231,-2.231,-2.231,-2.231,-2.231,-2.231,-2.231,-2.231,-2.231,-2.231,-2.231,-2.231,-2.2883,-2.3165,-0.7935,-0.8131,-0.8366,-0.8687,-0.8569,0.0,-0.8346,-0.7764,-0.7378,-0.7838,-0.8506,-0.9336,-1.0543,-1.2105,-1.3457,-1.4135,-1.5447,-1.6702,-1.7669,-1.8069,-1.8512,-1.912,-1.9402,-1.9702,-2.0055,-2.0284,-2.0404,-2.0391,-2.0247,-2.0116,-2.0069,-1.9962,-1.9912,-1.9993,-1.9983,-2.0012,-2.0077,-2.0186,-2.0573,-2.1211,-2.1365,-2.1779,-2.2369,-2.252,-2.2469,-2.2337,-2.2926,-2.3015,-2.2749,-2.3181,-2.3424,-2.3516,-2.3516,-2.3454,-2.341,-2.341,-2.3182,-2.2863,-2.2788,-2.2599,-2.2231,-2.1306,-2.0991,-2.0845,-1.9945,-1.969,-1.969,-1.969,-1.969,-1.969,-1.969,-2.0345,-2.0991,-2.0991,-2.1661,-2.231,-2.231,-2.231,-2.218,-2.1794,-2.1718,-2.1718,-2.1628,-2.1039,-2.055,-2.0449,-2.0449,-2.0449,-2.0449,-2.0813,-2.1118,-2.1118,-2.1197,-2.1385,-2.1705,-2.1718,-2.1899,-2.2282,-2.231,-2.231,-2.231,-2.231,-2.231,-2.231,-2.231,-2.231,-2.231,-2.231,-2.231,-2.231,-2.2625,-2.2947,-0.8444,-0.8704,-0.8971,-0.9266,-0.9479,0.0,0.0,-0.9336,-0.9269,-1.0205,-0.9908,-0.987,-1.1081,-1.1906,-1.2592,-1.3194,-1.4604,-1.5925,-1.6738,-1.7797,-1.8735,-1.9379,-1.9662,-1.993,-2.0219,-2.033,-2.0385,-2.0359,-2.0165,-2.005,-2.0012,-1.988,-1.9813,-1.985,-1.985,-1.9866,-1.9896,-1.9875,-1.9982,-2.026,-2.0251,-2.0367,-2.0571,-2.0979,-2.1055,-2.0948,-2.1624,-2.1949,-2.2007,-2.2289,-2.2558,-2.2773,-2.3087,-2.3093,-2.2947,-2.3007,-2.2798,-2.25,-2.25,-2.2398,-2.218,-2.1507,-2.115,-2.0862,-2.0193,-1.9874,-1.969,-1.969,-1.969,-1.969,-1.969,-2.0345,-2.0991,-2.0991,-2.1661,-2.2237,-2.2003,-2.1957,-2.184,-2.1385,-2.1102,-2.0959,-2.0959,-2.0601,-2.0212,-2.0035,-2.0,-2.0,-2.0,-2.0398,-2.0649,-2.0649,-2.1039,-2.1368,-2.1582,-2.1823,-2.2032,-2.2282,-2.231,-2.231,-2.231,-2.231,-2.231,-2.231,-2.231,-2.231,-2.231,-2.231,-2.231,-2.231,-2.259,-2.2873,-0.907,-0.9377,-0.9754,-1.0146,-1.0569,-1.0946,0.0,0.0,0.0,-1.266,-1.1683,-1.0903,-1.2,-1.1901,-1.1838,-1.2443,-1.379,-1.4999,-1.5667,-1.7329,-1.8684,-1.9178,-1.9568,-1.9888,-2.0133,-2.0173,-2.0218,-2.0296,-1.9944,-1.9812,-1.9954,-1.9802,-1.9695,-1.9695,-1.9695,-1.9682,-1.9645,-1.9645,-1.9511,-1.9257,-1.9257,-1.9078,-1.8788,-1.9435,-1.9629,-1.9538,-2.0339,-2.0815,-2.1098,-2.1409,-2.1747,-2.2146,-2.278,-2.2865,-2.2625,-2.2686,-2.2535,-2.231,-2.231,-2.231,-2.2209,-2.1748,-2.1275,-2.0797,-2.0314,-1.9965,-1.969,-1.969,-1.969,-1.969,-1.969,-2.0277,-2.0862,-2.0862,-2.1477,-2.1945,-2.1568,-2.1491,-2.1368,-2.0959,-2.055,-2.0314,-2.0314,-2.0261,-2.0054,-1.9747,-1.969,-1.969,-1.969,-2.0,-2.0177,-2.0177,-2.0797,-2.1306,-2.146,-2.184,-2.2123,-2.2282,-2.231,-2.2254,-2.218,-2.218,-2.2209,-2.231,-2.231,-2.231,-2.231,-2.231,-2.231,-2.231,-2.259,-2.2873,-1.048,-1.1103,-1.1824,-1.2455,-1.274,-1.2817,-1.2556,0.0,-1.175,-1.1351,0.0,-1.1135,-1.2034,0.0,0.0,-1.2508,-1.3386,-1.4168,-1.4843,-1.6362,-1.7435,-1.7573,-1.8229,-1.8861,-1.9299,-1.9336,-1.9603,-2.0254,-1.9344,-1.9063,-1.9787,-1.9526,-1.9365,-1.9365,-1.9365,-1.9274,-1.9084,-1.9084,-1.8965,-1.868,-1.868,-1.868,-1.8642,-1.8713,-1.8632,-1.8423,-1.9169,-1.9395,-1.9321,-2.0679,-2.1281,-2.1407,-2.2105,-2.2377,-2.2349,-2.2349,-2.2338,-2.231,-2.231,-2.231,-2.2209,-2.1748,-2.1039,-2.0314,-1.9909,-1.9762,-1.969,-1.969,-1.969,-1.969,-1.969,-2.0035,-2.0382,-2.0382,-2.0781,-2.1118,-2.1086,-2.1055,-2.0926,-2.0483,-2.0348,-2.0314,-2.0314,-2.0,-1.9747,-1.9726,-1.969,-1.969,-1.969,-1.9747,-1.9782,-1.9782,-1.9854,-2.0243,-2.0991,-2.1134,-2.1493,-2.2254,-2.231,-2.2106,-2.1688,-2.1688,-2.1869,-2.2282,-2.231,-2.231,-2.231,-2.231,-2.231,-2.231,-2.259,-2.2873,-1.1048,-1.1891,-1.2685,-1.3173,-1.3648,-1.3948,-1.3744,-1.3682,-1.3742,-1.3929,0.0,0.0,0.0,0.0,0.0,0.0,-1.2814,-1.3095,-1.3373,-1.4023,-1.5236,-1.7298,-1.7902,-1.8226,-1.8422,-1.8451,-1.8566,-1.884,-1.8251,-1.824,-1.9005,-1.8753,-1.8812,-1.9305,-1.9198,-1.9086,-1.8984,-1.8861,-1.8623,-1.8371,-1.8371,-1.829,-1.8125,-1.8125,-1.8061,-1.7988,-1.8295,-1.862,-1.8944,-1.9587,-2.0111,-2.0534,-2.0829,-2.1515,-2.231,-2.231,-2.231,-2.231,-2.231,-2.231,-2.218,-2.1477,-2.1007,-2.0599,-1.9909,-1.969,-1.969,-1.969,-1.969,-1.969,-1.969,-2.0,-2.0314,-2.0314,-2.0649,-2.0926,-2.0649,-2.0583,-2.0465,-2.0035,-1.9929,-1.9929,-1.9929,-1.9803,-1.969,-1.969,-1.969,-1.969,-1.969,-1.969,-1.969,-1.969,-1.9909,-2.0193,-2.055,-2.0829,-2.126,-2.1869,-2.1899,-2.1794,-2.1628,-2.1582,-2.1688,-2.1899,-2.2163,-2.231,-2.231,-2.231,-2.231,-2.231,-2.2426,-2.2643,-1.1536,-1.2456,-1.328,-1.3654,-1.4222,-1.4652,-1.4561,-1.4916,-1.538,-1.5743,-1.5142,0.0,0.0,0.0,-1.2864,-1.2613,0.0,-1.2425,-1.2189,-1.237,-1.3522,-1.6255,-1.6904,-1.7134,-1.7164,-1.6971,-1.7003,-1.7358,-1.6965,-1.7234,-1.8411,-1.8244,-1.8434,-1.9193,-1.9086,-1.8931,-1.8789,-1.8585,-1.8351,-1.8082,-1.8082,-1.7992,-1.7811,-1.7811,-1.7811,-1.7811,-1.7811,-1.8115,-1.8623,-1.8713,-1.9142,-1.9714,-1.9705,-2.0528,-2.1718,-2.1921,-2.2141,-2.231,-2.231,-2.231,-2.218,-2.1415,-2.1086,-2.0862,-2.0104,-1.9782,-1.969,-1.969,-1.969,-1.969,-1.969,-1.9909,-2.0124,-2.0124,-2.0398,-2.0565,-2.0227,-2.0124,-2.007,-1.9747,-1.969,-1.969,-1.969,-1.969,-1.969,-1.969,-1.969,-1.969,-1.969,-1.969,-1.969,-1.969,-1.9965,-2.0193,-2.028,-2.0616,-2.0991,-2.1399,-2.1321,-2.129,-2.143,-2.129,-2.1368,-2.1598,-2.1928,-2.218,-2.231,-2.231,-2.231,-2.231,-2.231,-2.2436,-1.2242,-1.3008,-1.3787,-1.4241,-1.4631,-1.4895,-1.4876,-1.5607,-1.6043,-1.5288,-1.5825,-1.6189,-1.5432,-1.4613,-1.376,-1.2926,-1.2795,0.0,0.0,-1.2157,-1.2889,-1.3633,-1.4586,-1.5226,-1.5287,-1.464,-1.4807,-1.6246,-1.5499,-1.5985,-1.8292,-1.8209,-1.8377,-1.8983,-1.9001,-1.8752,-1.8229,-1.8208,-1.8078,-1.7811,-1.7811,-1.7811,-1.7811,-1.7811,-1.7811,-1.7811,-1.7811,-1.7805,-1.7873,-1.8253,-1.8626,-1.8947,-1.9023,-1.947,-2.017,-2.094,-2.1684,-2.231,-2.231,-2.231,-2.2209,-2.1735,-2.1306,-2.0894,-2.0416,-2.0,-1.969,-1.969,-1.969,-1.969,-1.969,-1.9726,-1.9711,-1.9711,-1.9726,-1.9762,-1.9711,-1.9711,-1.9726,-1.969,-1.969,-1.969,-1.969,-1.969,-1.969,-1.969,-1.969,-1.969,-1.969,-1.969,-1.969,-1.969,-1.9711,-1.9874,-2.028,-2.0314,-2.0516,-2.0991,-2.0583,-2.055,-2.0991,-2.0583,-2.0732,-2.1582,-2.1612,-2.1853,-2.231,-2.231,-2.231,-2.231,-2.231,-2.2436,-1.3005,-1.3712,-1.4361,-1.4661,-1.4944,-1.5127,-1.5004,-1.5248,-1.5449,-1.527,-1.5409,-1.5521,-1.5388,-1.4671,-1.3994,-1.3713,-1.3189,-1.2498,0.0,-1.156,-1.1494,-1.1196,-1.2513,-1.347,-1.3541,-1.3794,-1.4156,-1.4611,-1.4719,-1.5343,-1.6678,-1.6463,-1.6653,-1.7392,-1.715,-1.694,-1.6756,-1.6564,-1.668,-1.7067,-1.6576,-1.6864,-1.7794,-1.7287,-1.7337,-1.7789,-1.7572,-1.7479,-1.7472,-1.7378,-1.7425,-1.7517,-1.7555,-1.8111,-1.9092,-2.035,-2.1122,-2.1634,-2.2141,-2.231,-2.218,-2.1446,-2.1118,-2.0862,-2.0139,-1.9818,-1.969,-1.969,-1.969,-1.969,-1.969,-1.969,-1.969,-1.969,-1.969,-1.969,-1.969,-1.969,-1.969,-1.969,-1.969,-1.969,-1.969,-1.969,-1.969,-1.969,-1.969,-1.969,-1.969,-1.969,-1.969,-1.969,-1.969,-1.9747,-1.9909,-2.0158,-2.0382,-2.0516,-2.0382,-2.0382,-2.0516,-2.0382,-2.0449,-2.0732,-2.1039,-2.1415,-2.184,-2.184,-2.2003,-2.231,-2.231,-2.2349,-1.3627,-1.418,-1.4682,-1.4867,-1.5325,-1.5588,-1.5086,-1.5508,-1.5901,-1.5648,-1.5547,-1.5648,-1.6037,-1.5238,-1.441,-1.4054,-1.332,-1.2363,0.0,-1.076,-1.0441,-0.9956,-1.1181,-1.1963,-1.1718,-1.2192,-1.2716,-1.3184,-1.3589,-1.4393,-1.5751,-1.5618,-1.5809,-1.6474,-1.6252,-1.6028,-1.5864,-1.5692,-1.5792,-1.6147,-1.5677,-1.5921,-1.672,-1.6487,-1.6631,-1.7096,-1.7109,-1.7126,-1.7101,-1.6763,-1.6686,-1.6789,-1.6528,-1.7008,-1.8,-1.9339,-2.0404,-2.1322,-2.204,-2.231,-2.218,-2.1446,-2.1134,-2.0862,-2.0139,-1.9803,-1.969,-1.969,-1.969,-1.969,-1.969,-1.969,-1.969,-1.969,-1.9566,-1.9479,-1.9639,-1.9566,-1.9479,-1.9639,-1.969,-1.969,-1.969,-1.969,-1.969,-1.969,-1.969,-1.969,-1.969,-1.969,-1.969,-1.969,-1.969,-1.969,-1.969,-1.9929,-2.0089,-2.0089,-2.0089,-2.0089,-2.0089,-2.0089,-2.0158,-2.0314,-2.0764,-2.1213,-2.1582,-2.1764,-2.2003,-2.231,-2.231,-2.231]}]]